[[{"header":{"parameterUnit":"m.s-1","parameterCategory":1,"la1":31.0,"la2":29.5877,"lo1":-88.7671,"lo2":-86.6584,"dy":0.0162,"dx":0.0185,"nx":115,"ny":88,"refTime":"2023-04-28T12:00:00:Z","depth":0,"parameterNumber":2,"parameterNumberName":"U-component_of_WINDS"},"data":[0.0,0.0,0.0,0.0,0.0,0.0,0.0,0.0,0.0,0.0,0.0,0.0,0.0,0.0,0.0,0.0,0.0,0.0,0.0,0.0,0.0,0.0,0.0,0.0,0.0,0.0,0.0,0.0,0.0,0.0,0.0,0.0,0.0,0.0,0.0,0.0,0.0,0.0,0.0,0.0,0.0,0.0,0.0,0.0,0.0,0.0,0.0,0.0,0.0,0.0,0.0,0.0,0.0,0.0,0.0,0.0,0.0,0.0,0.0,0.0,0.0,0.0,0.0,0.0,0.0,0.0,0.0,0.0,0.0,0.0,0.0,0.0,0.0,0.0,0.0,0.0,0.0,0.0,0.0,0.0,0.0,0.0,0.0,0.0,0.0,0.0,0.0,0.0,0.0,0.0,0.0,0.0,0.0,0.0,0.0,0.0,0.0,0.0,0.0,0.0,0.0,0.0,0.0,0.0,0.0,0.0,0.0,0.0,0.0,0.0,0.0,0.0,0.0,0.0,0.0,0.0,0.0,0.0,0.0,0.0,0.0,0.0,0.0,0.0,0.0,0.0,0.0,0.0,0.0,0.0,0.0,0.0,0.0,0.0,0.0,0.0,0.0,0.0,0.0,0.0,0.0,0.0,0.0,0.0,0.0,0.0,0.0,0.0,0.0,0.0,0.0,0.0,0.0,0.0,0.0,0.0,0.0,0.0,0.0,0.0,0.0,0.0,0.0,0.0,0.0,0.0,0.0,0.0,0.0,0.0,0.0,0.0,0.0,0.0,0.0,0.0,0.0,0.0,0.0,0.0,0.0,0.0,0.0,0.0,0.0,0.0,0.0,0.0,0.0,0.0,0.0,0.0,0.0,0.0,0.0,0.0,0.0,0.0,0.0,0.0,0.0,0.0,0.0,0.0,0.0,0.0,0.0,0.0,0.0,0.0,0.0,0.0,0.0,0.0,0.0,0.0,0.0,0.0,0.0,0.0,0.0,0.0,0.0,0.0,0.0,0.0,0.0,0.0,0.0,0.0,0.0,0.0,0.0,0.0,0.0,0.0,0.0,0.0,0.0,0.0,0.0,0.0,0.0,0.0,0.0,0.0,0.0,0.0,0.0,0.0,0.0,0.0,0.0,0.0,0.0,0.0,0.0,0.0,0.0,0.0,0.0,0.0,0.0,0.0,0.0,0.0,0.0,0.0,0.0,0.0,0.0,0.0,0.0,0.0,0.0,0.0,0.0,0.0,0.0,0.0,0.0,0.0,0.0,0.0,0.0,0.0,0.0,0.0,0.0,0.0,0.0,0.0,0.0,0.0,0.0,0.0,0.0,0.0,0.0,0.0,0.0,0.0,0.0,0.0,0.0,0.0,0.0,0.0,0.0,0.0,0.0,0.0,0.0,0.0,0.0,0.0,0.0,0.0,0.0,0.0,0.0,0.0,0.0,0.0,0.0,0.0,0.0,0.0,0.0,0.0,0.0,0.0,0.0,0.0,0.0,0.0,0.0,0.0,0.0,0.0,0.0,0.0,0.0,0.0,0.0,0.0,0.0,0.0,0.0,0.0,0.0,0.0,0.0,0.0,0.0,0.0,0.0,0.0,0.0,0.0,0.0,0.0,0.0,0.0,0.0,0.0,0.0,0.0,0.0,0.0,0.0,0.0,0.0,0.0,0.0,0.0,0.0,0.0,0.0,0.0,0.0,0.0,0.0,0.0,0.0,0.0,0.0,0.0,0.0,0.0,0.0,0.0,0.0,0.0,0.0,0.0,0.0,0.0,0.0,0.0,0.0,0.0,0.0,0.0,0.0,0.0,0.0,0.0,0.0,0.0,0.0,0.0,0.0,0.0,0.0,0.0,0.0,0.0,0.0,0.0,0.0,0.0,0.0,0.0,0.0,0.0,0.0,0.0,0.0,0.0,0.0,0.0,0.0,0.0,0.0,0.0,0.0,0.0,0.0,0.0,0.0,0.0,0.0,0.0,0.0,0.0,0.0,0.0,0.0,0.0,0.0,0.0,0.0,0.0,0.0,0.0,0.0,0.0,0.0,0.0,0.0,0.0,0.0,0.0,0.0,0.0,0.0,0.0,0.0,0.0,0.0,0.0,0.0,0.0,0.0,0.0,0.0,0.0,0.0,0.0,0.0,0.0,0.0,0.0,0.0,0.0,0.0,0.0,0.0,0.0,0.0,0.0,0.0,0.0,0.0,0.0,0.0,0.0,0.0,0.0,0.0,0.0,0.0,0.0,0.0,0.0,0.0,0.0,0.0,0.0,0.0,0.0,0.0,0.0,0.0,0.0,0.0,0.0,0.0,0.0,0.0,0.0,0.0,0.0,0.0,0.0,0.0,0.0,0.0,0.0,0.0,0.0,0.0,0.0,0.0,0.0,0.0,0.0,0.0,0.0,0.0,0.0,0.0,0.0,0.0,0.0,0.0,0.0,0.0,0.0,0.0,0.0,0.0,0.0,0.0,0.0,0.0,0.0,0.0,0.0,0.0,0.0,0.0,0.0,0.0,0.0,0.0,0.0,0.0,0.0,0.0,0.0,0.0,0.0,0.0,0.0,0.0,0.0,0.0,0.0,0.0,0.0,0.0,0.0,0.0,0.0,0.0,0.0,0.0,0.0,0.0,0.0,0.0,0.0,0.0,0.0,0.0,0.0,0.0,0.0,0.0,0.0,0.0,0.0,0.0,0.0,0.0,0.0,0.0,0.0,0.0,0.0,0.0,0.0,0.0,0.0,0.0,0.0,0.0,0.0,0.0,0.0,0.0,0.0,0.0,0.0,0.0,0.0,0.0,0.0,0.0,0.0,0.0,0.0,0.0,0.0,0.0,0.0,0.0,0.0,0.0,0.0,0.0,0.0,0.0,0.0,0.0,0.0,0.0,0.0,0.0,0.0,0.0,0.0,0.0,0.0,0.0,0.0,0.0,0.0,0.0,0.0,0.0,0.0,0.0,0.0,0.0,0.0,0.0,0.0,0.0,0.0,0.0,0.0,0.0,0.0,0.0,0.0,0.0,0.0,0.0,0.0,0.0,0.0,0.0,0.0,0.0,0.0,0.0,0.0,0.0,0.0,0.0,0.0,0.0,0.0,0.0,0.0,0.0,0.0,0.0,0.0,0.0,0.0,0.0,0.0,0.0,0.0,0.0,0.0,0.0,0.0,0.0,0.0,0.0,0.0,0.0,0.0,0.0,0.0,0.0,0.0,0.0,0.0,0.0,0.0,0.0,0.0,0.0,0.0,0.0,0.0,0.0,0.0,0.0,0.0,0.0,0.0,0.0,0.0,0.0,0.0,0.0,0.0,0.0,0.0,0.0,0.0,0.0,0.0,0.0,0.0,0.0,0.0,0.0,0.0,0.0,0.0,0.0,0.0,0.0,0.0,0.0,0.0,0.0,0.0,0.0,0.0,0.0,0.0,0.0,0.0,0.0,0.0,0.0,0.0,0.0,0.0,0.0,0.0,0.0,0.0,0.0,0.0,0.0,0.0,0.0,0.0,0.0,0.0,0.0,0.0,0.0,0.0,0.0,0.0,0.0,0.0,0.0,0.0,0.0,0.0,0.0,0.0,0.0,0.0,0.0,0.0,0.0,0.0,0.0,0.0,0.0,0.0,0.0,0.0,0.0,0.0,0.0,0.0,0.0,0.0,0.0,0.0,0.0,0.0,0.0,0.0,0.0,0.0,0.0,0.0,0.0,0.0,0.0,0.0,0.0,0.0,0.0,0.0,0.0,0.0,0.0,0.0,0.0,0.0,0.0,0.0,0.0,0.0,0.0,0.0,0.0,0.0,0.0,0.0,0.0,0.0,0.0,0.0,0.0,0.0,0.0,0.0,0.0,0.0,0.0,0.0,0.0,0.0,0.0,0.0,0.0,0.0,0.0,0.0,0.0,0.0,0.0,0.0,0.0,0.0,0.0,0.0,0.0,0.0,0.0,0.0,0.0,0.0,0.0,0.0,0.0,0.0,0.0,0.0,0.0,0.0,0.0,0.0,0.0,0.0,0.0,0.0,0.0,0.0,0.0,0.0,0.0,0.0,0.0,0.0,0.0,0.0,0.0,0.0,0.0,0.0,0.0,0.0,0.0,0.0,0.0,0.0,0.0,0.0,0.0,0.0,0.0,0.0,0.0,0.0,0.0,0.0,0.0,0.0,0.0,0.0,0.0,0.0,0.0,0.0,0.0,0.0,0.0,0.0,0.0,0.0,0.0,0.0,0.0,0.0,0.0,0.0,0.0,0.0,0.0,0.0,0.0,0.0,0.0,0.0,0.0,0.0,0.0,0.0,-0.8138,0.0,0.0,0.0,0.0,0.0,0.0,0.0,0.0,0.0,0.0,0.0,0.0,0.0,0.0,0.0,0.0,0.0,0.0,0.0,0.0,0.0,0.0,0.0,0.0,0.0,0.0,0.0,0.0,0.0,0.0,0.0,0.0,0.0,0.0,0.0,0.0,0.0,0.0,0.0,0.0,0.0,0.0,0.0,0.0,0.0,0.0,0.0,0.0,0.0,0.0,0.0,0.0,0.0,0.0,0.0,0.0,0.0,0.0,0.0,0.0,0.0,0.0,0.0,0.0,0.0,0.0,0.0,0.0,0.0,0.0,0.0,0.0,0.0,0.0,0.0,0.0,0.0,0.0,0.0,0.0,0.0,0.0,0.0,0.0,0.0,0.0,0.0,0.0,0.0,0.0,0.0,0.0,0.0,0.0,0.0,0.0,0.0,0.0,0.0,0.0,0.0,0.0,0.0,0.0,0.0,0.0,0.0,0.0,0.0,0.0,-0.7943,-0.8027,-0.7668,-0.771,-0.825,0.0,0.0,0.0,0.0,0.0,0.0,0.0,0.0,0.0,0.0,0.0,0.0,0.0,0.0,0.0,0.0,0.0,0.0,0.0,0.0,0.0,0.0,0.0,0.0,0.0,0.0,0.0,0.0,0.0,0.0,0.0,0.0,0.0,0.0,0.0,0.0,0.0,0.0,0.0,0.0,0.0,0.0,0.0,0.0,0.0,0.0,0.0,0.0,0.0,0.0,0.0,0.0,0.0,0.0,0.0,0.0,0.0,0.0,0.0,0.0,0.0,0.0,0.0,0.0,0.0,0.0,0.0,0.0,0.0,0.0,0.0,0.0,0.0,0.0,0.0,0.0,0.0,0.0,0.0,0.0,0.0,0.0,0.0,0.0,0.0,0.0,0.0,0.0,0.0,0.0,0.0,0.0,0.0,0.0,0.0,0.0,0.0,0.0,0.0,0.0,0.0,0.0,0.0,0.0,0.0,0.0,0.0,0.0,0.0,0.0,0.0,0.0,-0.7847,-0.8044,-0.8872,0.0,0.0,0.0,0.0,0.0,0.0,0.0,0.0,0.0,0.0,0.0,0.0,0.0,0.0,0.0,0.0,0.0,0.0,0.0,0.0,0.0,0.0,0.0,0.0,0.0,0.0,0.0,0.0,0.0,0.0,0.0,0.0,0.0,0.0,0.0,0.0,0.0,0.0,0.0,0.0,0.0,0.0,0.0,0.0,0.0,0.0,0.0,0.0,0.0,0.0,0.0,0.0,0.0,0.0,0.0,0.0,0.0,0.0,0.0,0.0,0.0,0.0,0.0,0.0,0.0,0.0,0.0,0.0,0.0,0.0,0.0,0.0,0.0,0.0,0.0,0.0,0.0,0.0,0.0,0.0,0.0,0.0,0.0,0.0,0.0,0.0,0.0,0.0,0.0,0.0,0.0,0.0,0.0,0.0,0.0,0.0,0.0,0.0,0.0,0.0,0.0,0.0,0.0,0.0,0.0,0.0,0.0,0.0,0.0,0.0,-0.7803,-0.9058,-0.9622,0.0,-1.0564,0.0,0.0,0.0,0.0,0.0,0.0,0.0,0.0,0.0,0.0,0.0,0.0,0.0,0.0,0.0,0.0,0.0,0.0,0.0,0.0,0.0,0.0,0.0,0.0,0.0,0.0,0.0,0.0,0.0,0.0,0.0,0.0,0.0,0.0,0.0,0.0,0.0,0.0,0.0,0.0,0.0,0.0,0.0,0.0,0.0,0.0,0.0,0.0,0.0,0.0,0.0,0.0,0.0,0.0,0.0,0.0,0.0,0.0,0.0,0.0,0.0,0.0,0.0,0.0,0.0,0.0,0.0,0.0,0.0,0.0,0.0,0.0,0.0,0.0,0.0,0.0,0.0,0.0,0.0,0.0,0.0,0.0,0.0,0.0,0.0,0.0,0.0,0.0,0.0,0.0,0.0,0.0,0.0,0.0,0.0,0.0,0.0,0.0,0.0,0.0,0.0,0.0,0.0,0.0,0.0,0.0,0.0,0.0,0.0,0.0,-0.8958,-0.958,-0.991,-1.0025,0.0,0.0,0.0,0.0,0.0,0.0,0.0,0.0,0.0,0.0,0.0,0.0,0.0,0.0,0.0,0.0,0.0,0.0,0.0,0.0,0.0,0.0,0.0,0.0,0.0,0.0,0.0,0.0,0.0,0.0,0.0,0.0,0.0,0.0,0.0,0.0,0.0,0.0,0.0,0.0,0.0,0.0,0.0,0.0,0.0,0.0,0.0,0.0,0.0,0.0,0.0,0.0,0.0,0.0,0.0,0.0,0.0,0.0,0.0,0.0,0.0,0.0,0.0,0.0,0.0,0.0,0.0,0.0,0.0,0.0,0.0,0.0,0.0,0.0,0.0,0.0,0.0,0.0,0.0,0.0,0.0,0.0,0.0,0.0,0.0,0.0,0.0,0.0,0.0,0.0,0.0,0.0,0.0,0.0,0.0,0.0,0.0,0.0,0.0,0.0,0.0,0.0,0.0,0.0,0.0,0.0,0.0,0.0,0.0,0.0,-0.9107,-0.9851,-1.029,-1.0367,-0.9937,-0.8929,0.0,0.0,0.0,0.0,0.0,0.0,0.0,0.0,0.0,0.0,0.0,0.0,0.0,0.0,0.0,0.0,0.0,0.0,0.0,0.0,0.0,0.0,0.0,0.0,0.0,0.0,0.0,0.0,0.0,0.0,0.0,0.0,0.0,0.0,0.0,0.0,0.0,0.0,0.0,0.0,0.0,0.0,0.0,0.0,0.0,0.0,0.0,0.0,0.0,0.0,0.0,0.0,0.0,0.0,0.0,0.0,0.0,0.0,0.0,0.0,0.0,0.0,0.0,0.0,0.0,0.0,0.0,0.0,0.0,0.0,0.0,0.0,0.0,0.0,0.0,0.0,0.0,0.0,0.0,0.0,0.0,0.0,0.0,0.0,0.0,0.0,0.0,0.0,0.0,0.0,0.0,0.0,0.0,0.0,0.0,0.0,0.0,0.0,0.0,0.0,0.0,0.0,0.0,0.0,0.0,0.0,0.0,0.0,-1.1028,-1.0118,-1.0149,-1.133,-1.1449,-1.0227,0.0,0.0,0.0,0.0,0.0,0.0,0.0,0.0,0.0,0.0,0.0,0.0,0.0,0.0,0.0,0.0,0.0,0.0,0.0,0.0,0.0,0.0,0.0,0.0,0.0,0.0,0.0,0.0,0.0,0.0,0.0,0.0,0.0,0.0,0.0,0.0,0.0,0.0,0.0,0.0,0.0,0.0,0.0,0.0,0.0,0.0,0.0,0.0,0.0,0.0,0.0,0.0,0.0,0.0,0.0,0.0,0.0,0.0,0.0,0.0,0.0,0.0,0.0,0.0,0.0,0.0,0.0,0.0,0.0,0.0,0.0,0.0,0.0,0.0,0.0,0.0,0.0,0.0,0.0,0.0,0.0,0.0,0.0,0.0,0.0,0.0,0.0,0.0,0.0,0.0,0.0,0.0,0.0,0.0,0.0,0.0,0.0,0.0,0.0,0.0,0.0,0.0,0.0,0.0,0.0,0.0,0.0,0.0,0.0,-0.8078,-0.8607,-1.0385,-1.3427,-1.0516,-0.9018,0.0,0.0,0.0,0.0,0.0,0.0,0.0,0.0,0.0,0.0,0.0,0.0,0.0,0.0,0.0,0.0,0.0,0.0,0.0,0.0,0.0,0.0,0.0,0.0,0.0,0.0,0.0,0.0,0.0,0.0,0.0,0.0,0.0,0.0,0.0,0.0,0.0,0.0,0.0,0.0,0.0,0.0,0.0,0.0,0.0,0.0,0.0,0.0,0.0,0.0,0.0,0.0,0.0,0.0,0.0,0.0,0.0,0.0,0.0,0.0,0.0,0.0,0.0,0.0,0.0,0.0,0.0,0.0,0.0,0.0,0.0,0.0,0.0,0.0,0.0,0.0,0.0,0.0,0.0,0.0,0.0,0.0,0.0,0.0,0.0,0.0,0.0,0.0,0.0,0.0,0.0,0.0,0.0,0.0,0.0,0.0,0.0,0.0,0.0,0.0,0.0,0.0,0.0,0.0,0.0,0.0,0.0,0.0,0.0,-0.8193,0.0,-1.1542,-1.3849,-1.0632,-0.877,0.0,0.0,0.0,0.0,0.0,0.0,0.0,0.0,0.0,0.0,0.0,0.0,0.0,0.0,0.0,0.0,0.0,0.0,0.0,0.0,0.0,0.0,0.0,0.0,0.0,0.0,0.0,0.0,0.0,0.0,0.0,0.0,0.0,0.0,0.0,0.0,0.0,0.0,0.0,0.0,0.0,0.0,0.0,0.0,0.0,0.0,0.0,0.0,0.0,0.0,0.0,0.0,0.0,0.0,0.0,0.0,0.0,0.0,0.0,0.0,0.0,0.0,0.0,0.0,0.0,0.0,0.0,0.0,0.0,0.0,0.0,0.0,0.0,0.0,0.0,0.0,0.0,0.0,0.0,0.0,0.0,0.0,0.0,0.0,0.0,0.0,0.0,0.0,0.0,0.0,0.0,0.0,0.0,0.0,0.0,0.0,0.0,0.0,0.0,0.0,0.0,0.0,0.0,0.0,0.0,0.0,0.0,0.0,-0.7145,-1.2065,-1.3418,-1.3551,-1.2436,-1.2133,-0.9719,0.0,0.0,0.0,0.0,0.0,0.0,0.0,0.0,0.0,0.0,0.0,0.0,0.0,0.0,0.0,0.0,0.0,0.0,0.0,0.0,0.0,0.0,0.0,0.0,0.0,0.0,0.0,0.0,0.0,0.0,0.0,0.0,0.0,0.0,0.0,0.0,0.0,0.0,0.0,0.0,0.0,0.0,0.0,0.0,0.0,0.0,0.0,0.0,0.0,0.0,0.0,0.0,0.0,0.0,0.0,0.0,0.0,0.0,0.0,0.0,0.0,0.0,0.0,0.0,0.0,0.0,0.0,0.0,0.0,0.0,0.0,0.0,0.0,0.0,0.0,0.0,0.0,0.0,0.0,0.0,0.0,0.0,0.0,0.0,0.0,0.0,0.0,0.0,0.0,0.0,0.0,0.0,0.0,0.0,0.0,0.0,0.0,0.0,0.0,0.0,0.0,0.0,0.0,0.0,0.0,0.0,0.0,0.0,0.0,-0.927,-1.1576,-1.4059,-1.65,-1.3252,-1.1744,0.0,0.0,0.0,0.0,0.0,0.0,0.0,0.0,0.0,0.0,0.0,0.0,0.0,0.0,0.0,0.0,0.0,0.0,0.0,0.0,0.0,0.0,0.0,0.0,0.0,0.0,0.0,0.0,0.0,0.0,0.0,0.0,0.0,0.0,0.0,0.0,0.0,0.0,0.0,0.0,0.0,0.0,0.0,0.0,0.0,0.0,0.0,0.0,0.0,0.0,0.0,0.0,0.0,0.0,0.0,0.0,0.0,0.0,0.0,0.0,0.0,0.0,0.0,0.0,0.0,0.0,0.0,0.0,0.0,0.0,0.0,0.0,0.0,0.0,0.0,0.0,0.0,0.0,0.0,0.0,0.0,0.0,0.0,0.0,0.0,0.0,0.0,0.0,0.0,0.0,0.0,0.0,0.0,0.0,0.0,0.0,0.0,0.0,0.0,0.0,0.0,0.0,0.0,0.0,0.0,0.0,0.0,0.0,0.0,-1.1473,-1.4255,-1.6871,-1.9273,-1.5877,-1.4373,-1.4939,0.0,0.0,0.0,0.0,0.0,0.0,0.0,0.0,0.0,0.0,0.0,0.0,0.0,0.0,0.0,0.0,0.0,0.0,0.0,0.0,0.0,0.0,0.0,0.0,0.0,0.0,0.0,0.0,0.0,0.0,0.0,0.0,0.0,0.0,0.0,0.0,0.0,0.0,0.0,0.0,0.0,0.0,0.0,0.0,0.0,0.0,0.0,0.0,0.0,0.0,0.0,0.0,0.0,0.0,0.0,0.0,0.0,0.0,0.0,0.0,0.0,0.0,0.0,0.0,0.0,0.0,0.0,0.0,0.0,0.0,0.0,0.0,0.0,0.0,0.0,0.0,0.0,0.0,0.0,0.0,0.0,0.0,0.0,0.0,0.0,0.0,0.0,0.0,0.0,0.0,0.0,0.0,0.0,0.0,0.0,0.0,0.0,0.0,0.0,0.0,0.0,0.0,0.0,0.0,0.0,0.0,0.0,0.0,-1.7571,-2.0643,-2.1775,-2.0926,-1.988,-1.758,0.0,0.0,0.0,0.0,0.0,0.0,0.0,0.0,0.0,0.0,0.0,0.0,0.0,0.0,0.0,0.0,0.0,0.0,0.0,0.0,0.0,0.0,0.0,0.0,0.0,0.0,0.0,0.0,0.0,0.0,0.0,0.0,0.0,0.0,0.0,0.0,0.0,0.0,0.0,0.0,0.0,0.0,0.0,0.0,0.0,0.0,0.0,0.0,0.0,0.0,0.0,0.0,0.0,0.0,0.0,0.0,0.0,0.0,0.0,0.0,0.0,0.0,0.0,0.0,0.0,0.0,0.0,0.0,0.0,0.0,0.0,0.0,0.0,0.0,0.0,0.0,0.0,0.0,0.0,0.0,0.0,0.0,0.0,0.0,0.0,0.0,0.0,0.0,0.0,0.0,0.0,0.0,0.0,0.0,0.0,0.0,0.0,0.0,0.0,0.0,0.0,0.0,0.0,0.0,0.0,0.0,0.0,0.0,0.0,-1.9398,-2.3727,-2.6682,-2.8018,-2.4213,-2.1393,0.0,0.0,0.0,0.0,0.0,0.0,0.0,0.0,0.0,0.0,0.0,0.0,0.0,0.0,0.0,0.0,0.0,0.0,0.0,0.0,0.0,0.0,0.0,0.0,0.0,0.0,0.0,0.0,0.0,0.0,0.0,0.0,0.0,0.0,0.0,0.0,0.0,0.0,0.0,0.0,0.0,0.0,0.0,0.0,0.0,0.0,0.0,0.0,0.0,0.0,0.0,0.0,0.0,0.0,0.0,0.0,0.0,0.0,0.0,0.0,0.0,0.0,0.0,0.0,0.0,0.0,0.0,0.0,0.0,0.0,0.0,0.0,0.0,0.0,0.0,0.0,0.0,0.0,0.0,0.0,0.0,0.0,0.0,0.0,0.0,0.0,0.0,0.0,0.0,0.0,0.0,0.0,0.0,0.0,0.0,0.0,0.0,0.0,0.0,0.0,0.0,0.0,0.0,0.0,0.0,0.0,0.0,0.0,-1.6591,-2.1764,-2.6533,-3.0018,-3.2126,-2.8192,-2.4535,0.0,0.0,0.0,0.0,0.0,0.0,0.0,0.0,0.0,0.0,0.0,0.0,0.0,0.0,0.0,0.0,0.0,0.0,0.0,0.0,0.0,0.0,0.0,0.0,0.0,0.0,0.0,0.0,0.0,0.0,0.0,0.0,0.0,0.0,0.0,0.0,0.0,0.0,0.0,0.0,0.0,0.0,0.0,0.0,0.0,0.0,0.0,0.0,0.0,0.0,0.0,0.0,0.0,0.0,0.0,0.0,0.0,0.0,0.0,0.0,0.0,0.0,0.0,0.0,0.0,0.0,0.0,0.0,0.0,0.0,0.0,0.0,0.0,0.0,0.0,0.0,0.0,0.0,0.0,0.0,0.0,0.0,0.0,0.0,0.0,0.0,0.0,0.0,0.0,0.0,0.0,0.0,0.0,0.0,0.0,0.0,0.0,0.0,0.0,0.0,0.0,0.0,0.0,0.0,0.0,0.0,0.0,0.0,-1.9045,-2.4247,-2.8761,-3.1895,-3.3459,-3.1238,-2.7043,0.0,0.0,0.0,0.0,0.0,0.0,0.0,0.0,0.0,0.0,0.0,0.0,0.0,0.0,0.0,0.0,0.0,0.0,0.0,0.0,0.0,0.0,0.0,0.0,0.0,0.0,0.0,0.0,0.0,0.0,0.0,0.0,0.0,0.0,0.0,0.0,0.0,0.0,0.0,0.0,0.0,0.0,0.0,0.0,0.0,0.0,0.0,0.0,0.0,0.0,0.0,0.0,0.0,0.0,0.0,0.0,0.0,0.0,0.0,0.0,0.0,0.0,0.0,0.0,0.0,0.0,0.0,0.0,0.0,0.0,0.0,0.0,0.0,0.0,0.0,0.0,0.0,0.0,0.0,0.0,0.0,0.0,0.0,0.0,0.0,0.0,0.0,0.0,0.0,0.0,0.0,0.0,0.0,0.0,0.0,0.0,0.0,0.0,0.0,0.0,0.0,0.0,0.0,0.0,0.0,0.0,0.0,0.0,-2.0065,-2.5766,-2.8799,-3.103,-3.2485,-3.0678,-2.7339,0.0,0.0,0.0,0.0,0.0,0.0,0.0,0.0,0.0,0.0,0.0,0.0,0.0,0.0,0.0,0.0,0.0,0.0,0.0,0.0,0.0,0.0,0.0,0.0,0.0,0.0,0.0,0.0,0.0,0.0,0.0,0.0,0.0,0.0,0.0,0.0,0.0,0.0,0.0,0.0,0.0,0.0,0.0,0.0,0.0,0.0,0.0,0.0,-1.8488,0.0,0.0,0.0,0.0,0.0,0.0,0.0,0.0,0.0,0.0,0.0,0.0,0.0,0.0,0.0,0.0,0.0,0.0,0.0,0.0,0.0,0.0,0.0,0.0,0.0,0.0,0.0,0.0,0.0,0.0,0.0,0.0,0.0,0.0,0.0,0.0,0.0,0.0,0.0,0.0,0.0,0.0,0.0,0.0,0.0,0.0,0.0,0.0,0.0,0.0,0.0,0.0,0.0,0.0,0.0,0.0,0.0,0.0,0.0,-2.0917,-2.5721,-2.8649,-3.0433,-3.0896,-2.9113,-2.6034,0.0,0.0,0.0,0.0,0.0,0.0,0.0,0.0,0.0,0.0,0.0,0.0,0.0,0.0,0.0,0.0,0.0,0.0,0.0,0.0,0.0,0.0,0.0,0.0,0.0,0.0,0.0,0.0,0.0,0.0,0.0,0.0,0.0,0.0,0.0,0.0,0.0,0.0,0.0,0.0,0.0,0.0,0.0,0.0,0.0,0.0,0.0,0.0,0.0,0.0,0.0,0.0,0.0,0.0,0.0,0.0,0.0,0.0,0.0,0.0,0.0,0.0,0.0,0.0,0.0,0.0,0.0,0.0,0.0,0.0,0.0,0.0,0.0,0.0,0.0,0.0,0.0,0.0,0.0,0.0,0.0,0.0,0.0,0.0,0.0,0.0,0.0,0.0,0.0,0.0,0.0,0.0,0.0,0.0,0.0,0.0,0.0,0.0,0.0,0.0,0.0,0.0,0.0,0.0,0.0,0.0,0.0,-1.688,-2.1118,-2.5111,-2.821,-2.9583,-2.9049,-2.6989,-2.3761,-1.9337,0.0,0.0,0.0,0.0,0.0,0.0,0.0,0.0,0.0,0.0,0.0,0.0,0.0,0.0,0.0,0.0,0.0,0.0,0.0,0.0,0.0,0.0,0.0,0.0,0.0,0.0,0.0,0.0,0.0,0.0,0.0,0.0,0.0,0.0,0.0,0.0,0.0,0.0,-1.3549,-1.6088,0.0,0.0,0.0,0.0,0.0,0.0,0.0,0.0,-2.2488,0.0,0.0,0.0,0.0,0.0,0.0,0.0,0.0,0.0,0.0,0.0,0.0,0.0,0.0,0.0,0.0,0.0,0.0,0.0,0.0,0.0,0.0,0.0,0.0,0.0,0.0,0.0,0.0,0.0,0.0,0.0,0.0,0.0,0.0,0.0,0.0,0.0,0.0,0.0,0.0,0.0,0.0,0.0,0.0,0.0,0.0,0.0,0.0,0.0,0.0,0.0,0.0,0.0,0.0,0.0,0.0,-1.2837,-1.5339,-1.9399,-2.5042,-2.6984,-2.7549,-2.6728,-2.4309,-2.0603,-1.569,0.0,0.0,0.0,0.0,0.0,0.0,0.0,0.0,0.0,0.0,0.0,0.0,0.0,0.0,0.0,0.0,0.0,0.0,0.0,0.0,0.0,0.0,0.0,0.0,0.0,0.0,0.0,0.0,0.0,0.0,0.0,0.0,0.0,0.0,0.0,0.0,0.0,0.0,0.0,-1.8073,-2.0068,0.0,0.0,0.0,0.0,0.0,0.0,0.0,0.0,-2.398,0.0,0.0,0.0,0.0,0.0,0.0,0.0,0.0,0.0,0.0,0.0,0.0,0.0,0.0,0.0,0.0,0.0,0.0,0.0,0.0,0.0,0.0,0.0,0.0,0.0,0.0,0.0,0.0,0.0,0.0,0.0,0.0,0.0,0.0,0.0,0.0,0.0,0.0,0.0,0.0,0.0,0.0,0.0,0.0,0.0,0.0,0.0,0.0,0.0,0.0,0.0,0.0,0.0,0.0,0.0,-1.2024,-1.5876,-2.0259,-2.5197,-2.6754,-2.6591,-2.4614,-2.0615,-1.6454,0.0,0.0,0.0,0.0,0.0,0.0,0.0,0.0,0.0,0.0,0.0,0.0,0.0,0.0,0.0,0.0,0.0,0.0,0.0,0.0,0.0,0.0,0.0,0.0,0.0,0.0,0.0,0.0,0.0,0.0,0.0,0.0,0.0,0.0,0.0,0.0,0.0,0.0,0.0,0.0,-1.9093,-2.1716,-2.2583,0.0,0.0,0.0,0.0,0.0,0.0,-2.8463,-2.709,0.0,0.0,0.0,0.0,0.0,0.0,0.0,0.0,0.0,0.0,0.0,0.0,0.0,0.0,0.0,0.0,0.0,0.0,0.0,0.0,0.0,0.0,0.0,0.0,0.0,0.0,0.0,0.0,0.0,0.0,0.0,0.0,0.0,0.0,0.0,0.0,0.0,0.0,0.0,0.0,0.0,0.0,0.0,0.0,0.0,0.0,0.0,0.0,0.0,0.0,0.0,0.0,0.0,0.0,0.0,-1.2327,-1.7124,-2.1548,-2.5568,-2.6834,-2.601,-2.3068,-1.8372,-1.3813,0.0,0.0,0.0,0.0,0.0,0.0,0.0,0.0,0.0,0.0,0.0,0.0,0.0,0.0,0.0,0.0,0.0,0.0,0.0,0.0,0.0,0.0,0.0,0.0,0.0,0.0,0.0,0.0,0.0,0.0,0.0,0.0,0.0,0.0,0.0,0.0,0.0,0.0,0.0,0.0,0.0,-2.3651,-2.5436,-2.7041,0.0,0.0,0.0,0.0,-3.3012,-3.2092,0.0,0.0,0.0,0.0,0.0,0.0,0.0,0.0,0.0,0.0,0.0,0.0,0.0,0.0,0.0,0.0,0.0,0.0,0.0,0.0,0.0,0.0,0.0,0.0,0.0,0.0,0.0,0.0,0.0,0.0,0.0,0.0,0.0,0.0,0.0,0.0,0.0,0.0,0.0,0.0,0.0,0.0,0.0,0.0,0.0,0.0,0.0,0.0,0.0,0.0,0.0,0.0,0.0,0.0,0.0,0.0,-1.5466,-1.8402,-2.1928,-2.6306,-2.6955,-2.5622,-2.2506,-2.0259,-1.5457,0.0,0.0,0.0,0.0,0.0,0.0,0.0,0.0,0.0,0.0,0.0,0.0,0.0,0.0,0.0,0.0,0.0,0.0,0.0,0.0,0.0,0.0,0.0,0.0,0.0,0.0,0.0,0.0,0.0,0.0,0.0,0.0,0.0,0.0,0.0,0.0,0.0,0.0,0.0,0.0,0.0,-2.6667,-2.6885,-3.0089,-3.2816,0.0,0.0,-3.4829,-3.6752,-3.5692,0.0,0.0,0.0,0.0,0.0,0.0,0.0,0.0,0.0,0.0,0.0,0.0,0.0,0.0,0.0,0.0,0.0,0.0,0.0,0.0,0.0,0.0,0.0,0.0,0.0,0.0,0.0,0.0,0.0,0.0,0.0,0.0,0.0,0.0,0.0,0.0,0.0,0.0,0.0,0.0,0.0,0.0,0.0,0.0,0.0,0.0,0.0,0.0,0.0,0.0,0.0,0.0,0.0,0.0,0.0,-0.6151,-1.4922,-1.9882,-2.4469,-2.8774,-2.9276,-2.7298,-2.2869,-1.8406,-1.2938,0.0,0.0,0.0,0.0,0.0,0.0,0.0,0.0,0.0,0.0,0.0,0.0,0.0,0.0,0.0,0.0,0.0,0.0,0.0,0.0,0.0,0.0,0.0,0.0,0.0,0.0,0.0,0.0,0.0,0.0,0.0,0.0,0.0,0.0,0.0,0.0,0.0,0.0,0.0,0.0,0.0,0.0,-3.2907,-3.5873,0.0,0.0,0.0,-3.8207,-3.8656,0.0,0.0,0.0,0.0,0.0,0.0,0.0,0.0,0.0,0.0,0.0,0.0,0.0,0.0,0.0,0.0,0.0,0.0,0.0,0.0,0.0,0.0,0.0,0.0,0.0,0.0,0.0,0.0,0.0,0.0,0.0,0.0,0.0,0.0,0.0,0.0,0.0,0.0,0.0,0.0,0.0,0.0,0.0,0.0,0.0,0.0,0.0,0.0,0.0,0.0,0.0,0.0,0.0,0.0,0.0,0.0,0.0,-1.533,-2.2702,-2.8153,-3.1468,-3.1654,-2.9144,-2.3815,-1.7604,0.0,0.0,0.0,0.0,0.0,0.0,0.0,0.0,0.0,0.0,0.0,0.0,0.0,0.0,0.0,0.0,0.0,0.0,0.0,0.0,0.0,0.0,0.0,0.0,0.0,0.0,0.0,-0.1884,0.0,0.0,0.0,0.0,0.0,0.0,0.0,0.0,0.0,0.0,0.0,0.0,0.0,0.0,-3.337,-3.8079,-4.0844,-4.285,0.0,0.0,-4.1207,-4.08,-3.8759,-3.5715,0.0,0.0,0.0,0.0,0.0,0.0,0.0,0.0,0.0,0.0,0.0,0.0,0.0,0.0,0.0,0.0,0.0,0.0,0.0,0.0,0.0,0.0,0.0,0.0,0.0,0.0,0.0,0.0,0.0,0.0,0.0,0.0,0.0,0.0,0.0,0.0,0.0,0.0,0.0,0.0,0.0,0.0,0.0,0.0,0.0,0.0,0.0,0.0,0.0,0.0,0.0,0.0,0.0,0.0,-1.0003,-1.8896,-2.783,-3.2879,-3.4088,-3.336,-3.0525,-2.5447,-1.9946,-1.3948,0.0,0.0,0.0,0.0,0.0,0.0,0.0,0.0,0.0,0.0,0.0,0.0,0.0,0.0,0.0,0.0,0.0,0.0,0.0,0.0,0.0,0.0,0.0,0.0,0.0,0.0,0.0,0.0,0.0,0.0,0.0,0.0,0.0,0.0,0.0,0.0,0.0,0.0,0.0,0.0,0.0,-3.6227,-3.9905,-4.3482,-4.6103,0.0,-4.505,-4.3577,-4.4072,-4.1451,-3.7943,-3.3756,0.0,0.0,0.0,0.0,0.0,0.0,0.0,0.0,0.0,0.0,0.0,0.0,0.0,0.0,0.0,0.0,0.0,0.0,0.0,0.0,0.0,0.0,0.0,0.0,0.0,0.0,0.0,0.0,0.0,0.0,0.0,0.0,0.0,0.0,0.0,0.0,0.0,0.0,0.0,0.0,0.0,0.0,0.0,0.0,0.0,0.0,0.0,0.0,0.0,0.0,0.0,0.0,0.0,-1.1534,-1.9106,-2.714,-3.2857,-3.6086,-3.4907,-3.2181,-2.8045,-2.2567,-1.6455,0.0,0.0,0.0,0.0,0.0,0.0,0.0,0.0,0.0,0.0,0.0,0.0,0.0,0.0,0.0,0.0,0.0,0.0,0.0,0.0,0.0,0.0,0.0,0.0,0.0,0.0,0.0,0.0,-0.7396,-0.905,-0.846,0.0,0.0,0.0,0.0,0.0,0.0,0.0,0.0,0.0,0.0,-3.9596,-4.3175,-4.598,0.0,0.0,-4.6123,-4.4475,-4.4442,-4.071,-3.711,-3.5115,-3.2476,0.0,0.0,0.0,0.0,0.0,0.0,0.0,0.0,0.0,0.0,0.0,0.0,0.0,0.0,0.0,0.0,0.0,0.0,0.0,0.0,0.0,0.0,0.0,0.0,0.0,0.0,0.0,0.0,0.0,0.0,0.0,0.0,0.0,0.0,0.0,0.0,0.0,0.0,0.0,0.0,0.0,0.0,0.0,0.0,0.0,0.0,0.0,0.0,0.0,0.0,0.0,0.0,-1.4168,-2.228,-2.7875,-3.3023,-3.7674,-3.567,-3.2997,-2.9646,-2.4433,-1.8676,0.0,0.0,0.0,0.0,0.0,0.0,0.0,0.0,0.0,0.0,0.0,0.0,0.0,0.0,0.0,0.0,0.0,0.0,0.0,0.0,0.0,0.0,0.0,0.0,0.0,0.0,0.0,0.0,-0.8229,-0.9571,-0.9947,0.0,0.0,0.0,0.0,0.0,0.0,0.0,0.0,0.0,0.0,-4.2481,-4.5542,-4.7563,-4.8529,-4.8092,-4.6299,-4.4733,-4.4031,-4.0352,-3.7142,-3.5817,0.0,0.0,0.0,0.0,0.0,0.0,0.0,0.0,0.0,0.0,0.0,0.0,0.0,0.0,0.0,0.0,0.0,0.0,0.0,0.0,0.0,0.0,0.0,0.0,0.0,0.0,0.0,-0.1921,0.0,0.0,-0.4942,0.0,0.0,0.0,0.0,0.0,0.0,0.0,0.0,0.0,0.0,0.0,0.0,0.0,0.0,0.0,0.0,0.0,0.0,0.0,0.0,0.0,0.0,-1.816,-2.9476,-3.114,-3.4098,-3.8119,-3.5571,-3.2696,-2.9865,-2.5243,-2.0404,-1.5479,0.0,0.0,0.0,0.0,0.0,0.0,0.0,0.0,0.0,0.0,0.0,0.0,0.0,0.0,0.0,0.0,0.0,0.0,0.0,0.0,0.0,0.0,0.0,0.0,0.0,0.0,-0.6961,-0.802,-0.905,0.0,0.0,0.0,0.0,0.0,0.0,0.0,0.0,0.0,-3.4809,-4.0425,-4.4684,-4.6529,-4.7884,-4.8061,-4.6513,-4.5489,-4.4426,-4.3104,-4.103,-3.8682,0.0,0.0,0.0,0.0,0.0,0.0,0.0,0.0,0.0,0.0,0.0,0.0,0.0,0.0,0.0,0.0,0.0,0.0,0.0,0.0,0.0,0.0,0.0,0.0,0.0,0.0,0.0,-0.8175,-0.8665,0.0,0.0,0.0,0.0,0.0,0.0,0.0,0.0,0.0,0.0,0.0,-3.1623,-3.2627,0.0,0.0,0.0,0.0,0.0,0.0,0.0,0.0,0.0,0.0,0.0,0.0,-1.861,-2.6015,-2.9686,-3.3311,-3.6987,-3.368,-3.0839,-2.8808,-2.4854,-2.0406,-1.5525,0.0,0.0,0.0,0.0,0.0,0.0,0.0,0.0,0.0,0.0,0.0,0.0,0.0,0.0,0.0,0.0,0.0,0.0,0.0,0.0,0.0,0.0,0.0,0.0,0.0,-0.8718,0.0,0.0,0.0,0.0,0.0,0.0,0.0,0.0,0.0,0.0,0.0,-3.2609,-3.7659,-4.2207,-4.4981,-4.4861,-4.6034,-4.6524,0.0,0.0,0.0,0.0,0.0,0.0,0.0,0.0,0.0,0.0,0.0,0.0,0.0,0.0,-3.8422,-3.6903,-3.5748,-3.5019,-3.4999,0.0,0.0,0.0,0.0,0.0,0.0,0.0,0.0,0.0,0.0,0.0,0.0,0.0,0.0,-1.6074,-1.5578,-1.6379,0.0,0.0,0.0,0.0,0.0,0.0,0.0,0.0,-3.1969,-3.4605,-3.5324,-3.5687,-3.5229,0.0,-3.1792,-2.7691,0.0,0.0,0.0,0.0,0.0,0.0,0.0,0.0,-2.015,-2.4897,-2.9171,-3.2537,-3.4734,-3.1418,-2.8725,-2.6924,-2.2804,-1.8444,-1.4041,-0.9588,-0.6768,0.0,0.0,0.0,0.0,0.0,0.0,0.0,0.0,0.0,0.0,0.0,0.0,0.0,0.0,0.0,0.0,0.0,0.0,0.0,0.0,0.0,0.0,0.0,-0.8561,0.0,0.0,0.0,0.0,0.0,0.0,0.0,0.0,0.0,-2.6398,-3.1132,-3.6032,-4.0438,-4.3428,-4.4904,-4.4029,0.0,0.0,0.0,0.0,0.0,0.0,0.0,-3.8844,-3.8899,-3.8361,-3.8391,-3.984,-4.11,-4.2142,-4.2685,0.0,0.0,-3.8466,-3.7375,-3.6608,-3.6013,-3.6073,-3.6253,-3.6502,-3.6825,-3.7034,0.0,0.0,0.0,0.0,0.0,0.0,0.0,0.0,-2.2451,-2.4113,0.0,-2.2065,0.0,0.0,0.0,0.0,-2.08,-2.4878,0.0,0.0,-3.6482,-3.8864,-3.8965,-3.665,-3.6004,-3.6864,-3.5202,-3.2748,-2.9442,-2.3558,0.0,0.0,0.0,0.0,0.0,0.0,-2.2821,-2.5964,-2.9729,-3.1811,-3.1911,-2.8934,-2.6354,-2.4292,-1.9312,-1.4897,-1.1415,-0.9407,-0.6932,-0.3691,-0.327,0.0,0.0,0.0,0.0,0.0,0.0,0.0,0.0,0.0,0.0,0.0,0.0,0.0,0.0,0.0,0.0,0.0,0.0,0.0,0.0,-0.6955,0.0,0.0,0.0,0.0,0.0,0.0,0.0,0.0,0.0,0.0,-3.0763,-3.5363,-3.9939,-4.3058,0.0,0.0,0.0,0.0,-4.3061,-4.2373,-4.2295,-4.1439,-3.9022,-3.9201,-3.9385,-3.854,0.0,0.0,-4.0808,-4.2354,-4.2859,-4.1277,-4.1599,-4.1997,-4.0921,-3.9176,-3.8141,-3.8373,-3.7178,-3.645,-3.6535,-3.6274,-3.6347,-1.8003,0.0,0.0,0.0,0.0,-1.6572,-2.0244,-2.5807,-3.1453,-3.1489,-2.7519,-2.8186,0.0,0.0,0.0,0.0,0.0,0.0,-3.0959,-3.3973,-3.5937,-3.7278,-3.8127,-3.7395,-3.6423,-3.5246,-3.4982,-3.3047,-2.9678,-2.7789,-2.4164,-1.8979,0.0,0.0,0.0,0.0,-2.3962,-2.6844,-2.8679,-2.9685,-2.9893,-2.6506,-2.3059,-1.9587,-1.6608,-1.3782,-1.1161,-0.8986,-0.6641,-0.4148,-0.3,0.0,0.0,0.0,0.0,0.0,0.0,0.0,0.0,0.0,0.0,0.0,0.0,0.0,0.0,0.0,0.0,0.0,0.0,0.0,-0.7184,-0.8261,-1.0031,0.0,0.0,0.0,0.0,0.0,0.0,0.0,0.0,0.0,-3.7036,-3.8684,-4.0816,0.0,0.0,-4.4435,-4.2701,-4.285,-4.2707,-4.147,-4.0877,0.0,-3.9559,-3.8599,-3.8059,-3.8351,-3.8656,-3.9156,-4.0018,-4.009,-4.0084,-4.0073,-3.9836,-3.9146,-3.7765,-3.7948,-3.7572,-3.5921,-3.5098,-3.4526,-3.358,-3.3604,-3.3892,-2.3853,-1.9633,-1.7611,-1.8782,-2.2043,-2.3151,-2.6535,-3.1648,-3.5317,-3.5403,-3.3076,-3.2824,-3.1105,-2.8441,-2.783,0.0,0.0,0.0,-3.2929,-3.4889,-3.5374,-3.6042,-3.6803,-3.6255,-3.5247,-3.3926,-3.3691,-3.2208,-2.9667,-2.9394,-2.6745,-2.2048,0.0,-2.1753,-2.0246,-2.3122,-2.5322,-2.6781,-2.7521,-2.7576,-2.6835,-2.3199,-1.9722,-1.658,-1.4199,-1.1851,-0.9553,-0.7149,-0.4791,-0.253,-0.1423,-0.0067,0.0,0.0,0.0,0.0,0.0,0.0,0.0,0.0,0.0,0.0,0.0,-0.7539,-0.8938,0.0,0.0,0.0,-0.5642,-0.7868,-1.005,-1.1566,0.0,0.0,0.0,0.0,0.0,0.0,0.0,-3.1843,-3.5566,-3.8611,-4.0203,-4.0811,-4.1862,-4.39,-4.4173,-4.3521,-4.1834,0.0,-4.1898,-4.051,-3.9994,-3.9575,-3.8998,-3.7648,-3.6812,-3.7272,-3.7735,-3.8277,-3.9048,-3.8842,-3.8622,-3.8658,-3.8311,-3.7294,-3.5251,-3.5658,-3.5899,-3.4283,-3.3576,-3.2817,-3.1488,-3.1525,-3.1774,-2.6478,-2.8662,-2.5455,-2.5179,-2.707,-2.942,-3.1999,-3.4584,-3.5616,-3.6884,-3.8109,-3.613,-3.5301,-3.5298,-3.3825,0.0,-3.2364,-3.356,-3.4362,-3.4924,-3.4801,-3.4899,-3.5226,-3.3811,-3.2978,-3.2618,-3.1617,-3.0523,-2.935,-2.8767,-2.6899,-2.3985,-2.4203,-2.38,-2.2911,-2.5338,-2.6394,-2.5743,-2.5871,-2.5123,-2.3259,-1.9551,-1.6797,-1.4988,-1.2204,-0.9539,-0.7012,-0.4408,-0.1892,0.0443,0.1102,0.2063,0.3419,0.0,0.0,0.0,0.0,0.0,0.0,0.0,0.0,0.0,0.0,0.0,0.0,0.0,0.0,0.0,-0.9462,0.0,-1.3325,-1.5886,0.0,0.0,0.0,-2.4686,-2.7403,-3.0697,-3.3641,-3.5875,0.0,0.0,-4.0852,-4.173,-4.2643,-4.3555,-4.3082,-4.2305,-4.1359,-4.1312,-4.0861,-3.9592,-3.9396,-3.8988,-3.7851,-3.6409,-3.5414,-3.5562,-3.6307,-3.7021,-3.7669,-3.7887,-3.7669,-3.6962,-3.676,-3.5911,-3.3498,-3.2926,-3.283,-3.3132,-3.2287,-3.1145,-3.0049,-2.978,-2.9811,-2.8469,-3.0166,-3.0953,-3.1483,-3.1988,-3.3987,-3.5501,-3.6593,-3.7538,-3.7782,-3.7302,-3.7126,-3.6699,-3.6007,-3.5332,-3.4755,-3.4298,-3.358,-3.3436,-3.3647,-3.2548,-3.2311,-3.271,-3.1476,-3.0438,-2.9564,-2.9052,-2.7773,-2.5905,-2.5681,-2.4431,-2.2308,-2.2222,-2.2138,-2.1915,-2.2972,-2.345,-2.3335,-2.195,-2.0926,-2.0278,-1.8499,-1.637,-1.3947,-1.1657,-0.8623,-0.4954,-0.2416,0.0128,0.2762,0.4153,0.5128,0.5867,0.5405,0.0,0.0,0.0,0.0,0.0,0.0,0.0,0.0,0.0,-1.4665,-1.1217,0.0,-1.1873,0.0,-1.2845,-1.4434,-1.565,-1.7557,0.0,0.0,-2.5786,-2.8061,-3.2345,-3.4437,-3.5996,-3.7047,-3.9182,-4.0371,-3.9881,-4.0247,-4.0547,-4.0761,-4.2021,-4.2388,-4.0835,-4.1156,-4.0962,-3.9253,-3.8054,-3.7441,-3.7161,-3.4942,-3.3219,-3.3585,-3.3954,-3.4231,-3.449,-3.4528,-3.4456,-3.4147,-3.3615,-3.2686,-3.1312,-3.0451,-2.9625,-2.9084,-2.9121,-2.8968,-2.7554,-2.7167,-2.7134,-2.8785,-3.0854,-3.3077,-3.4023,-3.4263,-3.6496,-3.7472,-3.7667,-3.8696,-3.8662,-3.7769,-3.7696,-3.7118,-3.6238,-3.6115,-3.5647,-3.4784,-3.3541,-3.2917,-3.2774,-3.105,-2.9971,-2.9516,-2.904,-2.819,-2.7082,-2.6881,-2.597,-2.4441,-2.3948,-2.2742,-2.0843,-2.021,-1.9621,-1.9218,-2.0637,-2.1275,-2.1101,-1.9571,-1.8517,-1.7852,-1.6978,-1.5496,-1.3292,-1.1298,-0.8697,-0.5431,-0.2926,-0.0208,0.2763,0.4193,0.4986,0.5158,0.4522,0.3529,0.0,0.0,0.0,0.0,0.0,0.0,0.0,0.0,0.0,0.0,0.0,-1.4593,-1.4124,-1.6164,-1.8016,-1.9239,-2.1273,-2.3795,-2.6867,-2.8147,-3.0114,-3.3277,-3.4946,-3.6057,-3.6877,-3.8089,-3.8718,-3.8178,-3.8454,-3.8622,-3.8335,-3.9612,-4.0387,-3.9784,-4.0127,-3.9825,-3.7942,-3.6518,-3.5411,-3.4979,-3.284,-3.1391,-3.1719,-3.2143,-3.2619,-3.3024,-3.3128,-3.2904,-3.2141,-3.1592,-3.0656,-2.8948,-2.7682,-2.6626,-2.5721,-2.5319,-2.5338,-2.5461,-2.4877,-2.436,-2.8452,-3.1184,-3.3298,-3.4393,-3.4925,-3.7411,-3.8281,-3.8051,-3.9076,-3.9193,-3.8583,-3.7838,-3.692,-3.6063,-3.6198,-3.5507,-3.4097,-3.2892,-3.2124,-3.1706,-2.9484,-2.7624,-2.6258,-2.6468,-2.5947,-2.4803,-2.4729,-2.431,-2.3448,-2.2659,-2.1303,-1.9501,-1.8138,-1.6883,-1.5864,-1.7979,-1.8983,-1.8669,-1.789,-1.6947,-1.5805,-1.5368,-1.4336,-1.2679,-1.0942,-0.883,-0.6583,-0.4247,-0.1523,0.1533,0.269,0.3151,0.2979,0.2452,0.0797,0.0,-0.3353,0.0,0.0,0.0,0.0,0.0,0.0,0.0,0.0,-1.8403,-1.7159,-1.6857,-1.9434,-2.1609,-2.2787,-2.501,-2.6898,-2.8025,-2.9431,-3.0721,-3.1924,-3.3486,-3.4641,-3.5396,-3.5867,-3.6062,-3.5675,-3.6208,-3.6443,-3.6186,-3.6693,-3.728,-3.7809,-3.8309,-3.8053,-3.6205,-3.4657,-3.2958,-3.1533,-3.0281,-2.9546,-2.9827,-3.0374,-3.129,-3.1878,-3.205,-3.1707,-3.0428,-2.9829,-2.8855,-2.6473,-2.519,-2.4085,-2.303,-2.2061,-2.1948,-2.3248,-2.2731,-2.183,-2.9259,-3.175,-3.3309,-3.4142,-3.4627,-3.6531,-3.7551,-3.7841,-3.8355,-3.8199,-3.7637,-3.7087,-3.6461,-3.5715,-3.485,-3.3421,-3.1555,-2.999,-2.9088,-2.8655,-2.6159,-2.4686,-2.4143,-2.3539,-2.2767,-2.1903,-2.18,-2.118,-2.0147,-2.0362,-1.9377,-1.7251,-1.5763,-1.454,-1.3562,0.0,0.0,0.0,-1.5326,-1.5056,-1.448,-1.3947,-1.291,-1.1392,-0.9641,0.0,-0.4988,-0.3353,-0.1501,0.0624,0.1162,0.0,0.0,0.0,0.0,0.0,0.0,0.0,0.0,0.0,0.0,0.0,-1.645,-1.7399,-1.8856,-2.1363,-2.1863,-1.9523,-2.2214,-2.3851,-2.2924,-2.4228,-2.5696,-2.6888,-2.7823,-2.8843,-2.9863,-3.1234,-3.2038,-3.1686,-3.2706,-3.3096,-3.2319,-3.2678,-3.3113,-3.3331,-3.4053,-3.4478,-3.4422,-3.5994,-3.6452,-3.4762,-3.214,-2.9891,-2.8758,-2.7606,-2.7208,-2.7516,-2.785,-2.8213,-2.8545,-2.8605,-2.858,-2.8089,-2.738,-2.6475,-2.503,-2.4174,-2.3093,-2.147,-2.0776,-2.0635,-2.1007,-2.0308,-1.9693,-2.9558,-3.1916,-3.3419,-3.4228,0.0,-3.5598,-3.6399,-3.7092,-3.7467,-3.7259,-3.6466,-3.5815,-3.5127,-3.4395,-3.299,-3.1226,-2.9151,-2.7085,-2.641,-2.6674,-2.3043,-2.0727,-1.9812,-2.0034,-1.9883,-1.9262,-1.8997,-1.8448,-1.7648,-1.787,-1.6942,-1.4865,-1.4027,-1.3191,-1.2297,-1.1627,-1.1977,-1.3232,-1.2825,-1.2485,-1.2298,-1.2175,-1.1563,-1.0245,-0.97,0.0,0.0,0.0,0.0,0.0,0.0,0.0,0.0,-0.2249,0.0,-0.6233,-0.7256,-0.8821,-1.1191,-1.49,-1.6922,-1.6898,-1.8057,-1.9231,-2.0099,-2.1621,-2.2416,-2.2312,-2.3093,-2.3001,-2.2043,-2.2728,-2.3548,-2.4033,-2.4676,-2.5475,-2.6288,-2.7382,-2.8053,-2.8145,-2.8704,-2.9209,-2.9588,-2.9351,-2.9631,-3.0161,-3.082,-3.1334,-3.1862,-3.3763,-3.453,-3.236,-3.0258,-2.8197,-2.6781,-2.6447,-2.6095,-2.6283,-2.6655,-2.6983,-2.705,-2.7118,-2.704,-2.6629,-2.6043,-2.5277,-2.4043,-2.28,-2.1439,-2.0285,-1.9209,-1.8447,-1.8246,-1.8198,-1.835,-2.9492,-3.1579,-3.3115,-3.3998,-3.4381,-3.4598,-3.5164,-3.6002,-3.6536,0.0,0.0,-3.4297,-3.3387,-3.2514,-3.0672,-2.8634,-2.644,-2.4004,-2.3467,-2.4243,-1.9831,-1.6798,-1.5171,-1.6503,-1.6973,-1.6523,-1.6267,-1.586,-1.5269,-1.5235,-1.4364,-1.285,-1.2338,-1.1831,-1.1251,-1.0318,-1.0229,-1.1117,-1.0474,-1.0108,-1.0057,-1.0269,-0.9958,-0.9049,-0.9436,-0.9104,-0.7944,-0.7856,-0.6742,-0.4568,-0.3739,-0.3985,-0.5445,-0.4908,-0.6105,-0.963,-1.0702,-1.1639,-1.2751,-1.3832,-1.5059,-1.6196,-1.7663,-1.9406,-2.1403,-2.0796,-2.1327,-2.3966,-2.2242,-2.0815,-2.0154,-2.0532,-2.0731,-2.0562,-2.1076,-2.1664,-2.2371,-2.3028,-2.3696,-2.4294,-2.4508,-2.5114,-2.6343,-2.6083,-2.599,-2.6892,-2.7642,-2.8352,-2.9659,-3.1657,-3.2174,-2.9799,-2.8429,-2.7175,-2.5478,-2.5247,-2.5619,-2.5081,-2.5617,-2.6165,-2.6185,-2.6186,-2.5947,-2.5356,-2.4963,-2.4148,-2.3035,-2.1359,-1.979,-1.9088,-1.7759,-1.6433,-1.5991,-1.6407,-1.6994,-2.8951,-3.0114,-3.1547,-3.2484,-3.3098,-3.3332,-3.3917,-3.4728,-3.5493,-3.5371,-3.4447,-3.2718,-3.1401,-3.022,-2.7507,-2.4951,-2.2527,-2.0172,-1.9146,-1.8918,-1.6108,-1.3774,-1.1974,-1.3385,-1.374,-1.3219,-1.3537,-1.3264,-1.2451,-1.2224,-1.1841,-1.1259,-1.0019,-0.9489,-0.9608,-0.8929,-0.8497,-0.8353,-0.8822,-0.881,-0.8414,-0.8173,-0.7892,-0.7528,-0.7239,-0.6852,-0.6303,-0.6439,-0.6248,-0.5516,-0.5356,-0.541,-0.5701,-0.5491,-0.5927,-0.7067,-0.8179,-0.9341,-1.044,-1.072,-1.1826,-1.4196,-1.437,-1.6103,-2.0176,-1.9925,-1.9964,-2.1095,-1.9214,-1.7694,-1.6669,-1.6949,-1.7358,-1.7707,-1.7898,-1.8218,-1.8852,-1.9383,-1.9779,-2.0172,-2.0541,-2.085,-2.1326,-2.202,-2.2778,-2.3673,-2.5026,-2.661,-2.7981,-2.9447,-2.9408,-2.7827,-2.6878,-2.5871,-2.4602,-2.3834,-2.3803,-2.37,-2.3799,-2.4024,-2.4003,-2.3941,-2.3887,-2.3862,-2.3008,-2.2142,-2.1462,-2.031,-1.8947,-1.7791,-1.7024,-1.6473,-1.5314,-1.5034,-1.4978,-2.7869,-2.9732,-3.0471,-3.1304,-3.2182,-3.2701,-3.3055,-3.3296,-3.3563,-3.3456,-3.2944,-3.1485,-2.9656,-2.7467,-2.461,-2.1798,-1.9093,-1.6496,-1.4777,-1.3656,-1.2196,-1.0755,-0.9585,-1.0602,-1.0901,-1.052,-1.0306,-0.9998,-0.9617,-0.9459,-0.9326,-0.9302,-0.8978,-0.9025,-0.9206,-0.8368,-0.7784,-0.7551,-0.7409,-0.7048,-0.6459,-0.6283,-0.5987,-0.5696,-0.5768,-0.5659,-0.5253,-0.5092,-0.4989,-0.4682,-0.4502,-0.4377,-0.4413,-0.3671,-0.3784,-0.4854,-0.6121,-0.7406,-0.8471,-0.8485,-0.8934,-0.9893,-1.0343,-1.1408,-1.3682,-1.5074,-1.5568,-1.5041,-1.4569,-1.4073,-1.2984,-1.3464,-1.3915,-1.4421,-1.458,-1.501,-1.5544,-1.5981,-1.6373,-1.6675,-1.7086,-1.7424,-1.7525,-1.8563,-1.9505,-2.0312,-2.2408,-2.4586,-2.5575,-2.6346,-2.683,-2.6484,-2.5759,-2.4902,-2.3971,-2.3363,-2.2822,-2.2345,-2.238,-2.2242,-2.189,-2.1721,-2.1826,-2.1837,-2.1248,-2.0678,-2.012,-1.9281,-1.8092,-1.6848,-1.6186,-1.5525,-1.4486,-1.3502,-1.2811,-2.6631,-2.8985,-2.9439,-3.0245,-3.1317,-3.1941,-3.2074,-3.1834,-3.1665,-3.1244,-3.0637,-2.9595,-2.7442,-2.4499,-2.1555,-1.8603,-1.5706,-1.2963,-1.0883,-0.9402,-0.8634,-0.7869,-0.7264,-0.7915,-0.8187,-0.7921,-0.7326,-0.6993,-0.703,-0.7045,-0.7241,-0.765,-0.8298,-0.8739,-0.8897,-0.7995,-0.7382,-0.7089,-0.6061,-0.5352,-0.4951,-0.4648,-0.4271,-0.3958,-0.4177,-0.4178,-0.3689,-0.3458,-0.3227,-0.3015,-0.266,-0.2434,-0.2349,-0.1314,-0.1228,-0.2489,-0.3542,-0.4706,-0.58,-0.5933,-0.5907,-0.5678,-0.643,-0.7104,-0.7692,-0.9763,-1.0676,-0.9641,-1.0687,-1.1027,-1.0154,-1.0439,-1.098,-1.1318,-1.1621,-1.2031,-1.2504,-1.287,-1.3246,-1.3557,-1.3971,-1.4372,-1.4638,-1.5634,-1.6906,-1.8349,-2.0662,-2.2652,-2.3268,-2.3777,-2.4424,-2.4765,-2.4447,-2.3785,-2.3282,-2.2685,-2.2019,-2.1177,-2.1114,-2.0823,-2.028,-2.0093,-2.0101,-2.0127,-1.9765,-1.9442,-1.8997,-1.8033,-1.7086,-1.6037,-1.5371,-1.4465,-1.3391,-1.2071,-1.0987,-2.5619,-2.6683,-2.8083,-2.9249,-3.0277,-3.0592,-3.063,-3.0458,-3.0245,-2.9064,-2.7278,-2.6187,-2.4075,-2.1107,-1.8069,-1.5099,-1.2139,-0.9862,-0.8002,-0.6567,-0.5925,-0.5324,-0.4919,-0.5229,-0.5492,-0.5572,-0.5146,-0.5005,-0.5145,-0.5353,-0.5966,-0.6903,-0.7456,-0.7818,-0.801,-0.7558,-0.6962,-0.6203,-0.4863,-0.427,-0.4284,-0.3556,-0.2861,-0.2305,-0.1967,-0.1531,-0.1092,-0.0946,-0.0815,-0.0691,-0.0355,-0.0,0.0368,0.0739,0.0925,0.0833,0.0365,-0.0358,-0.1497,-0.2185,-0.2652,-0.2709,-0.3262,-0.3964,-0.501,-0.5508,-0.6157,-0.7045,-0.88,-0.906,-0.7753,-0.8217,-0.8846,-0.9171,-0.9261,-0.9399,-0.999,-1.0194,-1.035,-1.0428,-1.1158,-1.1552,-1.1923,-1.3278,-1.5289,-1.7765,-1.9701,-2.1386,-2.2156,-2.2577,-2.2842,-2.2802,-2.2673,-2.2569,-2.2069,-2.1394,-2.0961,-2.0716,-2.0086,-1.9541,-1.9273,-1.9099,-1.9126,-1.8848,-1.835,-1.7974,-1.7884,-1.703,-1.5574,-1.5236,-1.4406,-1.3426,-1.2197,-1.0985,-0.9962,-2.4734,-2.6346,-2.7546,-2.8763,-2.9826,-2.9547,-2.9292,-2.9104,-2.8085,-2.6533,-2.4686,-2.2916,-2.0913,-1.8689,-1.5616,-1.2476,-0.9337,-0.7067,-0.544,-0.4292,-0.3672,-0.3335,-0.3262,-0.3569,-0.3668,-0.3649,-0.3507,-0.3592,-0.3802,-0.4281,-0.4872,-0.5403,-0.5952,-0.6324,-0.6483,-0.6125,-0.5564,-0.4951,-0.4053,-0.3232,-0.2409,-0.1811,-0.1281,-0.0887,-0.0207,0.0214,0.0523,0.1076,0.1503,0.1548,0.211,0.2419,0.2614,0.2707,0.2797,0.2794,0.2167,0.1358,0.0328,-0.0164,-0.0401,-0.0534,-0.1065,-0.1587,-0.2025,-0.2294,-0.289,-0.388,-0.5987,-0.7049,-0.637,-0.6544,-0.6976,-0.7375,-0.7616,-0.7861,-0.8206,-0.8444,-0.8548,-0.8803,-0.9319,-0.9898,-1.0574,-1.2256,-1.4413,-1.6733,-1.8372,-1.9606,-2.0807,-2.1055,-2.1198,-2.1501,-2.1259,-2.0952,-2.09,-2.1035,-2.0313,-1.926,-1.8828,-1.8661,-1.7618,-1.7456,-1.7413,-1.7531,-1.6962,-1.6573,-1.6547,-1.6364,-1.5469,-1.4608,-1.3119,-1.1895,-1.0675,-0.9934,-0.9174,-2.3797,-2.5646,-2.6877,-2.7942,-2.8797,-2.8305,-2.7725,-2.7048,-2.5887,-2.4261,-2.2261,-2.0233,-1.7974,-1.5595,-1.3214,-1.0336,-0.7146,-0.4768,-0.3281,-0.2433,-0.1767,-0.1634,-0.1886,-0.1986,-0.2063,-0.2069,-0.2046,-0.2232,-0.2614,-0.3105,-0.3691,-0.426,-0.4712,-0.498,-0.515,-0.4946,-0.4587,-0.4119,-0.3521,-0.2465,-0.105,-0.02,0.0268,0.0538,0.1505,0.2028,0.2155,0.3048,0.3573,0.3599,0.4088,0.444,0.4442,0.4389,0.4316,0.4045,0.3379,0.2594,0.1871,0.1632,0.1445,0.1235,0.0863,0.0645,0.0572,0.0291,-0.0147,-0.0889,-0.2763,-0.4095,-0.4716,-0.4813,-0.516,-0.5705,-0.6012,-0.6346,-0.6644,-0.6874,-0.713,-0.7222,-0.772,-0.8592,-0.9713,-1.1526,-1.3557,-1.5232,-1.6677,-1.8012,-1.9394,-1.9685,-1.9858,-2.0707,-1.9985,-1.9531,-1.9846,-1.9783,-1.9092,-1.7974,-1.7348,-1.6819,-1.5816,-1.5799,-1.5811,-1.601,-1.5683,-1.5565,-1.5521,-1.5428,-1.4849,-1.3216,-1.1912,-1.0956,-1.006,-0.9444,-0.8766,-2.2728,-2.4129,-2.5819,-2.6536,-2.6552,-2.6599,-2.5643,-2.4179,-2.382,-2.2322,-1.9888,-1.8326,-1.5374,-1.1552,-1.057,-0.8558,-0.545,-0.3116,-0.1685,-0.0844,-0.0253,-0.0258,-0.0715,-0.0492,-0.0547,-0.0884,-0.0723,-0.0954,-0.1559,-0.1638,-0.2498,-0.3961,-0.3954,-0.4085,-0.4426,-0.432,-0.4232,-0.3891,-0.3099,-0.1972,-0.0438,0.0913,0.1737,0.2004,0.3086,0.3878,0.4389,0.4905,0.5182,0.5447,0.556,0.5631,0.5652,0.5598,0.5288,0.4651,0.4086,0.3655,0.3415,0.317,0.2957,0.2762,0.2662,0.2775,0.2593,0.2436,0.2046,0.1545,0.0507,-0.0748,-0.2325,-0.3031,-0.3426,-0.3984,-0.4377,-0.4678,-0.5063,-0.5678,-0.5705,-0.565,-0.6282,-0.7389,-0.8871,-1.0583,-1.2173,-1.3739,-1.5409,-1.7059,-1.8419,-1.883,-1.9309,-1.9668,-1.9202,-1.839,-1.877,-1.8579,-1.7545,-1.6476,-1.5717,-1.5046,-1.476,-1.4578,-1.4627,-1.4645,-1.4613,-1.4603,-1.46,-1.4085,-1.3177,-1.2158,-1.1562,-1.0663,-0.9778,-0.939,-0.8806,-2.1455,-2.4647,-2.4773,-2.4866,-2.4807,-2.437,-2.328,-2.1814,-2.1026,-1.9524,-1.7576,-1.6028,-1.3187,-0.9379,-0.7826,-0.5709,-0.3203,-0.1503,-0.043,0.0268,0.1023,0.129,0.1143,0.0941,0.0742,0.0503,0.0213,-0.0219,-0.0822,-0.1179,-0.1713,-0.2454,-0.3033,-0.3304,-0.3344,-0.328,-0.3103,-0.2632,-0.194,-0.0977,0.0185,0.1572,0.2543,0.2927,0.3813,0.4522,0.4894,0.5582,0.6,0.6188,0.629,0.6324,0.6264,0.6084,0.5722,0.5007,0.4628,0.4208,0.3685,0.3524,0.3472,0.3494,0.3741,0.4001,0.3984,0.3983,0.3767,0.3081,0.2359,0.1394,0.0222,-0.1493,-0.2859,-0.3203,-0.3364,-0.3597,-0.4144,-0.4414,-0.4491,-0.4505,-0.5098,-0.6187,-0.7858,-0.9357,-1.0877,-1.2592,-1.4203,-1.5803,-1.7312,-1.8037,-1.8541,-1.8956,-1.8723,-1.7954,-1.67,-1.7047,-1.667,-1.5553,-1.4745,-1.4588,-1.4338,-1.42,-1.421,-1.3902,-1.3779,-1.3467,-1.3386,-1.2972,-1.2015,-1.1753,-1.1183,-1.0454,-0.9583,-0.9315,-0.8941,-1.9991,-2.3164,-2.3066,-2.2748,-2.2521,-2.2156,-2.0997,-1.9417,-1.8388,-1.6917,-1.5054,-1.3513,-1.0763,-0.7346,-0.5168,-0.3012,-0.0847,0.0269,0.0962,0.1466,0.2244,0.256,0.2393,0.2095,0.1871,0.169,0.1221,0.0643,-0.0,-0.056,-0.1067,-0.156,-0.2249,-0.2547,-0.2454,-0.2548,-0.2368,-0.1883,-0.125,-0.0423,0.0615,0.191,0.2714,0.3208,0.3979,0.4706,0.5178,0.6054,0.6595,0.6807,0.7017,0.7106,0.6857,0.6516,0.6086,0.5584,0.53,0.495,0.4418,0.4258,0.4283,0.4306,0.4686,0.4948,0.4964,0.511,0.4878,0.4354,0.3633,0.3044,0.2266,0.0495,-0.1078,-0.1778,-0.2102,-0.2339,-0.2792,-0.3197,-0.3448,-0.3625,-0.3963,-0.507,-0.6503,-0.7907,-0.9454,-1.1199,-1.2846,-1.4644,-1.6213,-1.7202,-1.7936,-1.8427,-1.808,-1.7118,-1.601,-1.5771,-1.5202,-1.4132,-1.3791,-1.3762,-1.3676,-1.3617,-1.3487,-1.3175,-1.278,-1.2402,-1.206,-1.1719,-1.1449,-1.1267,-1.0871,-1.0246,-0.9636,-0.9227,-0.8996,-1.8279,-1.9932,-2.0437,-2.0064,-1.954,-1.976,-1.8773,-1.6868,-1.6078,-1.4485,-1.2383,-1.0874,-0.8191,-0.4875,-0.2947,-0.0693,0.1393,0.2188,0.2566,0.2901,0.3341,0.3303,0.2902,0.2934,0.2757,0.2475,0.2254,0.163,0.0761,0.0093,-0.0582,-0.1262,-0.1623,-0.1897,-0.1846,-0.2126,-0.2167,-0.1769,-0.1142,-0.0306,0.0678,0.1897,0.2566,0.2686,0.3644,0.4647,0.5495,0.6306,0.689,0.7312,0.7654,0.7779,0.7521,0.6958,0.65,0.6403,0.614,0.5927,0.5728,0.5562,0.5426,0.5456,0.5756,0.5947,0.5815,0.5896,0.5844,0.5452,0.4782,0.4239,0.3979,0.3117,0.1936,0.065,-0.0148,-0.0523,-0.0824,-0.1771,-0.2669,-0.2893,-0.2997,-0.3511,-0.4776,-0.6248,-0.7812,-0.942,-1.1525,-1.3635,-1.5143,-1.6267,-1.7347,-1.7968,-1.7706,-1.6759,-1.5566,-1.4438,-1.3517,-1.2674,-1.2663,-1.2615,-1.2472,-1.2365,-1.2406,-1.2133,-1.1467,-1.1064,-1.1136,-1.0844,-1.0743,-1.054,-1.0216,-1.0044,-0.9623,-0.9264,-0.9227,-1.4698,-1.6565,-1.6451,-1.6372,-1.6304,-1.6317,-1.5359,-1.3973,-1.3228,-1.1799,-0.9985,-0.8577,-0.6066,-0.3147,-0.1361,0.0643,0.3073,0.3871,0.4001,0.3575,0.3594,0.3531,0.3335,0.3214,0.283,0.2181,0.1534,0.0916,0.0356,-0.0,-0.0631,-0.1565,-0.1625,-0.1627,-0.1792,-0.1644,-0.154,-0.137,-0.0518,0.0231,0.0868,0.1733,0.2312,0.2713,0.3764,0.4562,0.4883,0.5801,0.6599,0.7203,0.7401,0.7534,0.7538,0.7451,0.7185,0.6983,0.6777,0.6491,0.6301,0.6356,0.6473,0.6548,0.7003,0.7195,0.712,0.7195,0.7068,0.6675,0.6075,0.5606,0.5289,0.4701,0.3677,0.2331,0.1925,0.1662,0.1459,0.0359,-0.0636,-0.133,-0.1857,-0.257,-0.3482,-0.4785,-0.6262,-0.7984,-1.0221,-1.2242,-1.3939,-1.5442,-1.6569,-1.7051,-1.6734,-1.6492,-1.5287,-1.427,-1.3392,-1.2435,-1.2034,-1.1756,-1.1509,-1.1347,-1.1344,-1.0938,-1.0257,-0.9977,-1.004,-0.9998,-0.9845,-1.0073,-1.0035,-0.9772,-0.9497,-0.9409,-0.9409,-1.0837,-1.2762,-1.2496,-1.2496,-1.2715,-1.249,-1.1922,-1.098,-1.0293,-0.9061,-0.7548,-0.6216,-0.4026,-0.1389,0.018,0.1793,0.3586,0.4473,0.4645,0.4256,0.4158,0.3962,0.3537,0.281,0.2169,0.1449,0.0832,0.0208,-0.0401,-0.0992,-0.1675,-0.2179,-0.1908,-0.17,-0.1744,-0.1437,-0.1159,-0.0861,-0.0116,0.0579,0.1085,0.169,0.2296,0.2802,0.3747,0.4353,0.4525,0.5454,0.628,0.683,0.7135,0.7446,0.7782,0.7736,0.7585,0.7595,0.7412,0.7168,0.7163,0.7265,0.7386,0.7582,0.7847,0.8047,0.7982,0.8047,0.7792,0.7526,0.6933,0.6539,0.6296,0.5955,0.528,0.4798,0.3839,0.343,0.31,0.2103,0.1241,0.0544,-0.0267,-0.125,-0.2213,-0.3427,-0.4839,-0.6698,-0.8806,-1.0838,-1.262,-1.4251,-1.5189,-1.5928,-1.6256,-1.5716,-1.4897,-1.4089,-1.3313,-1.2436,-1.1589,-1.1178,-1.0805,-1.0625,-1.049,-0.9869,-0.918,-0.902,-0.9056,-0.8952,-0.8874,-0.9272,-0.9572,-0.9329,-0.9029,-0.9541,-0.9643,-0.6834,-0.8542,-0.8707,-0.892,-0.9064,-0.8906,-0.8538,-0.7996,-0.7361,-0.637,-0.5091,-0.3852,-0.1973,0.0243,0.1584,0.2671,0.3498,0.4229,0.4749,0.4814,0.4644,0.4067,0.3109,0.1625,0.0528,-0.0039,-0.0366,-0.0809,-0.1627,-0.2514,-0.3184,-0.2963,-0.2311,-0.1953,-0.1748,-0.1429,-0.0837,-0.0293,0.024,0.0777,0.128,0.1989,0.2408,0.2802,0.3688,0.4291,0.4597,0.537,0.6069,0.6492,0.7085,0.757,0.7957,0.7795,0.7825,0.8218,0.8032,0.8096,0.8302,0.8296,0.8301,0.8549,0.849,0.8371,0.8635,0.8506,0.8306,0.8172,0.7591,0.7213,0.7325,0.7046,0.7074,0.7287,0.5761,0.4688,0.4046,0.3349,0.2769,0.2483,0.1477,0.0191,-0.0871,-0.2225,-0.3761,-0.5408,-0.747,-0.9453,-1.102,-1.2586,-1.3967,-1.4656,-1.5044,-1.4763,-1.3901,-1.3609,-1.2867,-1.1879,-1.1113,-1.0603,-1.0151,-0.9877,-0.9432,-0.8784,-0.8206,-0.8101,-0.8034,-0.7975,-0.8049,-0.8344,-0.8538,-0.8568,-0.881,-0.921,-0.9582,-0.2917,-0.4807,-0.5768,-0.6512,-0.6936,-0.632,-0.5801,-0.5472,-0.4726,-0.389,-0.2911,-0.1778,-0.038,0.124,0.215,0.2991,0.3712,0.4323,0.4779,0.4795,0.373,0.25,0.1071,-0.0686,-0.2098,-0.2989,-0.343,-0.3825,-0.4048,-0.3979,-0.3799,-0.3496,-0.2601,-0.2073,-0.1905,-0.0913,-0.0229,0.0171,0.08,0.1148,0.1534,0.2641,0.313,0.3074,0.4181,0.4674,0.4634,0.5505,0.6294,0.6892,0.7351,0.7766,0.8132,0.8038,0.8283,0.8749,0.869,0.8743,0.9134,0.9262,0.939,0.9594,0.946,0.9594,0.9792,0.9542,0.9338,0.9204,0.8818,0.8576,0.8843,0.8482,0.8316,0.8165,0.7274,0.6312,0.5697,0.5,0.4288,0.3722,0.2708,0.1548,0.0429,-0.1097,-0.2707,-0.4232,-0.612,-0.8137,-0.9579,-1.0938,-1.2417,-1.2905,-1.3268,-1.3245,-1.3053,-1.2875,-1.2295,-1.1253,-1.0533,-1.0013,-0.952,-0.9118,-0.8464,-0.7703,-0.717,-0.6918,-0.7,-0.7031,-0.7248,-0.7437,-0.7792,-0.7973,-0.8248,-0.8579,-0.9069,-0.0675,-0.2031,-0.3092,-0.3736,-0.402,-0.3438,-0.3189,-0.3024,-0.2421,-0.1737,-0.0937,-0.0123,0.0918,0.199,0.2645,0.3137,0.3645,0.4056,0.459,0.4719,0.2559,0.0354,-0.1583,-0.3597,-0.5176,-0.621,-0.6655,-0.6624,-0.6249,-0.5514,-0.4771,-0.3996,-0.2956,-0.2209,-0.1655,-0.0387,0.0612,0.1051,0.1794,0.2327,0.2516,0.3511,0.3956,0.411,0.4946,0.5426,0.5699,0.6304,0.6789,0.7056,0.7475,0.7897,0.8349,0.8416,0.8743,0.9445,0.9238,0.9266,0.9863,1.0085,1.0225,1.0428,1.0371,1.0308,1.0308,1.0187,0.9983,0.9913,0.9621,0.9622,0.9844,0.9764,0.9696,0.9428,0.8899,0.8133,0.7269,0.6241,0.5538,0.4768,0.3684,0.2516,0.1602,-0.0177,-0.1753,-0.3335,-0.5106,-0.6753,-0.8222,-0.9525,-1.0572,-1.1025,-1.14,-1.1459,-1.1465,-1.1369,-1.0949,-1.0024,-0.9588,-0.9175,-0.8655,-0.8128,-0.757,-0.6818,-0.6224,-0.5856,-0.5993,-0.6136,-0.6146,-0.6425,-0.6929,-0.7298,-0.7529,-0.8177,-0.8644,0.0538,0.0051,-0.0761,-0.0913,-0.0759,-0.0678,-0.0901,-0.0797,-0.0454,0.0089,0.0745,0.1347,0.205,0.2698,0.3173,0.333,0.3242,0.3562,0.3965,0.3384,0.1186,-0.1709,-0.407,-0.5958,-0.7649,-0.8781,-0.9466,-0.8906,-0.7943,-0.7026,-0.5853,-0.4683,-0.3332,-0.2111,-0.1028,0.0323,0.1418,0.2115,0.2986,0.3591,0.3919,0.4563,0.5003,0.5257,0.5852,0.6499,0.7025,0.7425,0.7488,0.7132,0.7582,0.8156,0.8745,0.8804,0.9343,0.9923,0.9856,0.9953,1.056,1.0773,1.0912,1.1108,1.0926,1.0751,1.0814,1.0744,1.0555,1.0618,1.036,1.0388,1.0596,1.1102,1.1026,1.061,1.0276,0.961,0.8415,0.7215,0.6322,0.5984,0.4395,0.317,0.2033,0.0613,-0.1118,-0.2548,-0.4126,-0.5354,-0.6553,-0.7583,-0.8464,-0.9068,-0.9409,-0.9652,-0.9694,-0.9731,-0.9217,-0.8642,-0.8363,-0.8012,-0.7446,-0.6945,-0.655,-0.5986,-0.5185,-0.4936,-0.5107,-0.5172,-0.5112,-0.5383,-0.5842,-0.619,-0.6563,-0.7565,-0.8226,0.1703,0.1314,0.0692,0.0748,0.1075,0.0546,0.057,0.1042,0.1272,0.1647,0.2242,0.2816,0.3242,0.3717,0.3741,0.3631,0.3267,0.3279,0.2991,0.1328,-0.0637,-0.325,-0.5409,-0.6989,-0.8865,-1.0116,-0.9966,-0.9682,-0.9227,-0.7468,-0.6105,-0.5479,-0.2901,-0.1268,-0.0554,0.1353,0.2683,0.3159,0.3759,0.4317,0.486,0.5655,0.619,0.6255,0.6903,0.747,0.7873,0.8373,0.8565,0.8491,0.8532,0.8731,0.8995,0.9521,1.0108,1.0556,1.0741,1.095,1.1453,1.171,1.1856,1.1881,1.1787,1.1809,1.1934,1.1615,1.156,1.1681,1.166,1.1643,1.1778,1.2264,1.187,1.1076,1.0514,0.99,0.8714,0.7566,0.6686,0.5938,0.4834,0.3658,0.2631,0.1397,-0.0223,-0.1785,-0.2961,-0.3978,-0.4949,-0.5819,-0.6497,-0.7192,-0.7419,-0.7699,-0.7842,-0.7985,-0.7878,-0.7476,-0.7229,-0.7024,-0.6491,-0.5814,-0.5395,-0.4773,-0.405,-0.403,-0.4214,-0.4009,-0.3857,-0.4323,-0.4794,-0.5309,-0.5955,-0.6966,-0.8044,0.27,0.2569,0.184,0.1785,0.2094,0.173,0.1758,0.2171,0.2336,0.2721,0.3221,0.3531,0.3835,0.4282,0.4187,0.3901,0.3432,0.3026,0.2307,0.0925,-0.0846,-0.2661,-0.4134,-0.579,-0.7617,-1.0241,-1.0524,-1.0169,-0.92,-0.7905,-0.6471,-0.5052,-0.2245,-0.0559,0.0286,0.2234,0.3459,0.4093,0.4741,0.5338,0.5914,0.6853,0.7489,0.7488,0.7882,0.8153,0.8468,0.8889,0.9258,0.9414,0.9592,0.9664,0.9673,1.0242,1.0856,1.1295,1.1689,1.1817,1.2065,1.2512,1.2875,1.3103,1.2797,1.2658,1.2728,1.2597,1.2639,1.2814,1.2923,1.2996,1.2858,1.2828,1.2305,1.118,1.0457,0.9655,0.8459,0.7486,0.6696,0.6019,0.4889,0.3819,0.2794,0.1733,0.0279,-0.1507,-0.1845,-0.28,-0.347,-0.4276,-0.4773,-0.5265,-0.5456,-0.5673,-0.595,-0.6209,-0.6583,-0.6367,-0.6216,-0.6028,-0.5751,-0.4992,-0.4268,-0.3723,-0.3332,-0.3074,-0.3128,-0.2896,-0.2941,-0.3367,-0.3951,-0.4562,-0.5445,-0.6543,-0.7664,0.3793,0.3741,0.2902,0.2717,0.2921,0.2847,0.2852,0.2956,0.3289,0.3718,0.4025,0.4015,0.4461,0.4655,0.4631,0.4299,0.3716,0.2923,0.2221,0.161,0.0043,-0.1113,-0.2049,-0.3269,-0.5005,-0.8816,-0.9213,-0.8882,-0.8293,-0.756,-0.574,-0.3811,-0.1541,0.0228,0.1495,0.2884,0.4116,0.4861,0.5733,0.6488,0.7189,0.8041,0.8544,0.8924,0.9009,0.9182,0.9528,0.9848,1.006,1.0414,1.074,1.0804,1.083,1.1052,1.1485,1.1917,1.2411,1.2688,1.2713,1.3152,1.3768,1.445,1.3683,1.3329,1.339,1.343,1.3529,1.3769,1.3908,1.4036,1.3723,1.3382,1.2365,1.1142,1.0166,0.9114,0.799,0.7097,0.6417,0.5858,0.4808,0.3752,0.2907,0.1956,0.0391,-0.0894,-0.1175,-0.1573,-0.2278,-0.2921,-0.3468,-0.3904,-0.419,-0.4443,-0.4663,-0.482,-0.5132,-0.5226,-0.5105,-0.4978,-0.4723,-0.3669,-0.2921,-0.3132,-0.2869,-0.254,-0.2274,-0.2196,-0.2341,-0.2593,-0.3247,-0.4124,-0.5111,-0.6151,-0.7389,0.5026,0.4809,0.4188,0.408,0.4171,0.3708,0.3646,0.3981,0.4701,0.5017,0.4931,0.5253,0.5438,0.5647,0.5576,0.511,0.426,0.3357,0.2753,0.2378,0.1219,0.0453,0.0043,-0.0787,-0.1986,-0.2976,-0.4788,-0.6081,-0.615,-0.5215,-0.4155,-0.2745,-0.0764,0.1061,0.2456,0.3749,0.4667,0.5575,0.6504,0.7312,0.7999,0.8714,0.9475,1.0105,1.0286,1.0519,1.0879,1.1257,1.1545,1.1603,1.1778,1.1796,1.1713,1.1792,1.1875,1.2126,1.2665,1.3058,1.3408,1.3738,1.4239,1.4542,1.4241,1.395,1.4081,1.4215,1.4338,1.4484,1.4741,1.479,1.4316,1.3661,1.2636,1.1286,0.9876,0.8745,0.7457,0.6478,0.5754,0.5294,0.4425,0.3644,0.2871,0.2143,0.1012,-0.0112,-0.0618,-0.101,-0.1577,-0.209,-0.2589,-0.2919,-0.3132,-0.3403,-0.3622,-0.3721,-0.3883,-0.4061,-0.3975,-0.3814,-0.327,-0.2089,-0.1618,-0.1777,-0.1882,-0.1704,-0.1544,-0.1498,-0.1754,-0.2009,-0.2863,-0.3777,-0.509,-0.632,-0.7564,0.6317,0.5865,0.5526,0.5301,0.514,0.4863,0.4722,0.4904,0.5403,0.5604,0.5545,0.5643,0.579,0.5844,0.5751,0.5295,0.4526,0.3894,0.3321,0.286,0.2291,0.1862,0.1661,0.1031,0.0676,-0.0,-0.1215,-0.2673,-0.3825,-0.3337,-0.2409,-0.1177,0.0635,0.2205,0.3127,0.3924,0.5043,0.6127,0.7199,0.8098,0.8778,0.9479,1.0276,1.0713,1.0959,1.1113,1.1255,1.1405,1.1601,1.1805,1.1803,1.1981,1.2144,1.2186,1.2207,1.2378,1.2717,1.315,1.378,1.4063,1.4562,1.4941,1.4801,1.4877,1.5004,1.5219,1.521,1.5396,1.5287,1.5035,1.4073,1.3392,1.2094,1.041,0.9138,0.7979,0.6788,0.5776,0.5179,0.4746,0.4203,0.3562,0.2921,0.2174,0.1535,0.0793,0.0057,-0.0507,-0.1009,-0.14,-0.1903,-0.222,-0.2546,-0.265,-0.2756,-0.2638,-0.2796,-0.291,-0.2907,-0.272,-0.2048,-0.0982,-0.0434,-0.031,-0.037,-0.0612,-0.0792,-0.0795,-0.1116,-0.157,-0.2638,-0.3765,-0.5239,-0.6578,-0.7871,0.7648,0.71,0.6829,0.6468,0.6146,0.594,0.5774,0.5681,0.5775,0.5872,0.5834,0.5742,0.5737,0.5741,0.5585,0.5187,0.4641,0.426,0.3844,0.3445,0.3162,0.2906,0.2789,0.2649,0.2474,0.2063,0.1889,0.086,-0.1127,-0.1395,-0.0854,0.0157,0.204,0.3187,0.3579,0.4343,0.5435,0.6675,0.7842,0.8783,0.9637,1.0417,1.095,1.1256,1.1223,1.1361,1.1649,1.1734,1.1987,1.2213,1.2258,1.2197,1.251,1.2442,1.2452,1.2687,1.2732,1.3016,1.3402,1.4082,1.4513,1.479,1.5103,1.5294,1.5425,1.5448,1.5799,1.5963,1.5573,1.4875,1.3605,1.2646,1.122,0.9511,0.8153,0.7046,0.6165,0.5349,0.4791,0.4366,0.3964,0.3491,0.2853,0.2416,0.1763,0.1156,0.0404,-0.0397,-0.0846,-0.101,-0.1453,-0.1762,-0.2022,-0.207,-0.2006,-0.1618,-0.1779,-0.1911,-0.1835,-0.1632,-0.0862,0.0063,0.0445,0.0836,0.064,0.0381,0.0126,-0.0377,-0.0896,-0.1618,-0.2591,-0.386,-0.5465,-0.6993,-0.8406,0.9045,0.8754,0.807,0.7571,0.714,0.6758,0.6379,0.6088,0.6272,0.6253,0.603,0.5987,0.5881,0.5752,0.5453,0.5147,0.4845,0.4685,0.4379,0.3977,0.3946,0.3909,0.3942,0.4107,0.3851,0.3588,0.3786,0.2723,0.1183,0.0673,0.0768,0.1556,0.2334,0.3144,0.4341,0.5047,0.6026,0.7189,0.8191,0.9437,1.0698,1.1463,1.1809,1.1997,1.2094,1.2346,1.2662,1.2729,1.2985,1.3294,1.3417,1.3421,1.3421,1.2898,1.2889,1.3014,1.3121,1.3007,1.3135,1.378,1.4286,1.4487,1.4765,1.4749,1.5022,1.5168,1.5304,1.5256,1.4806,1.3978,1.2819,1.1817,1.0418,0.892,0.7486,0.6615,0.5715,0.5242,0.4667,0.4299,0.4086,0.3485,0.2797,0.2469,0.2123,0.1491,0.0762,-0.0115,-0.0738,-0.096,-0.1175,-0.1546,-0.1794,-0.1894,-0.1519,-0.1131,-0.0892,-0.1054,-0.0781,-0.0617,0.0063,0.0777,0.1446,0.1723,0.1451,0.092,0.0196,-0.0328,-0.0797,-0.1655,-0.2689,-0.4221,-0.5792,-0.7332,-0.8798,0.998,0.9226,0.8857,0.8377,0.7845,0.7499,0.7078,0.6734,0.6701,0.6543,0.6262,0.6174,0.6023,0.5652,0.5391,0.5167,0.4956,0.4959,0.4707,0.4412,0.4491,0.4728,0.468,0.4717,0.4691,0.468,0.4658,0.4541,0.3425,0.2932,0.2859,0.3113,0.3671,0.4402,0.5188,0.5872,0.6827,0.7943,0.9156,1.0423,1.1419,1.2026,1.2323,1.2618,1.2828,1.315,1.3455,1.3675,1.3768,1.3936,1.3873,1.3809,1.3767,1.3461,1.3304,1.364,1.3441,1.3278,1.3337,1.3947,1.4181,1.4481,1.4813,1.5206,1.5166,1.4903,1.4577,1.4249,1.3479,1.2639,1.1646,1.0573,0.9434,0.8132,0.6972,0.6307,0.5599,0.521,0.4763,0.4457,0.4067,0.3425,0.2734,0.2134,0.1724,0.1168,0.042,-0.0351,-0.0863,-0.108,-0.1237,-0.1444,-0.1639,-0.1779,-0.1247,-0.0762,-0.0339,-0.0236,0.0121,0.0437,0.0847,0.1467,0.1813,0.1884,0.1469,0.0868,0.0134,-0.0268,-0.0736,-0.1728,-0.2909,-0.4414,-0.599,-0.7461,-0.9126,1.0567,0.9589,0.9452,0.8995,0.8328,0.8051,0.7583,0.7057,0.6793,0.6483,0.6156,0.5961,0.5653,0.5421,0.5203,0.5066,0.4791,0.5104,0.496,0.4794,0.4944,0.525,0.5424,0.5389,0.5377,0.526,0.5669,0.5602,0.5543,0.525,0.4842,0.4784,0.5132,0.5636,0.6114,0.6717,0.7508,0.875,1.0148,1.1247,1.203,1.2323,1.2783,1.3165,1.3551,1.385,1.4192,1.4357,1.4478,1.455,1.4434,1.4352,1.4344,1.4126,1.3935,1.4003,1.3689,1.3542,1.372,1.4035,1.4293,1.4376,1.4375,1.4359,1.439,1.4223,1.3831,1.3067,1.1964,1.1049,1.0156,0.9208,0.8258,0.7406,0.6534,0.6009,0.5502,0.5173,0.4807,0.4406,0.3952,0.3439,0.2735,0.1794,0.1244,0.0818,0.0123,-0.0655,-0.0989,-0.1141,-0.1232,-0.138,-0.1417,-0.1558,-0.1294,-0.0714,-0.0115,0.0356,0.0732,0.1012,0.1251,0.1338,0.1545,0.1479,0.1143,0.0538,-0.0336,-0.047,-0.0739,-0.2132,-0.3495,-0.462,-0.608,-0.7687,-0.9535,1.0687,1.0036,0.9953,0.9481,0.8672,0.8184,0.7641,0.7008,0.6424,0.598,0.5628,0.5258,0.4926,0.4734,0.496,0.4908,0.4588,0.4947,0.5059,0.5191,0.5363,0.5683,0.592,0.6101,0.6125,0.6081,0.6482,0.6718,0.6849,0.6789,0.6304,0.5942,0.6459,0.6705,0.7008,0.7505,0.8391,0.957,1.0864,1.1738,1.2332,1.2783,1.3273,1.3921,1.4144,1.4409,1.5039,1.5255,1.5369,1.5576,1.5332,1.5119,1.5052,1.467,1.4463,1.4316,1.3955,1.3842,1.4052,1.4099,1.39,1.3468,1.3125,1.2932,1.2845,1.2085,1.1695,1.165,1.0595,0.9606,0.8796,0.7987,0.7282,0.6874,0.6425,0.6017,0.5592,0.5262,0.4887,0.4351,0.3888,0.3425,0.2622,0.1672,0.0999,0.0568,0.0125,-0.0663,-0.087,-0.1076,-0.1166,-0.1256,-0.1243,-0.1287,-0.1339,-0.0824,-0.0228,0.0237,0.0614,0.0957,0.1197,0.1273,0.1278,0.0538,0.0134,-0.0336,-0.0806,-0.1208,-0.1741,-0.2867,-0.4064,-0.5244,-0.6897,-0.8661,-1.0472,1.0586,1.0241,1.0258,0.9665,0.8626,0.8228,0.7672,0.6977,0.6252,0.5692,0.5352,0.5005,0.49,0.4862,0.4797,0.4856,0.477,0.4995,0.5093,0.5333,0.564,0.5972,0.6244,0.6396,0.6439,0.6448,0.7017,0.7501,0.7439,0.7702,0.796,0.7806,0.7762,0.7846,0.8115,0.8479,0.9336,1.0217,1.1175,1.1936,1.2607,1.3421,1.4068,1.468,1.5496,1.5924,1.6556,1.6797,1.679,1.6624,1.6386,1.5999,1.5497,1.5004,1.474,1.4675,1.4234,1.4215,1.4291,1.4291,1.4073,1.3501,1.2796,1.2078,1.1636,1.0974,1.059,1.0109,0.9256,0.8253,0.7764,0.7164,0.6663,0.651,0.6322,0.6013,0.5734,0.546,0.4987,0.4499,0.3975,0.3451,0.253,0.1541,0.0937,0.038,-0.0124,-0.0548,-0.0765,-0.0969,-0.1121,-0.1273,-0.1262,-0.1311,-0.1365,-0.0834,-0.0284,0.0118,0.0494,0.0833,0.1128,0.1141,0.101,0.0067,-0.0737,-0.1134,-0.1532,-0.2006,-0.2723,-0.347,-0.4583,-0.5836,-0.7665,-0.9522,-1.0988,1.0357,1.0003,1.0081,0.9636,0.877,0.8364,0.7807,0.7079,0.6254,0.5564,0.517,0.5002,0.4979,0.4964,0.4927,0.4833,0.4894,0.5038,0.509,0.5352,0.5683,0.6045,0.6326,0.6539,0.6679,0.6683,0.7083,0.7634,0.7709,0.8281,0.8586,0.8765,0.8903,0.8893,0.8975,0.9566,1.013,1.0716,1.1542,1.2271,1.3049,1.3952,1.5088,1.5625,1.6389,1.6981,1.7467,1.7739,1.7593,1.72,1.6853,1.6386,1.5738,1.5149,1.4793,1.4687,1.4627,1.4428,1.4477,1.4312,1.39,1.3222,1.2218,1.149,1.0816,0.9928,0.9316,0.8916,0.7956,0.7228,0.7079,0.6814,0.6638,0.6577,0.6513,0.6239,0.6007,0.5759,0.5191,0.4693,0.4207,0.3746,0.3009,0.205,0.1176,0.0501,-0.0124,-0.0491,-0.0664,-0.0822,-0.0976,-0.1192,-0.135,-0.1402,-0.1402,-0.0845,-0.0285,-0.0,0.0435,0.0767,0.1052,0.1067,0.0876,0.0202,-0.0669,-0.1589,-0.2041,-0.223,-0.2978,-0.389,-0.5175,-0.6541,-0.7846,-0.961,-1.0643,1.0085,0.9189,0.9493,0.9452,0.908,0.8616,0.8002,0.7295,0.6447,0.5688,0.5169,0.5159,0.51,0.508,0.5175,0.5193,0.5137,0.5195,0.5214,0.5378,0.5868,0.6156,0.6447,0.671,0.6948,0.6981,0.7427,0.7837,0.7847,0.8687,0.9147,0.936,0.9502,0.9643,0.9596,1.0375,1.0751,1.0905,1.2002,1.2779,1.3603,1.4403,1.5542,1.6428,1.7011,1.7499,1.816,1.8204,1.7917,1.7445,1.6917,1.6359,1.5693,1.5073,1.4673,1.453,1.431,1.4172,1.4186,1.3847,1.3365,1.2632,1.1601,1.0631,0.9433,0.8595,0.8151,0.8026,0.7187,0.7031,0.6946,0.683,0.6803,0.6763,0.6629,0.6366,0.618,0.581,0.5235,0.4826,0.4565,0.4179,0.3514,0.2648,0.1581,0.074,-0.0062,-0.0369,-0.0307,-0.0543,-0.0708,-0.0984,-0.1205,-0.1488,-0.1368,-0.0848,-0.0345,-0.006,0.0313,0.0708,0.1053,0.1205,0.0875,0.0336,-0.0201,-0.0862,-0.1629,-0.2311,-0.3386,-0.4524,-0.5998,-0.7359,-0.8549,-0.9568,-1.0617,0.9723,0.9483,0.9413,0.9296,0.9065,0.8594,0.8159,0.7767,0.6956,0.6196,0.5722,0.584,0.5814,0.5725,0.5754,0.578,0.583,0.5712,0.5751,0.5856,0.6222,0.6316,0.6606,0.6913,0.7182,0.7435,0.7919,0.8341,0.861,0.9212,0.9558,0.9809,0.9854,1.0226,1.0188,1.0399,1.0151,1.1044,1.1863,1.2546,1.3504,1.4686,1.5781,1.6688,1.7224,1.7867,1.8544,1.8363,1.7991,1.7498,1.6978,1.621,1.5472,1.479,1.4491,1.4328,1.4142,1.4031,1.401,1.3728,1.3133,1.2168,1.1154,1.0144,0.9242,0.8243,0.779,0.7524,0.7079,0.7088,0.7177,0.7048,0.6957,0.6959,0.6856,0.6464,0.6169,0.5688,0.5198,0.4897,0.4646,0.4204,0.3658,0.3307,0.2395,0.1845,0.1174,0.0819,0.0759,0.0124,-0.0242,-0.0651,-0.0993,-0.1339,-0.1335,-0.0754,-0.0119,0.0311,0.051,0.0714,0.0992,0.1344,0.1346,0.1076,0.0534,-0.0,-0.1212,-0.2463,-0.3954,-0.5304,-0.6473,-0.7521,-0.8491,-0.948,-1.0538,0.9697,0.958,0.9484,0.929,0.9063,0.8595,0.8243,0.7961,0.7242,0.6653,0.6375,0.6416,0.635,0.6296,0.6351,0.6492,0.651,0.6547,0.6506,0.6523,0.6924,0.6967,0.7131,0.7296,0.7694,0.7947,0.8286,0.8625,0.8884,0.936,0.9657,0.9775,0.9999,1.0121,1.0226,1.0199,1.0238,1.1019,1.1578,1.2513,1.3513,1.4675,1.5879,1.6626,1.7301,1.7924,1.8318,1.8293,1.7872,1.7429,1.6806,1.5988,1.5174,1.4593,1.4234,1.4041,1.4037,1.3807,1.3476,1.3729,1.2949,1.1583,1.0871,0.9968,0.9036,0.8037,0.7666,0.7388,0.7167,0.7373,0.7505,0.7302,0.7148,0.721,0.6944,0.6609,0.6108,0.5635,0.5202,0.4955,0.4602,0.4197,0.392,0.3724,0.3254,0.2849,0.2478,0.2154,0.168,0.095,0.031,-0.0,-0.0481,-0.0898,-0.0898,-0.0599,-0.0,0.0578,0.091,0.1113,0.1327,0.1749,0.1749,0.1743,0.1059,0.0194,-0.1224,-0.2591,-0.3989,-0.5297,-0.6413,-0.7447,-0.8368,-0.9361,-1.036,1.0012,0.9407,0.958,0.947,0.9189,0.8756,0.8314,0.7835,0.7336,0.7117,0.7069,0.6799,0.6766,0.6761,0.6907,0.7088,0.7208,0.7339,0.7387,0.7483,0.7822,0.7862,0.7938,0.8098,0.8394,0.8529,0.8699,0.9086,0.9022,0.9336,0.951,0.9657,0.979,0.9839,1.0046,1.028,1.0354,1.064,1.1274,1.2166,1.308,1.4282,1.542,1.6284,1.6956,1.742,1.7689,1.7656,1.7263,1.6824,1.6392,1.5742,1.5039,1.445,1.4003,1.371,1.3701,1.3263,1.29,1.3252,1.2647,1.1325,1.0468,0.9493,0.8685,0.8027,0.7711,0.7514,0.7384,0.7733,0.791,0.7667,0.7364,0.7275,0.7031,0.6615,0.6101,0.5615,0.5272,0.4918,0.4623,0.4335,0.4241,0.4073,0.4056,0.3856,0.3464,0.3057,0.2541,0.1549,0.1016,0.0825,0.0313,-0.0309,-0.0247,0.0062,0.0441,0.1175,0.1568,0.1842,0.1999,0.2088,0.2218,0.2068,0.1436,0.0378,-0.1082,-0.2605,-0.4054,-0.523,-0.6337,-0.7252,-0.8203,-0.9152,-1.0095,0.9608,0.924,0.9113,0.9264,0.9502,0.9368,0.897,0.842,0.8093,0.7813,0.7459,0.7753,0.7646,0.745,0.7978,0.8093,0.8226,0.8364,0.8572,0.8788,0.8947,0.9066,0.9182,0.916,0.9321,0.9513,0.9666,0.9771,0.995,0.9924,0.985,1.0101,0.9957,0.9817,0.9823,1.0007,1.0024,1.0242,1.085,1.1544,1.2357,1.3369,1.4505,1.5322,1.6022,1.64,1.6686,1.6472,1.6088,1.5802,1.5165,1.4451,1.3653,1.3433,1.3175,1.2987,1.3022,1.2957,1.2582,1.2688,1.2341,1.1331,1.051,0.9673,0.8838,0.8222,0.7895,0.7746,0.7725,0.8025,0.7983,0.7735,0.749,0.7269,0.7017,0.6553,0.6056,0.562,0.5272,0.4807,0.4474,0.4496,0.4414,0.4739,0.48,0.4694,0.4454,0.4022,0.3381,0.2416,0.1739,0.1607,0.1096,0.0446,0.07,0.1081,0.1361,0.1716,0.2121,0.24,0.2429,0.2512,0.2631,0.2245,0.1407,0.0247,-0.1069,-0.2583,-0.4076,-0.5062,-0.6105,-0.7079,-0.8043,-0.8942,-0.9725,0.9569,0.9301,0.9155,0.9329,0.9582,0.9605,0.9291,0.8834,0.848,0.823,0.8163,0.8332,0.8365,0.8402,0.8844,0.9052,0.9072,0.9469,0.9715,0.9786,1.0201,1.02,1.029,1.0323,1.0464,1.0628,1.0644,1.0579,1.0765,1.0567,1.0434,1.0467,1.0207,0.9923,0.9771,0.9653,0.9637,0.9846,1.0201,1.0702,1.1414,1.2294,1.3157,1.4034,1.4746,1.5241,1.5454,1.5163,1.5046,1.474,1.4089,1.346,1.2829,1.2734,1.2403,1.2218,1.2485,1.2355,1.2122,1.2289,1.189,1.1288,1.0676,0.9964,0.9209,0.8581,0.835,0.8201,0.821,0.819,0.7958,0.7731,0.7538,0.7338,0.692,0.6505,0.6034,0.5636,0.5167,0.4671,0.4538,0.4564,0.479,0.5173,0.5391,0.5246,0.5053,0.4789,0.4189,0.3333,0.2744,0.2378,0.1822,0.1309,0.17,0.2027,0.2259,0.2496,0.2661,0.2881,0.2823,0.2727,0.2767,0.2147,0.1244,-0.006,-0.145,-0.262,-0.3959,-0.5003,-0.5941,-0.6761,-0.7676,-0.8521,-0.9302,0.9724,0.9446,0.9584,0.9541,0.9507,0.9601,0.9435,0.9003,0.8648,0.8616,0.8749,0.867,0.8857,0.9144,0.9533,0.9806,1.0053,1.0479,1.074,1.0657,1.1365,1.1519,1.1424,1.1461,1.17,1.1651,1.1629,1.1557,1.1214,1.0974,1.0709,1.0697,1.0467,1.0238,0.9947,0.9659,0.9577,0.9519,0.9802,1.0213,1.059,1.1362,1.2157,1.3083,1.3733,1.4262,1.4297,1.4277,1.4304,1.3801,1.3352,1.2812,1.2404,1.1929,1.1531,1.158,1.191,1.1806,1.1769,1.1953,1.1707,1.1256,1.0798,1.0326,0.9732,0.909,0.886,0.8647,0.8622,0.8463,0.8231,0.7779,0.7504,0.7175,0.6833,0.6363,0.5843,0.5428,0.4954,0.4591,0.4646,0.4718,0.4816,0.5246,0.5693,0.5582,0.5664,0.5563,0.5128,0.4397,0.3836,0.3321,0.2849,0.2492,0.2594,0.2871,0.3121,0.3305,0.334,0.3358,0.3283,0.3096,0.2831,0.1866,0.0733,-0.0528,-0.1873,-0.3026,-0.4067,-0.5062,-0.5891,-0.6505,-0.7317,-0.8174,-0.8883,0.9499,0.9161,0.9574,0.9542,0.9287,0.9687,0.9637,0.9217,0.9096,0.8936,0.8777,0.92,0.9546,0.9788,1.0273,1.055,1.0934,1.1499,1.1656,1.1956,1.2492,1.2674,1.2639,1.276,1.2906,1.3051,1.2996,1.2692,1.2178,1.1624,1.1066,1.1085,1.0846,1.0585,1.0432,1.0038,0.9792,0.9602,0.9514,0.9737,0.9959,1.051,1.1279,1.2153,1.2849,1.3251,1.3372,1.3532,1.3219,1.2707,1.2546,1.2098,1.1651,1.1011,1.0937,1.1233,1.1328,1.1311,1.1463,1.1641,1.1528,1.1347,1.1045,1.0772,1.039,0.9771,0.9394,0.9175,0.8969,0.8771,0.8458,0.7894,0.7432,0.7122,0.6791,0.6212,0.5656,0.5185,0.4737,0.4741,0.4779,0.4866,0.4961,0.53,0.5746,0.613,0.6463,0.6476,0.627,0.5674,0.5036,0.4513,0.4094,0.3833,0.3784,0.3731,0.392,0.3825,0.379,0.3738,0.3679,0.3071,0.2497,0.1322,0.012,-0.1157,-0.231,-0.3299,-0.4343,-0.5281,-0.59,-0.6514,-0.7051,-0.7877,-0.8459,0.9485,0.9317,0.9664,0.9634,0.9484,0.9875,0.9853,0.9643,0.9636,0.9543,0.9381,0.9753,1.0164,1.0532,1.104,1.1599,1.1979,1.2592,1.2919,1.3257,1.352,1.3727,1.3835,1.3926,1.397,1.4095,1.3872,1.3572,1.305,1.2403,1.1888,1.1828,1.1528,1.1144,1.1036,1.0744,1.0321,1.0105,0.971,0.9562,0.959,1.0061,1.0629,1.1407,1.1892,1.2257,1.2346,1.2486,1.2325,1.2034,1.191,1.1328,1.0904,1.0471,1.0563,1.0762,1.0887,1.0922,1.1175,1.1377,1.1427,1.1273,1.1388,1.1177,1.0728,1.0181,0.9978,0.9764,0.93,0.9058,0.8536,0.8057,0.7499,0.7128,0.6743,0.6272,0.5682,0.5173,0.4868,0.4754,0.4875,0.4993,0.5135,0.5363,0.578,0.6069,0.6463,0.6769,0.6661,0.6668,0.6102,0.567,0.5161,0.4791,0.4653,0.4625,0.4651,0.4488,0.424,0.3958,0.3657,0.2876,0.2042,0.0865,-0.0358,-0.1719,-0.2863,-0.3738,-0.4618,-0.5559,-0.6064,-0.6519,-0.7067,-0.7548,-0.8129,0.9492,0.9524,0.968,0.9679,0.9713,0.9982,1.0108,1.0116,1.0265,1.0405,1.0511,1.0544,1.0995,1.1443,1.1936,1.2613,1.3138,1.3484,1.3936,1.443,1.474,1.4866,1.4908,1.4902,1.4882,1.4761,1.4489,1.4156,1.3729,1.3042,1.2674,1.2794,1.2453,1.2111,1.2063,1.1694,1.109,1.0796,1.0401,1.0041,0.9881,0.9697,1.0191,1.0678,1.0994,1.1209,1.1284,1.1392,1.1461,1.1399,1.1341,1.0849,1.0473,1.0221,1.0328,1.0522,1.0667,1.0769,1.0972,1.1276,1.1226,1.1217,1.1528,1.1373,1.0902,1.0631,1.0425,1.0089,0.9614,0.9197,0.8685,0.8069,0.7564,0.6991,0.6618,0.6186,0.5636,0.5154,0.5019,0.4845,0.4983,0.5138,0.5285,0.5469,0.5681,0.5982,0.6287,0.6518,0.6747,0.6783,0.6601,0.6333,0.6031,0.5769,0.5505,0.5289,0.5261,0.4984,0.4658,0.424,0.3624,0.2574,0.1579,0.0492,-0.0772,-0.2222,-0.3251,-0.4128,-0.5007,-0.5686,-0.6064,-0.647,-0.6929,-0.7395,-0.7877,0.9267,0.9143,0.9307,0.9425,0.9561,0.997,1.0315,1.0545,1.1055,1.1303,1.1608,1.2236,1.2503,1.2035,1.2464,1.3145,1.4023,1.4373,1.4861,1.5381,1.5756,1.593,1.5875,1.5698,1.5643,1.5393,1.5078,1.4738,1.4359,1.3717,1.3237,1.3128,1.2657,1.2426,1.2457,1.2086,1.1829,1.1474,1.1153,1.0836,1.0302,1.0113,0.9968,1.0276,1.0497,1.0506,1.0588,1.0751,1.0773,1.0716,1.0701,1.05,1.0287,1.0113,1.0127,1.0257,1.0411,1.0522,1.0769,1.1074,1.1074,1.0922,1.1124,1.1217,1.0847,1.0646,1.0418,1.0054,0.9621,0.9354,0.8803,0.803,0.7449,0.6758,0.6272,0.5858,0.5374,0.5198,0.5106,0.5106,0.5213,0.5286,0.5296,0.545,0.554,0.5856,0.6196,0.6457,0.6694,0.6817,0.6925,0.6846,0.669,0.6697,0.6408,0.5774,0.5609,0.5359,0.4996,0.4279,0.3287,0.2012,0.0999,-0.0061,-0.1359,-0.2774,-0.3697,-0.4396,-0.4882,-0.5503,-0.5909,-0.6361,-0.6819,-0.728,-0.7757]},{"header":{"parameterUnit":"m.s-1","parameterCategory":1,"la1":31.0,"la2":29.5877,"lo1":-88.7671,"lo2":-86.6584,"dy":0.0162,"dx":0.0185,"nx":115,"ny":88,"refTime":"2023-04-28T12:00:00:Z","depth":0,"parameterNumber":3,"parameterNumberName":"V-component_of_WINDS"},"data":[0.0,0.0,0.0,0.0,0.0,0.0,0.0,0.0,0.0,0.0,0.0,0.0,0.0,0.0,0.0,0.0,0.0,0.0,0.0,0.0,0.0,0.0,0.0,0.0,0.0,0.0,0.0,0.0,0.0,0.0,0.0,0.0,0.0,0.0,0.0,0.0,0.0,0.0,0.0,0.0,0.0,0.0,0.0,0.0,0.0,0.0,0.0,0.0,0.0,0.0,0.0,0.0,0.0,0.0,0.0,0.0,0.0,0.0,0.0,0.0,0.0,0.0,0.0,0.0,0.0,0.0,0.0,0.0,0.0,0.0,0.0,0.0,0.0,0.0,0.0,0.0,0.0,0.0,0.0,0.0,0.0,0.0,0.0,0.0,0.0,0.0,0.0,0.0,0.0,0.0,0.0,0.0,0.0,0.0,0.0,0.0,0.0,0.0,0.0,0.0,0.0,0.0,0.0,0.0,0.0,0.0,0.0,0.0,0.0,0.0,0.0,0.0,0.0,0.0,0.0,0.0,0.0,0.0,0.0,0.0,0.0,0.0,0.0,0.0,0.0,0.0,0.0,0.0,0.0,0.0,0.0,0.0,0.0,0.0,0.0,0.0,0.0,0.0,0.0,0.0,0.0,0.0,0.0,0.0,0.0,0.0,0.0,0.0,0.0,0.0,0.0,0.0,0.0,0.0,0.0,0.0,0.0,0.0,0.0,0.0,0.0,0.0,0.0,0.0,0.0,0.0,0.0,0.0,0.0,0.0,0.0,0.0,0.0,0.0,0.0,0.0,0.0,0.0,0.0,0.0,0.0,0.0,0.0,0.0,0.0,0.0,0.0,0.0,0.0,0.0,0.0,0.0,0.0,0.0,0.0,0.0,0.0,0.0,0.0,0.0,0.0,0.0,0.0,0.0,0.0,0.0,0.0,0.0,0.0,0.0,0.0,0.0,0.0,0.0,0.0,0.0,0.0,0.0,0.0,0.0,0.0,0.0,0.0,0.0,0.0,0.0,0.0,0.0,0.0,0.0,0.0,0.0,0.0,0.0,0.0,0.0,0.0,0.0,0.0,0.0,0.0,0.0,0.0,0.0,0.0,0.0,0.0,0.0,0.0,0.0,0.0,0.0,0.0,0.0,0.0,0.0,0.0,0.0,0.0,0.0,0.0,0.0,0.0,0.0,0.0,0.0,0.0,0.0,0.0,0.0,0.0,0.0,0.0,0.0,0.0,0.0,0.0,0.0,0.0,0.0,0.0,0.0,0.0,0.0,0.0,0.0,0.0,0.0,0.0,0.0,0.0,0.0,0.0,0.0,0.0,0.0,0.0,0.0,0.0,0.0,0.0,0.0,0.0,0.0,0.0,0.0,0.0,0.0,0.0,0.0,0.0,0.0,0.0,0.0,0.0,0.0,0.0,0.0,0.0,0.0,0.0,0.0,0.0,0.0,0.0,0.0,0.0,0.0,0.0,0.0,0.0,0.0,0.0,0.0,0.0,0.0,0.0,0.0,0.0,0.0,0.0,0.0,0.0,0.0,0.0,0.0,0.0,0.0,0.0,0.0,0.0,0.0,0.0,0.0,0.0,0.0,0.0,0.0,0.0,0.0,0.0,0.0,0.0,0.0,0.0,0.0,0.0,0.0,0.0,0.0,0.0,0.0,0.0,0.0,0.0,0.0,0.0,0.0,0.0,0.0,0.0,0.0,0.0,0.0,0.0,0.0,0.0,0.0,0.0,0.0,0.0,0.0,0.0,0.0,0.0,0.0,0.0,0.0,0.0,0.0,0.0,0.0,0.0,0.0,0.0,0.0,0.0,0.0,0.0,0.0,0.0,0.0,0.0,0.0,0.0,0.0,0.0,0.0,0.0,0.0,0.0,0.0,0.0,0.0,0.0,0.0,0.0,0.0,0.0,0.0,0.0,0.0,0.0,0.0,0.0,0.0,0.0,0.0,0.0,0.0,0.0,0.0,0.0,0.0,0.0,0.0,0.0,0.0,0.0,0.0,0.0,0.0,0.0,0.0,0.0,0.0,0.0,0.0,0.0,0.0,0.0,0.0,0.0,0.0,0.0,0.0,0.0,0.0,0.0,0.0,0.0,0.0,0.0,0.0,0.0,0.0,0.0,0.0,0.0,0.0,0.0,0.0,0.0,0.0,0.0,0.0,0.0,0.0,0.0,0.0,0.0,0.0,0.0,0.0,0.0,0.0,0.0,0.0,0.0,0.0,0.0,0.0,0.0,0.0,0.0,0.0,0.0,0.0,0.0,0.0,0.0,0.0,0.0,0.0,0.0,0.0,0.0,0.0,0.0,0.0,0.0,0.0,0.0,0.0,0.0,0.0,0.0,0.0,0.0,0.0,0.0,0.0,0.0,0.0,0.0,0.0,0.0,0.0,0.0,0.0,0.0,0.0,0.0,0.0,0.0,0.0,0.0,0.0,0.0,0.0,0.0,0.0,0.0,0.0,0.0,0.0,0.0,0.0,0.0,0.0,0.0,0.0,0.0,0.0,0.0,0.0,0.0,0.0,0.0,0.0,0.0,0.0,0.0,0.0,0.0,0.0,0.0,0.0,0.0,0.0,0.0,0.0,0.0,0.0,0.0,0.0,0.0,0.0,0.0,0.0,0.0,0.0,0.0,0.0,0.0,0.0,0.0,0.0,0.0,0.0,0.0,0.0,0.0,0.0,0.0,0.0,0.0,0.0,0.0,0.0,0.0,0.0,0.0,0.0,0.0,0.0,0.0,0.0,0.0,0.0,0.0,0.0,0.0,0.0,0.0,0.0,0.0,0.0,0.0,0.0,0.0,0.0,0.0,0.0,0.0,0.0,0.0,0.0,0.0,0.0,0.0,0.0,0.0,0.0,0.0,0.0,0.0,0.0,0.0,0.0,0.0,0.0,0.0,0.0,0.0,0.0,0.0,0.0,0.0,0.0,0.0,0.0,0.0,0.0,0.0,0.0,0.0,0.0,0.0,0.0,0.0,0.0,0.0,0.0,0.0,0.0,0.0,0.0,0.0,0.0,0.0,0.0,0.0,0.0,0.0,0.0,0.0,0.0,0.0,0.0,0.0,0.0,0.0,0.0,0.0,0.0,0.0,0.0,0.0,0.0,0.0,0.0,0.0,0.0,0.0,0.0,0.0,0.0,0.0,0.0,0.0,0.0,0.0,0.0,0.0,0.0,0.0,0.0,0.0,0.0,0.0,0.0,0.0,0.0,0.0,0.0,0.0,0.0,0.0,0.0,0.0,0.0,0.0,0.0,0.0,0.0,0.0,0.0,0.0,0.0,0.0,0.0,0.0,0.0,0.0,0.0,0.0,0.0,0.0,0.0,0.0,0.0,0.0,0.0,0.0,0.0,0.0,0.0,0.0,0.0,0.0,0.0,0.0,0.0,0.0,0.0,0.0,0.0,0.0,0.0,0.0,0.0,0.0,0.0,0.0,0.0,0.0,0.0,0.0,0.0,0.0,0.0,0.0,0.0,0.0,0.0,0.0,0.0,0.0,0.0,0.0,0.0,0.0,0.0,0.0,0.0,0.0,0.0,0.0,0.0,0.0,0.0,0.0,0.0,0.0,0.0,0.0,0.0,0.0,0.0,0.0,0.0,0.0,0.0,0.0,0.0,0.0,0.0,0.0,0.0,0.0,0.0,0.0,0.0,0.0,0.0,0.0,0.0,0.0,0.0,0.0,0.0,0.0,0.0,0.0,0.0,0.0,0.0,0.0,0.0,0.0,0.0,0.0,0.0,0.0,0.0,0.0,0.0,0.0,0.0,0.0,0.0,0.0,0.0,0.0,0.0,0.0,0.0,0.0,0.0,0.0,0.0,0.0,0.0,0.0,0.0,0.0,0.0,0.0,0.0,0.0,0.0,0.0,0.0,0.0,0.0,0.0,0.0,0.0,0.0,0.0,0.0,0.0,0.0,0.0,0.0,0.0,0.0,0.0,0.0,0.0,0.0,0.0,0.0,0.0,0.0,0.0,0.0,0.0,0.0,0.0,0.0,0.0,0.0,0.0,0.0,0.0,0.0,0.0,0.0,0.0,0.0,0.0,0.0,0.0,0.0,0.0,0.0,0.0,0.0,0.0,0.0,0.0,0.0,0.0,0.0,0.0,0.0,0.0,0.0,0.0,0.0,0.0,0.0,0.0,0.0,0.0,0.0,0.0,0.0,0.0,0.0,0.0,0.0,0.0,0.0,0.0,0.0,0.0,0.0,0.0,0.0,0.0,0.0,0.0,0.0,0.0,0.0,0.0,0.0,0.0,0.0,0.0,0.0,0.0,0.0,-3.4904,0.0,0.0,0.0,0.0,0.0,0.0,0.0,0.0,0.0,0.0,0.0,0.0,0.0,0.0,0.0,0.0,0.0,0.0,0.0,0.0,0.0,0.0,0.0,0.0,0.0,0.0,0.0,0.0,0.0,0.0,0.0,0.0,0.0,0.0,0.0,0.0,0.0,0.0,0.0,0.0,0.0,0.0,0.0,0.0,0.0,0.0,0.0,0.0,0.0,0.0,0.0,0.0,0.0,0.0,0.0,0.0,0.0,0.0,0.0,0.0,0.0,0.0,0.0,0.0,0.0,0.0,0.0,0.0,0.0,0.0,0.0,0.0,0.0,0.0,0.0,0.0,0.0,0.0,0.0,0.0,0.0,0.0,0.0,0.0,0.0,0.0,0.0,0.0,0.0,0.0,0.0,0.0,0.0,0.0,0.0,0.0,0.0,0.0,0.0,0.0,0.0,0.0,0.0,0.0,0.0,0.0,0.0,0.0,0.0,0.0,-3.3083,-3.4428,-3.495,-3.5141,-3.5038,0.0,0.0,0.0,0.0,0.0,0.0,0.0,0.0,0.0,0.0,0.0,0.0,0.0,0.0,0.0,0.0,0.0,0.0,0.0,0.0,0.0,0.0,0.0,0.0,0.0,0.0,0.0,0.0,0.0,0.0,0.0,0.0,0.0,0.0,0.0,0.0,0.0,0.0,0.0,0.0,0.0,0.0,0.0,0.0,0.0,0.0,0.0,0.0,0.0,0.0,0.0,0.0,0.0,0.0,0.0,0.0,0.0,0.0,0.0,0.0,0.0,0.0,0.0,0.0,0.0,0.0,0.0,0.0,0.0,0.0,0.0,0.0,0.0,0.0,0.0,0.0,0.0,0.0,0.0,0.0,0.0,0.0,0.0,0.0,0.0,0.0,0.0,0.0,0.0,0.0,0.0,0.0,0.0,0.0,0.0,0.0,0.0,0.0,0.0,0.0,0.0,0.0,0.0,0.0,0.0,0.0,0.0,0.0,0.0,0.0,0.0,0.0,-3.3989,-3.4163,-3.3998,0.0,0.0,0.0,0.0,0.0,0.0,0.0,0.0,0.0,0.0,0.0,0.0,0.0,0.0,0.0,0.0,0.0,0.0,0.0,0.0,0.0,0.0,0.0,0.0,0.0,0.0,0.0,0.0,0.0,0.0,0.0,0.0,0.0,0.0,0.0,0.0,0.0,0.0,0.0,0.0,0.0,0.0,0.0,0.0,0.0,0.0,0.0,0.0,0.0,0.0,0.0,0.0,0.0,0.0,0.0,0.0,0.0,0.0,0.0,0.0,0.0,0.0,0.0,0.0,0.0,0.0,0.0,0.0,0.0,0.0,0.0,0.0,0.0,0.0,0.0,0.0,0.0,0.0,0.0,0.0,0.0,0.0,0.0,0.0,0.0,0.0,0.0,0.0,0.0,0.0,0.0,0.0,0.0,0.0,0.0,0.0,0.0,0.0,0.0,0.0,0.0,0.0,0.0,0.0,0.0,0.0,0.0,0.0,0.0,0.0,-3.2193,-2.8948,-3.0286,0.0,-3.09,0.0,0.0,0.0,0.0,0.0,0.0,0.0,0.0,0.0,0.0,0.0,0.0,0.0,0.0,0.0,0.0,0.0,0.0,0.0,0.0,0.0,0.0,0.0,0.0,0.0,0.0,0.0,0.0,0.0,0.0,0.0,0.0,0.0,0.0,0.0,0.0,0.0,0.0,0.0,0.0,0.0,0.0,0.0,0.0,0.0,0.0,0.0,0.0,0.0,0.0,0.0,0.0,0.0,0.0,0.0,0.0,0.0,0.0,0.0,0.0,0.0,0.0,0.0,0.0,0.0,0.0,0.0,0.0,0.0,0.0,0.0,0.0,0.0,0.0,0.0,0.0,0.0,0.0,0.0,0.0,0.0,0.0,0.0,0.0,0.0,0.0,0.0,0.0,0.0,0.0,0.0,0.0,0.0,0.0,0.0,0.0,0.0,0.0,0.0,0.0,0.0,0.0,0.0,0.0,0.0,0.0,0.0,0.0,0.0,0.0,-3.0733,-2.9704,-3.0275,-3.0627,0.0,0.0,0.0,0.0,0.0,0.0,0.0,0.0,0.0,0.0,0.0,0.0,0.0,0.0,0.0,0.0,0.0,0.0,0.0,0.0,0.0,0.0,0.0,0.0,0.0,0.0,0.0,0.0,0.0,0.0,0.0,0.0,0.0,0.0,0.0,0.0,0.0,0.0,0.0,0.0,0.0,0.0,0.0,0.0,0.0,0.0,0.0,0.0,0.0,0.0,0.0,0.0,0.0,0.0,0.0,0.0,0.0,0.0,0.0,0.0,0.0,0.0,0.0,0.0,0.0,0.0,0.0,0.0,0.0,0.0,0.0,0.0,0.0,0.0,0.0,0.0,0.0,0.0,0.0,0.0,0.0,0.0,0.0,0.0,0.0,0.0,0.0,0.0,0.0,0.0,0.0,0.0,0.0,0.0,0.0,0.0,0.0,0.0,0.0,0.0,0.0,0.0,0.0,0.0,0.0,0.0,0.0,0.0,0.0,0.0,-3.0261,-2.9657,-2.9466,-2.948,-2.9916,-3.0884,0.0,0.0,0.0,0.0,0.0,0.0,0.0,0.0,0.0,0.0,0.0,0.0,0.0,0.0,0.0,0.0,0.0,0.0,0.0,0.0,0.0,0.0,0.0,0.0,0.0,0.0,0.0,0.0,0.0,0.0,0.0,0.0,0.0,0.0,0.0,0.0,0.0,0.0,0.0,0.0,0.0,0.0,0.0,0.0,0.0,0.0,0.0,0.0,0.0,0.0,0.0,0.0,0.0,0.0,0.0,0.0,0.0,0.0,0.0,0.0,0.0,0.0,0.0,0.0,0.0,0.0,0.0,0.0,0.0,0.0,0.0,0.0,0.0,0.0,0.0,0.0,0.0,0.0,0.0,0.0,0.0,0.0,0.0,0.0,0.0,0.0,0.0,0.0,0.0,0.0,0.0,0.0,0.0,0.0,0.0,0.0,0.0,0.0,0.0,0.0,0.0,0.0,0.0,0.0,0.0,0.0,0.0,0.0,-2.5064,-2.8574,-2.9267,-2.653,-2.6648,-2.8099,0.0,0.0,0.0,0.0,0.0,0.0,0.0,0.0,0.0,0.0,0.0,0.0,0.0,0.0,0.0,0.0,0.0,0.0,0.0,0.0,0.0,0.0,0.0,0.0,0.0,0.0,0.0,0.0,0.0,0.0,0.0,0.0,0.0,0.0,0.0,0.0,0.0,0.0,0.0,0.0,0.0,0.0,0.0,0.0,0.0,0.0,0.0,0.0,0.0,0.0,0.0,0.0,0.0,0.0,0.0,0.0,0.0,0.0,0.0,0.0,0.0,0.0,0.0,0.0,0.0,0.0,0.0,0.0,0.0,0.0,0.0,0.0,0.0,0.0,0.0,0.0,0.0,0.0,0.0,0.0,0.0,0.0,0.0,0.0,0.0,0.0,0.0,0.0,0.0,0.0,0.0,0.0,0.0,0.0,0.0,0.0,0.0,0.0,0.0,0.0,0.0,0.0,0.0,0.0,0.0,0.0,0.0,0.0,0.0,-3.152,-3.1036,-2.8727,-2.4602,-2.7575,-2.9042,0.0,0.0,0.0,0.0,0.0,0.0,0.0,0.0,0.0,0.0,0.0,0.0,0.0,0.0,0.0,0.0,0.0,0.0,0.0,0.0,0.0,0.0,0.0,0.0,0.0,0.0,0.0,0.0,0.0,0.0,0.0,0.0,0.0,0.0,0.0,0.0,0.0,0.0,0.0,0.0,0.0,0.0,0.0,0.0,0.0,0.0,0.0,0.0,0.0,0.0,0.0,0.0,0.0,0.0,0.0,0.0,0.0,0.0,0.0,0.0,0.0,0.0,0.0,0.0,0.0,0.0,0.0,0.0,0.0,0.0,0.0,0.0,0.0,0.0,0.0,0.0,0.0,0.0,0.0,0.0,0.0,0.0,0.0,0.0,0.0,0.0,0.0,0.0,0.0,0.0,0.0,0.0,0.0,0.0,0.0,0.0,0.0,0.0,0.0,0.0,0.0,0.0,0.0,0.0,0.0,0.0,0.0,0.0,0.0,-3.2559,0.0,-2.6545,-2.4479,-2.7697,-2.9607,0.0,0.0,0.0,0.0,0.0,0.0,0.0,0.0,0.0,0.0,0.0,0.0,0.0,0.0,0.0,0.0,0.0,0.0,0.0,0.0,0.0,0.0,0.0,0.0,0.0,0.0,0.0,0.0,0.0,0.0,0.0,0.0,0.0,0.0,0.0,0.0,0.0,0.0,0.0,0.0,0.0,0.0,0.0,0.0,0.0,0.0,0.0,0.0,0.0,0.0,0.0,0.0,0.0,0.0,0.0,0.0,0.0,0.0,0.0,0.0,0.0,0.0,0.0,0.0,0.0,0.0,0.0,0.0,0.0,0.0,0.0,0.0,0.0,0.0,0.0,0.0,0.0,0.0,0.0,0.0,0.0,0.0,0.0,0.0,0.0,0.0,0.0,0.0,0.0,0.0,0.0,0.0,0.0,0.0,0.0,0.0,0.0,0.0,0.0,0.0,0.0,0.0,0.0,0.0,0.0,0.0,0.0,0.0,-3.2565,-2.6783,-2.3241,-2.3005,-2.6073,-2.6623,-2.9474,0.0,0.0,0.0,0.0,0.0,0.0,0.0,0.0,0.0,0.0,0.0,0.0,0.0,0.0,0.0,0.0,0.0,0.0,0.0,0.0,0.0,0.0,0.0,0.0,0.0,0.0,0.0,0.0,0.0,0.0,0.0,0.0,0.0,0.0,0.0,0.0,0.0,0.0,0.0,0.0,0.0,0.0,0.0,0.0,0.0,0.0,0.0,0.0,0.0,0.0,0.0,0.0,0.0,0.0,0.0,0.0,0.0,0.0,0.0,0.0,0.0,0.0,0.0,0.0,0.0,0.0,0.0,0.0,0.0,0.0,0.0,0.0,0.0,0.0,0.0,0.0,0.0,0.0,0.0,0.0,0.0,0.0,0.0,0.0,0.0,0.0,0.0,0.0,0.0,0.0,0.0,0.0,0.0,0.0,0.0,0.0,0.0,0.0,0.0,0.0,0.0,0.0,0.0,0.0,0.0,0.0,0.0,0.0,0.0,-3.0558,-2.6466,-2.3748,-2.2921,-2.6435,-2.8178,0.0,0.0,0.0,0.0,0.0,0.0,0.0,0.0,0.0,0.0,0.0,0.0,0.0,0.0,0.0,0.0,0.0,0.0,0.0,0.0,0.0,0.0,0.0,0.0,0.0,0.0,0.0,0.0,0.0,0.0,0.0,0.0,0.0,0.0,0.0,0.0,0.0,0.0,0.0,0.0,0.0,0.0,0.0,0.0,0.0,0.0,0.0,0.0,0.0,0.0,0.0,0.0,0.0,0.0,0.0,0.0,0.0,0.0,0.0,0.0,0.0,0.0,0.0,0.0,0.0,0.0,0.0,0.0,0.0,0.0,0.0,0.0,0.0,0.0,0.0,0.0,0.0,0.0,0.0,0.0,0.0,0.0,0.0,0.0,0.0,0.0,0.0,0.0,0.0,0.0,0.0,0.0,0.0,0.0,0.0,0.0,0.0,0.0,0.0,0.0,0.0,0.0,0.0,0.0,0.0,0.0,0.0,0.0,0.0,-2.7529,-2.3608,-2.102,-2.0133,-2.3874,-2.5797,-2.5745,0.0,0.0,0.0,0.0,0.0,0.0,0.0,0.0,0.0,0.0,0.0,0.0,0.0,0.0,0.0,0.0,0.0,0.0,0.0,0.0,0.0,0.0,0.0,0.0,0.0,0.0,0.0,0.0,0.0,0.0,0.0,0.0,0.0,0.0,0.0,0.0,0.0,0.0,0.0,0.0,0.0,0.0,0.0,0.0,0.0,0.0,0.0,0.0,0.0,0.0,0.0,0.0,0.0,0.0,0.0,0.0,0.0,0.0,0.0,0.0,0.0,0.0,0.0,0.0,0.0,0.0,0.0,0.0,0.0,0.0,0.0,0.0,0.0,0.0,0.0,0.0,0.0,0.0,0.0,0.0,0.0,0.0,0.0,0.0,0.0,0.0,0.0,0.0,0.0,0.0,0.0,0.0,0.0,0.0,0.0,0.0,0.0,0.0,0.0,0.0,0.0,0.0,0.0,0.0,0.0,0.0,0.0,0.0,-1.9344,-1.5768,-1.5247,-1.7872,-1.9366,-2.2501,0.0,0.0,0.0,0.0,0.0,0.0,0.0,0.0,0.0,0.0,0.0,0.0,0.0,0.0,0.0,0.0,0.0,0.0,0.0,0.0,0.0,0.0,0.0,0.0,0.0,0.0,0.0,0.0,0.0,0.0,0.0,0.0,0.0,0.0,0.0,0.0,0.0,0.0,0.0,0.0,0.0,0.0,0.0,0.0,0.0,0.0,0.0,0.0,0.0,0.0,0.0,0.0,0.0,0.0,0.0,0.0,0.0,0.0,0.0,0.0,0.0,0.0,0.0,0.0,0.0,0.0,0.0,0.0,0.0,0.0,0.0,0.0,0.0,0.0,0.0,0.0,0.0,0.0,0.0,0.0,0.0,0.0,0.0,0.0,0.0,0.0,0.0,0.0,0.0,0.0,0.0,0.0,0.0,0.0,0.0,0.0,0.0,0.0,0.0,0.0,0.0,0.0,0.0,0.0,0.0,0.0,0.0,0.0,0.0,-1.5708,-1.2286,-1.0916,-1.1821,-1.5574,-1.9178,0.0,0.0,0.0,0.0,0.0,0.0,0.0,0.0,0.0,0.0,0.0,0.0,0.0,0.0,0.0,0.0,0.0,0.0,0.0,0.0,0.0,0.0,0.0,0.0,0.0,0.0,0.0,0.0,0.0,0.0,0.0,0.0,0.0,0.0,0.0,0.0,0.0,0.0,0.0,0.0,0.0,0.0,0.0,0.0,0.0,0.0,0.0,0.0,0.0,0.0,0.0,0.0,0.0,0.0,0.0,0.0,0.0,0.0,0.0,0.0,0.0,0.0,0.0,0.0,0.0,0.0,0.0,0.0,0.0,0.0,0.0,0.0,0.0,0.0,0.0,0.0,0.0,0.0,0.0,0.0,0.0,0.0,0.0,0.0,0.0,0.0,0.0,0.0,0.0,0.0,0.0,0.0,0.0,0.0,0.0,0.0,0.0,0.0,0.0,0.0,0.0,0.0,0.0,0.0,0.0,0.0,0.0,0.0,-1.8753,-1.3077,-0.9789,-0.8184,-0.8234,-1.2258,-1.6471,0.0,0.0,0.0,0.0,0.0,0.0,0.0,0.0,0.0,0.0,0.0,0.0,0.0,0.0,0.0,0.0,0.0,0.0,0.0,0.0,0.0,0.0,0.0,0.0,0.0,0.0,0.0,0.0,0.0,0.0,0.0,0.0,0.0,0.0,0.0,0.0,0.0,0.0,0.0,0.0,0.0,0.0,0.0,0.0,0.0,0.0,0.0,0.0,0.0,0.0,0.0,0.0,0.0,0.0,0.0,0.0,0.0,0.0,0.0,0.0,0.0,0.0,0.0,0.0,0.0,0.0,0.0,0.0,0.0,0.0,0.0,0.0,0.0,0.0,0.0,0.0,0.0,0.0,0.0,0.0,0.0,0.0,0.0,0.0,0.0,0.0,0.0,0.0,0.0,0.0,0.0,0.0,0.0,0.0,0.0,0.0,0.0,0.0,0.0,0.0,0.0,0.0,0.0,0.0,0.0,0.0,0.0,0.0,-1.6998,-1.1178,-0.8111,-0.6634,-0.6883,-0.9849,-1.4455,0.0,0.0,0.0,0.0,0.0,0.0,0.0,0.0,0.0,0.0,0.0,0.0,0.0,0.0,0.0,0.0,0.0,0.0,0.0,0.0,0.0,0.0,0.0,0.0,0.0,0.0,0.0,0.0,0.0,0.0,0.0,0.0,0.0,0.0,0.0,0.0,0.0,0.0,0.0,0.0,0.0,0.0,0.0,0.0,0.0,0.0,0.0,0.0,0.0,0.0,0.0,0.0,0.0,0.0,0.0,0.0,0.0,0.0,0.0,0.0,0.0,0.0,0.0,0.0,0.0,0.0,0.0,0.0,0.0,0.0,0.0,0.0,0.0,0.0,0.0,0.0,0.0,0.0,0.0,0.0,0.0,0.0,0.0,0.0,0.0,0.0,0.0,0.0,0.0,0.0,0.0,0.0,0.0,0.0,0.0,0.0,0.0,0.0,0.0,0.0,0.0,0.0,0.0,0.0,0.0,0.0,0.0,0.0,-1.3598,-0.9442,-0.7047,-0.6384,-0.75,-1.0489,-1.469,0.0,0.0,0.0,0.0,0.0,0.0,0.0,0.0,0.0,0.0,0.0,0.0,0.0,0.0,0.0,0.0,0.0,0.0,0.0,0.0,0.0,0.0,0.0,0.0,0.0,0.0,0.0,0.0,0.0,0.0,0.0,0.0,0.0,0.0,0.0,0.0,0.0,0.0,0.0,0.0,0.0,0.0,0.0,0.0,0.0,0.0,0.0,0.0,-2.8469,0.0,0.0,0.0,0.0,0.0,0.0,0.0,0.0,0.0,0.0,0.0,0.0,0.0,0.0,0.0,0.0,0.0,0.0,0.0,0.0,0.0,0.0,0.0,0.0,0.0,0.0,0.0,0.0,0.0,0.0,0.0,0.0,0.0,0.0,0.0,0.0,0.0,0.0,0.0,0.0,0.0,0.0,0.0,0.0,0.0,0.0,0.0,0.0,0.0,0.0,0.0,0.0,0.0,0.0,0.0,0.0,0.0,0.0,0.0,-1.1895,-0.7925,-0.622,-0.5984,-0.7346,-1.103,-1.5335,0.0,0.0,0.0,0.0,0.0,0.0,0.0,0.0,0.0,0.0,0.0,0.0,0.0,0.0,0.0,0.0,0.0,0.0,0.0,0.0,0.0,0.0,0.0,0.0,0.0,0.0,0.0,0.0,0.0,0.0,0.0,0.0,0.0,0.0,0.0,0.0,0.0,0.0,0.0,0.0,0.0,0.0,0.0,0.0,0.0,0.0,0.0,0.0,0.0,0.0,0.0,0.0,0.0,0.0,0.0,0.0,0.0,0.0,0.0,0.0,0.0,0.0,0.0,0.0,0.0,0.0,0.0,0.0,0.0,0.0,0.0,0.0,0.0,0.0,0.0,0.0,0.0,0.0,0.0,0.0,0.0,0.0,0.0,0.0,0.0,0.0,0.0,0.0,0.0,0.0,0.0,0.0,0.0,0.0,0.0,0.0,0.0,0.0,0.0,0.0,0.0,0.0,0.0,0.0,0.0,0.0,0.0,-1.5949,-1.0994,-0.6494,-0.5547,-0.575,-0.7175,-1.1596,-1.6254,-2.1011,0.0,0.0,0.0,0.0,0.0,0.0,0.0,0.0,0.0,0.0,0.0,0.0,0.0,0.0,0.0,0.0,0.0,0.0,0.0,0.0,0.0,0.0,0.0,0.0,0.0,0.0,0.0,0.0,0.0,0.0,0.0,0.0,0.0,0.0,0.0,0.0,0.0,0.0,-3.5762,-3.4305,0.0,0.0,0.0,0.0,0.0,0.0,0.0,0.0,-2.3491,0.0,0.0,0.0,0.0,0.0,0.0,0.0,0.0,0.0,0.0,0.0,0.0,0.0,0.0,0.0,0.0,0.0,0.0,0.0,0.0,0.0,0.0,0.0,0.0,0.0,0.0,0.0,0.0,0.0,0.0,0.0,0.0,0.0,0.0,0.0,0.0,0.0,0.0,0.0,0.0,0.0,0.0,0.0,0.0,0.0,0.0,0.0,0.0,0.0,0.0,0.0,0.0,0.0,0.0,0.0,0.0,-1.7832,-1.4366,-1.0152,-0.5152,-0.488,-0.5856,-0.8172,-1.252,-1.7135,-2.1795,0.0,0.0,0.0,0.0,0.0,0.0,0.0,0.0,0.0,0.0,0.0,0.0,0.0,0.0,0.0,0.0,0.0,0.0,0.0,0.0,0.0,0.0,0.0,0.0,0.0,0.0,0.0,0.0,0.0,0.0,0.0,0.0,0.0,0.0,0.0,0.0,0.0,0.0,0.0,-3.0836,-2.9198,0.0,0.0,0.0,0.0,0.0,0.0,0.0,0.0,-2.2167,0.0,0.0,0.0,0.0,0.0,0.0,0.0,0.0,0.0,0.0,0.0,0.0,0.0,0.0,0.0,0.0,0.0,0.0,0.0,0.0,0.0,0.0,0.0,0.0,0.0,0.0,0.0,0.0,0.0,0.0,0.0,0.0,0.0,0.0,0.0,0.0,0.0,0.0,0.0,0.0,0.0,0.0,0.0,0.0,0.0,0.0,0.0,0.0,0.0,0.0,0.0,0.0,0.0,0.0,0.0,-1.7093,-1.2292,-0.7828,-0.371,-0.3998,-0.5471,-0.8117,-1.326,-1.7957,0.0,0.0,0.0,0.0,0.0,0.0,0.0,0.0,0.0,0.0,0.0,0.0,0.0,0.0,0.0,0.0,0.0,0.0,0.0,0.0,0.0,0.0,0.0,0.0,0.0,0.0,0.0,0.0,0.0,0.0,0.0,0.0,0.0,0.0,0.0,0.0,0.0,0.0,0.0,0.0,-3.0261,-2.792,-2.5864,0.0,0.0,0.0,0.0,0.0,0.0,-1.6599,-1.8618,0.0,0.0,0.0,0.0,0.0,0.0,0.0,0.0,0.0,0.0,0.0,0.0,0.0,0.0,0.0,0.0,0.0,0.0,0.0,0.0,0.0,0.0,0.0,0.0,0.0,0.0,0.0,0.0,0.0,0.0,0.0,0.0,0.0,0.0,0.0,0.0,0.0,0.0,0.0,0.0,0.0,0.0,0.0,0.0,0.0,0.0,0.0,0.0,0.0,0.0,0.0,0.0,0.0,0.0,0.0,-1.7045,-1.0962,-0.6128,-0.2631,-0.3414,-0.5292,-0.8112,-1.3719,-1.8498,0.0,0.0,0.0,0.0,0.0,0.0,0.0,0.0,0.0,0.0,0.0,0.0,0.0,0.0,0.0,0.0,0.0,0.0,0.0,0.0,0.0,0.0,0.0,0.0,0.0,0.0,0.0,0.0,0.0,0.0,0.0,0.0,0.0,0.0,0.0,0.0,0.0,0.0,0.0,0.0,0.0,-2.6038,-2.2802,-2.0937,0.0,0.0,0.0,0.0,-1.0965,-1.2641,0.0,0.0,0.0,0.0,0.0,0.0,0.0,0.0,0.0,0.0,0.0,0.0,0.0,0.0,0.0,0.0,0.0,0.0,0.0,0.0,0.0,0.0,0.0,0.0,0.0,0.0,0.0,0.0,0.0,0.0,0.0,0.0,0.0,0.0,0.0,0.0,0.0,0.0,0.0,0.0,0.0,0.0,0.0,0.0,0.0,0.0,0.0,0.0,0.0,0.0,0.0,0.0,0.0,0.0,0.0,0.0,-1.7636,-1.2007,-0.6966,-0.2707,-0.3549,-0.5798,-0.9207,-1.3729,-1.8339,0.0,0.0,0.0,0.0,0.0,0.0,0.0,0.0,0.0,0.0,0.0,0.0,0.0,0.0,0.0,0.0,0.0,0.0,0.0,0.0,0.0,0.0,0.0,0.0,0.0,0.0,0.0,0.0,0.0,0.0,0.0,0.0,0.0,0.0,0.0,0.0,0.0,0.0,0.0,0.0,0.0,-2.0462,-1.8913,-1.6337,-1.3509,0.0,0.0,-0.917,-0.5411,-0.7749,0.0,0.0,0.0,0.0,0.0,0.0,0.0,0.0,0.0,0.0,0.0,0.0,0.0,0.0,0.0,0.0,0.0,0.0,0.0,0.0,0.0,0.0,0.0,0.0,0.0,0.0,0.0,0.0,0.0,0.0,0.0,0.0,0.0,0.0,0.0,0.0,0.0,0.0,0.0,0.0,0.0,0.0,0.0,0.0,0.0,0.0,0.0,0.0,0.0,0.0,0.0,0.0,0.0,0.0,0.0,-2.2758,-1.5184,-0.9805,-0.5313,-0.176,-0.34,-0.6177,-1.0003,-1.451,-1.9002,0.0,0.0,0.0,0.0,0.0,0.0,0.0,0.0,0.0,0.0,0.0,0.0,0.0,0.0,0.0,0.0,0.0,0.0,0.0,0.0,0.0,0.0,0.0,0.0,0.0,0.0,0.0,0.0,0.0,0.0,0.0,0.0,0.0,0.0,0.0,0.0,0.0,0.0,0.0,0.0,0.0,0.0,-1.5345,-1.244,0.0,0.0,0.0,-0.6222,-0.4575,0.0,0.0,0.0,0.0,0.0,0.0,0.0,0.0,0.0,0.0,0.0,0.0,0.0,0.0,0.0,0.0,0.0,0.0,0.0,0.0,0.0,0.0,0.0,0.0,0.0,0.0,0.0,0.0,0.0,0.0,0.0,0.0,0.0,0.0,0.0,0.0,0.0,0.0,0.0,0.0,0.0,0.0,0.0,0.0,0.0,0.0,0.0,0.0,0.0,0.0,0.0,0.0,0.0,0.0,0.0,0.0,0.0,-1.3326,-0.8151,-0.4145,-0.1511,-0.3746,-0.6863,-1.0853,-1.5235,0.0,0.0,0.0,0.0,0.0,0.0,0.0,0.0,0.0,0.0,0.0,0.0,0.0,0.0,0.0,0.0,0.0,0.0,0.0,0.0,0.0,0.0,0.0,0.0,0.0,0.0,0.0,-4.3142,0.0,0.0,0.0,0.0,0.0,0.0,0.0,0.0,0.0,0.0,0.0,0.0,0.0,0.0,-1.6456,-1.2373,-0.9055,-0.65,0.0,0.0,-0.4059,-0.4198,-0.5017,-0.6539,0.0,0.0,0.0,0.0,0.0,0.0,0.0,0.0,0.0,0.0,0.0,0.0,0.0,0.0,0.0,0.0,0.0,0.0,0.0,0.0,0.0,0.0,0.0,0.0,0.0,0.0,0.0,0.0,0.0,0.0,0.0,0.0,0.0,0.0,0.0,0.0,0.0,0.0,0.0,0.0,0.0,0.0,0.0,0.0,0.0,0.0,0.0,0.0,0.0,0.0,0.0,0.0,0.0,0.0,-1.9739,-1.3666,-0.8442,-0.4767,-0.2758,-0.4986,-0.8179,-1.2069,-1.5584,-1.9198,0.0,0.0,0.0,0.0,0.0,0.0,0.0,0.0,0.0,0.0,0.0,0.0,0.0,0.0,0.0,0.0,0.0,0.0,0.0,0.0,0.0,0.0,0.0,0.0,0.0,0.0,0.0,0.0,0.0,0.0,0.0,0.0,0.0,0.0,0.0,0.0,0.0,0.0,0.0,0.0,0.0,-1.3365,-1.0599,-0.6498,-0.3426,0.0,-0.246,-0.257,-0.2792,-0.3535,-0.5079,-0.7638,0.0,0.0,0.0,0.0,0.0,0.0,0.0,0.0,0.0,0.0,0.0,0.0,0.0,0.0,0.0,0.0,0.0,0.0,0.0,0.0,0.0,0.0,0.0,0.0,0.0,0.0,0.0,0.0,0.0,0.0,0.0,0.0,0.0,0.0,0.0,0.0,0.0,0.0,0.0,0.0,0.0,0.0,0.0,0.0,0.0,0.0,0.0,0.0,0.0,0.0,0.0,0.0,0.0,-1.9387,-1.3131,-0.9544,-0.661,-0.4511,-0.7499,-1.0924,-1.4522,-1.6851,-1.9873,0.0,0.0,0.0,0.0,0.0,0.0,0.0,0.0,0.0,0.0,0.0,0.0,0.0,0.0,0.0,0.0,0.0,0.0,0.0,0.0,0.0,0.0,0.0,0.0,0.0,0.0,0.0,0.0,-4.3041,-4.2125,-4.0233,0.0,0.0,0.0,0.0,0.0,0.0,0.0,0.0,0.0,0.0,-1.1354,-0.8295,-0.534,0.0,0.0,-0.2115,-0.2234,-0.3108,-0.392,-0.4968,-0.6667,-0.7797,0.0,0.0,0.0,0.0,0.0,0.0,0.0,0.0,0.0,0.0,0.0,0.0,0.0,0.0,0.0,0.0,0.0,0.0,0.0,0.0,0.0,0.0,0.0,0.0,0.0,0.0,0.0,0.0,0.0,0.0,0.0,0.0,0.0,0.0,0.0,0.0,0.0,0.0,0.0,0.0,0.0,0.0,0.0,0.0,0.0,0.0,0.0,0.0,0.0,0.0,0.0,0.0,-1.9954,-1.399,-1.176,-0.9547,-0.7323,-1.0651,-1.3837,-1.6773,-1.8496,-2.0925,0.0,0.0,0.0,0.0,0.0,0.0,0.0,0.0,0.0,0.0,0.0,0.0,0.0,0.0,0.0,0.0,0.0,0.0,0.0,0.0,0.0,0.0,0.0,0.0,0.0,0.0,0.0,0.0,-4.3864,-4.273,-4.1038,0.0,0.0,0.0,0.0,0.0,0.0,0.0,0.0,0.0,0.0,-1.0297,-0.7111,-0.4685,-0.3181,-0.2626,-0.2123,-0.2149,-0.3369,-0.3974,-0.4725,-0.6074,0.0,0.0,0.0,0.0,0.0,0.0,0.0,0.0,0.0,0.0,0.0,0.0,0.0,0.0,0.0,0.0,0.0,0.0,0.0,0.0,0.0,0.0,0.0,0.0,0.0,0.0,0.0,-3.8252,0.0,0.0,-3.9536,0.0,0.0,0.0,0.0,0.0,0.0,0.0,0.0,0.0,0.0,0.0,0.0,0.0,0.0,0.0,0.0,0.0,0.0,0.0,0.0,0.0,0.0,-2.1451,-1.6677,-1.5104,-1.3518,-1.1927,-1.4462,-1.6839,-1.8843,-2.0533,-2.2364,-2.4297,0.0,0.0,0.0,0.0,0.0,0.0,0.0,0.0,0.0,0.0,0.0,0.0,0.0,0.0,0.0,0.0,0.0,0.0,0.0,0.0,0.0,0.0,0.0,0.0,0.0,0.0,-4.4577,-4.275,-4.1245,0.0,0.0,0.0,0.0,0.0,0.0,0.0,0.0,0.0,-1.89,-1.4216,-1.0316,-0.737,-0.4611,-0.2834,-0.2539,-0.2284,-0.2425,-0.3203,-0.3409,-0.398,0.0,0.0,0.0,0.0,0.0,0.0,0.0,0.0,0.0,0.0,0.0,0.0,0.0,0.0,0.0,0.0,0.0,0.0,0.0,0.0,0.0,0.0,0.0,0.0,0.0,0.0,0.0,-3.3409,-3.381,0.0,0.0,0.0,0.0,0.0,0.0,0.0,0.0,0.0,0.0,0.0,-1.1043,-1.0053,0.0,0.0,0.0,0.0,0.0,0.0,0.0,0.0,0.0,0.0,0.0,0.0,-2.2576,-1.925,-1.8281,-1.7433,-1.6565,-1.8765,-2.0606,-2.1906,-2.2775,-2.4104,-2.5967,0.0,0.0,0.0,0.0,0.0,0.0,0.0,0.0,0.0,0.0,0.0,0.0,0.0,0.0,0.0,0.0,0.0,0.0,0.0,0.0,0.0,0.0,0.0,0.0,0.0,-4.5381,0.0,0.0,0.0,0.0,0.0,0.0,0.0,0.0,0.0,0.0,0.0,-2.3367,-1.9188,-1.4739,-1.1007,-0.8314,-0.555,-0.3559,0.0,0.0,0.0,0.0,0.0,0.0,0.0,0.0,0.0,0.0,0.0,0.0,0.0,0.0,-0.3193,-0.5845,-0.7192,-0.8246,-0.9214,0.0,0.0,0.0,0.0,0.0,0.0,0.0,0.0,0.0,0.0,0.0,0.0,0.0,0.0,-2.9298,-2.9609,-2.9397,0.0,0.0,0.0,0.0,0.0,0.0,0.0,0.0,-1.0697,-0.8628,-0.8399,-0.7586,-0.8458,0.0,-1.2283,-1.5508,0.0,0.0,0.0,0.0,0.0,0.0,0.0,0.0,-2.4014,-2.1642,-2.1586,-2.1332,-2.0767,-2.2514,-2.3679,-2.4243,-2.4455,-2.5154,-2.6268,-2.7456,-2.8464,0.0,0.0,0.0,0.0,0.0,0.0,0.0,0.0,0.0,0.0,0.0,0.0,0.0,0.0,0.0,0.0,0.0,0.0,0.0,0.0,0.0,0.0,0.0,-4.5093,0.0,0.0,0.0,0.0,0.0,0.0,0.0,0.0,0.0,-3.0234,-2.6943,-2.3624,-2.0272,-1.6021,-1.2242,-0.9761,0.0,0.0,0.0,0.0,0.0,0.0,0.0,-0.2801,-0.3574,-0.3863,-0.395,-0.3573,-0.2424,-0.1472,-0.1584,0.0,0.0,-0.3789,-0.5336,-0.6537,-0.7163,-0.7832,-0.837,-0.8763,-0.8756,-0.872,0.0,0.0,0.0,0.0,0.0,0.0,0.0,0.0,-2.6876,-2.5745,0.0,-2.5383,0.0,0.0,0.0,0.0,-2.4462,-2.0146,0.0,0.0,-0.8506,-0.6678,-0.6783,-0.6298,-0.7407,-0.9878,-1.0094,-1.2407,-1.6658,-1.9506,0.0,0.0,0.0,0.0,0.0,0.0,-2.5681,-2.4106,-2.4946,-2.5078,-2.4376,-2.5599,-2.6125,-2.571,-2.5628,-2.5544,-2.5341,-2.7126,-2.8063,-2.8039,-3.047,0.0,0.0,0.0,0.0,0.0,0.0,0.0,0.0,0.0,0.0,0.0,0.0,0.0,0.0,0.0,0.0,0.0,0.0,0.0,0.0,-4.519,0.0,0.0,0.0,0.0,0.0,0.0,0.0,0.0,0.0,0.0,-2.9578,-2.7257,-2.4836,-2.2058,0.0,0.0,0.0,0.0,-0.3957,-0.2035,-0.1569,-0.1447,-0.1277,-0.1712,-0.2323,-0.2949,0.0,0.0,-0.2407,-0.1572,-0.1029,-0.1622,-0.1362,-0.11,-0.1161,-0.2825,-0.4261,-0.4797,-0.6222,-0.7168,-0.6936,-0.7051,-0.6983,-2.7199,0.0,0.0,0.0,0.0,-2.8275,-2.6145,-2.3237,-2.1718,-2.104,-2.1021,-2.1337,0.0,0.0,0.0,0.0,0.0,0.0,-1.586,-1.2533,-0.9713,-0.8264,-0.7844,-0.7523,-0.8242,-0.994,-1.103,-1.2934,-1.5532,-1.7704,-2.0547,-2.386,0.0,0.0,0.0,0.0,-2.6966,-2.6962,-2.7575,-2.8048,-2.8368,-2.88,-2.8475,-2.746,-2.7504,-2.7195,-2.6453,-2.7453,-2.7932,-2.7758,-2.9791,0.0,0.0,0.0,0.0,0.0,0.0,0.0,0.0,0.0,0.0,0.0,0.0,0.0,0.0,0.0,0.0,0.0,0.0,0.0,-4.3512,-4.4573,-4.4328,0.0,0.0,0.0,0.0,0.0,0.0,0.0,0.0,0.0,-3.2623,-2.915,-2.5753,0.0,0.0,-1.5409,-1.2144,-0.8329,-0.5244,-0.3537,-0.2232,0.0,-0.1987,-0.2023,-0.2244,-0.3103,-0.2703,-0.2223,-0.2185,-0.1488,-0.105,-0.1399,-0.1478,-0.1624,-0.1897,-0.2737,-0.3701,-0.4252,-0.5245,-0.6088,-0.6375,-0.6456,-0.6511,-2.129,-2.4137,-2.5744,-2.5971,-2.5246,-2.4718,-2.327,-2.1047,-1.988,-1.9523,-1.9581,-1.9431,-2.0981,-2.3654,-2.4192,0.0,0.0,0.0,-1.6597,-1.348,-1.1408,-0.9995,-0.9176,-0.8704,-0.9034,-1.0211,-1.1273,-1.2931,-1.4953,-1.6546,-1.9077,-2.2338,0.0,-2.4696,-2.6267,-2.6716,-2.7394,-2.8222,-2.9001,-2.9832,-3.0734,-3.0647,-3.0369,-2.9911,-2.8952,-2.826,-2.7943,-2.8149,-2.8249,-2.8207,-2.9634,-3.0644,0.0,0.0,0.0,0.0,0.0,0.0,0.0,0.0,0.0,0.0,0.0,-4.2758,-4.2049,0.0,0.0,0.0,-4.2853,-4.2977,-4.3102,-4.3932,0.0,0.0,0.0,0.0,0.0,0.0,0.0,-3.7119,-3.6192,-3.5226,-3.4337,-3.1033,-2.7839,-2.5602,-2.1306,-1.7253,-1.3896,0.0,-0.6262,-0.4347,-0.2884,-0.2074,-0.2556,-0.255,-0.2736,-0.3343,-0.297,-0.2509,-0.2388,-0.1866,-0.1517,-0.1603,-0.1924,-0.2281,-0.2388,-0.3198,-0.3932,-0.4134,-0.4719,-0.5418,-0.5978,-0.6199,-0.6248,-1.6226,-1.6799,-2.089,-2.2473,-2.2216,-2.2069,-2.1889,-2.1611,-2.0459,-2.0235,-2.0477,-1.9413,-2.0381,-2.3033,-2.4016,0.0,-2.0917,-2.0066,-1.8079,-1.5095,-1.3272,-1.1847,-1.077,-0.9775,-0.9769,-1.0598,-1.1119,-1.2565,-1.4714,-1.5946,-1.7889,-2.0395,-2.1602,-2.2983,-2.4462,-2.5897,-2.7213,-2.8465,-2.9631,-3.0749,-3.1868,-3.1748,-3.1925,-3.2512,-3.0206,-2.9142,-2.949,-2.9062,-2.8864,-2.8981,-2.9687,-3.0457,-3.122,0.0,0.0,0.0,0.0,0.0,0.0,0.0,0.0,0.0,0.0,0.0,0.0,0.0,0.0,0.0,-4.1814,0.0,-4.3247,-4.3353,0.0,0.0,0.0,-4.1288,-4.0059,-3.9468,-3.887,-3.8304,0.0,0.0,-3.52,-3.275,-3.0557,-2.9102,-2.3881,-1.9168,-1.6188,-1.1457,-0.7389,-0.5124,-0.3707,-0.2983,-0.3228,-0.3346,-0.3488,-0.3581,-0.3176,-0.2832,-0.2799,-0.2483,-0.2221,-0.2261,-0.2651,-0.2984,-0.2783,-0.397,-0.4833,-0.4509,-0.4897,-0.5352,-0.5705,-0.6059,-0.6201,-1.4117,-1.4469,-1.6545,-1.836,-1.9795,-1.992,-2.0188,-2.0598,-2.0382,-2.0301,-2.057,-2.1005,-2.216,-2.3946,-2.4625,-2.4223,-2.2917,-2.1807,-1.9892,-1.7423,-1.5005,-1.3301,-1.223,-1.0992,-1.0704,-1.1274,-1.2034,-1.2951,-1.4138,-1.5583,-1.7106,-1.8719,-2.0009,-2.2138,-2.5099,-2.5965,-2.7335,-2.9205,-2.98,-3.1024,-3.2929,-3.4071,-3.4129,-3.3057,-3.2919,-3.1902,-3.0004,-2.9863,-2.9257,-2.8048,-2.8646,-2.9083,-2.9162,-3.1453,0.0,0.0,0.0,0.0,0.0,0.0,0.0,0.0,0.0,-4.2894,-4.1499,0.0,-4.2453,0.0,-4.2679,-4.2828,-4.1857,-4.2915,0.0,0.0,-4.167,-4.1407,-4.103,-4.0143,-3.9283,-3.87,-3.7673,-3.6832,-3.6384,-3.3771,-3.1536,-3.0024,-2.5249,-2.0332,-1.6395,-1.3075,-0.9929,-0.7275,-0.5687,-0.4846,-0.4728,-0.4678,-0.4447,-0.4049,-0.3569,-0.3145,-0.2866,-0.2642,-0.2561,-0.2987,-0.3015,-0.3291,-0.4122,-0.4755,-0.5424,-0.605,-0.6256,-0.6223,-0.6108,-0.6397,-0.6452,-1.3042,-1.3336,-1.464,-1.6228,-1.7931,-1.91,-2.0135,-2.0879,-2.156,-2.2097,-2.2694,-2.367,-2.4568,-2.5374,-2.6119,-2.5899,-2.4926,-2.4146,-2.2623,-2.038,-1.8017,-1.6104,-1.4556,-1.2854,-1.1966,-1.1776,-1.2321,-1.309,-1.4111,-1.5552,-1.7138,-1.8767,-2.0034,-2.1887,-2.4269,-2.5258,-2.6626,-2.8387,-3.0281,-3.1911,-3.3399,-3.4811,-3.5218,-3.4626,-3.4773,-3.4245,-3.2894,-3.2623,-3.1718,-3.0069,-3.0317,-3.0612,-3.0821,-3.2696,-3.4292,0.0,0.0,0.0,0.0,0.0,0.0,0.0,0.0,0.0,0.0,0.0,-4.2382,-4.2211,-4.2665,-4.2703,-4.1973,-4.2667,-4.2928,-4.2376,-4.2126,-4.1831,-4.1462,-4.0736,-4.0046,-3.9373,-3.8256,-3.7226,-3.6547,-3.4321,-3.2122,-3.0493,-2.6845,-2.2618,-1.8341,-1.5203,-1.2557,-1.0078,-0.8263,-0.6883,-0.6325,-0.5864,-0.5535,-0.5237,-0.4804,-0.4367,-0.4128,-0.3921,-0.3822,-0.3946,-0.4089,-0.4308,-0.5104,-0.5695,-0.6392,-0.7012,-0.75,-0.7505,-0.7001,-0.6841,-0.6584,-1.2298,-1.2599,-1.3878,-1.5044,-1.6286,-1.8857,-2.0569,-2.1748,-2.3133,-2.4372,-2.5538,-2.6494,-2.7071,-2.7176,-2.7901,-2.7741,-2.688,-2.6635,-2.5438,-2.3248,-2.1323,-1.9253,-1.7052,-1.4975,-1.3435,-1.2366,-1.26,-1.3268,-1.4369,-1.5719,-1.7483,-1.9501,-2.0592,-2.1707,-2.2868,-2.4186,-2.5654,-2.7292,-3.083,-3.2904,-3.3511,-3.472,-3.5706,-3.6307,-3.6072,-3.6084,-3.6402,-3.5882,-3.4889,-3.3441,-3.3251,-3.3485,-3.405,-3.5071,-3.6515,0.0,-4.0349,0.0,0.0,0.0,0.0,0.0,0.0,0.0,0.0,-4.2835,-4.2739,-4.2523,-4.2399,-4.241,-4.2632,-4.2459,-4.2426,-4.2745,-4.2623,-4.2284,-4.1604,-4.1167,-4.0739,-4.0008,-3.8631,-3.7344,-3.6303,-3.451,-3.2527,-3.0498,-2.8155,-2.5028,-2.1066,-1.7762,-1.4989,-1.291,-1.0761,-0.8831,-0.7789,-0.7061,-0.6686,-0.6681,-0.618,-0.587,-0.5693,-0.5507,-0.5306,-0.5024,-0.5394,-0.5805,-0.593,-0.6809,-0.7594,-0.7986,-0.869,-0.8868,-0.7892,-0.7276,-0.6622,-1.0289,-1.0855,-1.1959,-1.3191,-1.4698,-1.7229,-1.9652,-2.1958,-2.3046,-2.4807,-2.6846,-2.7568,-2.8231,-2.8922,-2.9113,-2.8924,-2.8412,-2.7722,-2.6422,-2.4582,-2.284,-2.0898,-1.8778,-1.6945,-1.5284,-1.382,-1.409,-1.4354,-1.457,-1.5909,-1.7447,-1.9159,-1.9905,-2.0863,-2.2132,0.0,0.0,0.0,-3.1249,-3.2847,-3.3104,-3.4957,-3.6205,-3.669,-3.6946,0.0,-3.6654,-3.6487,-3.618,-3.5756,-3.5508,0.0,0.0,0.0,0.0,0.0,0.0,0.0,0.0,0.0,0.0,0.0,-4.3998,-4.3337,-4.3107,-4.332,-4.3376,-4.3088,-4.3131,-4.2808,-4.2003,-4.1965,-4.2139,-4.2409,-4.2036,-4.1771,-4.1866,-4.1075,-4.0277,-3.9657,-3.8463,-3.7244,-3.6052,-3.4285,-3.254,-3.0811,-2.8574,-2.6099,-2.3327,-1.9747,-1.6612,-1.4221,-1.1857,-1.0074,-0.9205,-0.8506,-0.793,-0.7631,-0.7138,-0.6643,-0.6328,-0.6145,-0.6075,-0.6035,-0.6258,-0.6601,-0.7236,-0.8383,-0.9213,-0.9447,-1.0021,-0.9953,-0.8169,-0.7644,-0.7168,-0.9461,-1.0293,-1.1101,-1.2289,0.0,-1.6036,-1.8347,-2.0666,-2.2513,-2.4778,-2.7355,-2.8234,-2.9085,-2.9768,-2.9444,-2.9374,-2.9406,-2.8418,-2.7468,-2.6442,-2.4819,-2.302,-2.0969,-1.9432,-1.7437,-1.5253,-1.5521,-1.548,-1.5274,-1.6519,-1.801,-1.9637,-2.0315,-2.1213,-2.2415,-2.3708,-2.5685,-2.8375,-3.0032,-3.1293,-3.2246,-3.4144,-3.5324,-3.5728,-3.7173,0.0,0.0,0.0,0.0,0.0,0.0,0.0,0.0,-3.9604,0.0,-4.1705,-4.3362,-4.4346,-4.4473,-4.4856,-4.526,-4.5498,-4.4693,-4.3966,-4.3598,-4.3366,-4.3291,-4.3322,-4.2978,-4.2584,-4.212,-4.1643,-4.141,-4.1627,-4.1272,-4.0967,-4.0869,-4.0215,-3.9511,-3.8916,-3.7919,-3.6886,-3.6054,-3.4214,-3.2479,-3.1096,-2.8866,-2.6526,-2.4119,-2.1303,-1.8263,-1.5176,-1.2844,-1.1178,-1.0617,-0.9626,-0.8922,-0.8731,-0.8277,-0.7865,-0.7629,-0.7457,-0.7372,-0.7322,-0.7529,-0.797,-0.8751,-0.9619,-1.0399,-1.0899,-1.1259,-1.0975,-0.9448,-0.8437,-0.7554,-0.9017,-0.9806,-1.0521,-1.1706,-1.3112,-1.4865,-1.7056,-1.9446,-2.228,0.0,0.0,-2.8525,-2.9409,-3.0055,-2.9362,-2.9393,-2.9885,-2.8862,-2.8216,-2.7889,-2.6557,-2.4903,-2.303,-2.1507,-1.9354,-1.6814,-1.6845,-1.6641,-1.6232,-1.7449,-1.8889,-2.0367,-2.1157,-2.2134,-2.3327,-2.4455,-2.6136,-2.8221,-2.8778,-2.9776,-3.1418,-3.3071,-3.4164,-3.4679,-3.6818,-3.8288,-3.9044,-4.0415,-4.0834,-4.0092,-4.0688,-4.139,-4.2071,-4.2255,-4.344,-4.5795,-4.682,-4.7119,-4.6769,-4.7072,-4.6694,-4.5421,-4.4556,-4.4103,-4.4126,-4.3356,-4.301,-4.3235,-4.25,-4.1978,-4.2018,-4.1181,-4.0687,-4.0794,-4.0487,-4.0109,-3.954,-3.9093,-3.8668,-3.8134,-3.7204,-3.6371,-3.5928,-3.4146,-3.2383,-3.1073,-2.9128,-2.6671,-2.4017,-2.1454,-1.8764,-1.5595,-1.3484,-1.2241,-1.1678,-1.0652,-0.9834,-0.9816,-0.9451,-0.9137,-0.908,-0.9017,-0.8871,-0.8546,-0.8963,-0.9573,-1.0256,-1.0824,-1.1426,-1.2278,-1.2435,-1.2105,-1.0939,-0.9473,-0.8151,-0.8439,-0.8564,-0.9645,-1.0633,-1.1558,-1.3382,-1.6269,-1.9849,-2.327,-2.5581,-2.7034,-2.7944,-2.89,-2.9827,-2.8987,-2.9085,-2.9759,-2.9079,-2.8385,-2.7784,-2.7075,-2.5769,-2.4016,-2.2057,-2.018,-1.8448,-1.8046,-1.7762,-1.77,-1.8913,-2.0203,-2.1288,-2.2113,-2.334,-2.4868,-2.539,-2.6544,-2.8427,-2.9082,-2.9982,-3.1129,-3.2181,-3.3517,-3.504,-3.558,-3.6968,-3.9243,-3.9538,-4.0596,-4.2613,-4.285,-4.3276,-4.4047,-4.4723,-4.5022,-4.4619,-4.5799,-4.6433,-4.6138,-4.5974,-4.5318,-4.4017,-4.3262,-4.3356,-4.4529,-4.3721,-4.3058,-4.2777,-4.1919,-4.1184,-4.0745,-4.0418,-4.0159,-4.0006,-3.9964,-3.9518,-3.8438,-3.8042,-3.7793,-3.7541,-3.6491,-3.5751,-3.5492,-3.407,-3.238,-3.0851,-2.8916,-2.6726,-2.3169,-2.005,-1.7496,-1.5425,-1.4141,-1.3111,-1.2199,-1.1368,-1.0785,-1.049,-1.041,-1.0136,-0.9881,-0.9978,-0.9956,-0.9762,-1.0124,-1.074,-1.1472,-1.2083,-1.26,-1.3225,-1.336,-1.2986,-1.1964,-1.0774,-0.9496,-0.7143,-0.7967,-0.8522,-0.9571,-1.116,-1.3378,-1.6122,-1.9127,-2.1796,-2.4196,-2.6322,-2.749,-2.839,-2.8944,-2.8062,-2.8153,-2.8983,-2.7866,-2.7358,-2.739,-2.6917,-2.5966,-2.4647,-2.3264,-2.1627,-1.9889,-1.9383,-1.9104,-1.908,-1.9832,-2.0947,-2.2319,-2.3541,-2.4795,-2.5996,-2.6339,-2.7372,-2.9196,-2.9172,-2.9642,-3.0715,-3.1588,-3.2699,-3.4038,-3.4937,-3.624,-3.7978,-3.934,-4.0632,-4.1907,-4.283,-4.3471,-4.3821,-4.4184,-4.437,-4.4325,-4.4976,-4.5475,-4.5706,-4.469,-4.3426,-4.2015,-4.1484,-4.1487,-4.211,-4.2276,-4.22,-4.1893,-4.0859,-4.0019,-3.9667,-3.8826,-3.823,-3.8063,-3.7981,-3.7624,-3.7068,-3.6754,-3.656,-3.638,-3.5821,-3.5332,-3.5151,-3.3836,-3.2302,-3.0542,-2.8046,-2.491,-2.2232,-1.9853,-1.7675,-1.5992,-1.4797,-1.3732,-1.2745,-1.1968,-1.1566,-1.1385,-1.1097,-1.0848,-1.0677,-1.0712,-1.0586,-1.0474,-1.0827,-1.1403,-1.2209,-1.2944,-1.3572,-1.4074,-1.451,-1.4164,-1.3101,-1.1945,-1.0467,-0.6026,-0.7429,-0.7545,-0.8887,-1.109,-1.3476,-1.5817,-1.8103,-1.9979,-2.2389,-2.492,-2.6531,-2.7442,-2.7691,-2.6977,-2.7195,-2.776,-2.6578,-2.6273,-2.6735,-2.6377,-2.5738,-2.492,-2.4002,-2.2648,-2.1185,-2.0404,-2.0025,-1.9991,-2.0606,-2.1798,-2.337,-2.4801,-2.593,-2.6784,-2.7209,-2.8291,-2.9813,-2.9461,-2.9598,-3.04,-3.11,-3.1903,-3.2829,-3.4022,-3.53,-3.6631,-3.8556,-3.9889,-4.0572,-4.1986,-4.2861,-4.3022,-4.3007,-4.3283,-4.3836,-4.3783,-4.385,-4.4053,-4.2892,-4.1377,-3.9772,-3.948,-3.9285,-3.9114,-3.9897,-4.0552,-4.0549,-3.9538,-3.8775,-3.8568,-3.7642,-3.6774,-3.6733,-3.6577,-3.6485,-3.6058,-3.5845,-3.5666,-3.5549,-3.5242,-3.4911,-3.4695,-3.372,-3.2133,-2.9942,-2.6686,-2.3766,-2.1985,-2.0218,-1.8573,-1.6862,-1.5425,-1.415,-1.3307,-1.2575,-1.2205,-1.2227,-1.1824,-1.1543,-1.1474,-1.1368,-1.1315,-1.1387,-1.1585,-1.2267,-1.3117,-1.3651,-1.4337,-1.502,-1.5371,-1.511,-1.4111,-1.3231,-1.168,-0.5445,-0.6653,-0.7328,-0.8942,-1.1095,-1.2907,-1.4857,-1.6883,-1.8899,-2.0635,-2.2486,-2.4526,-2.5593,-2.5833,-2.5926,-2.6284,-2.6792,-2.5859,-2.5574,-2.5859,-2.5412,-2.5046,-2.473,-2.3347,-2.2443,-2.194,-2.0638,-1.9888,-1.9892,-2.1472,-2.3069,-2.4475,-2.5373,-2.6182,-2.7042,-2.7961,-2.9,-3.015,-3.0276,-3.0385,-3.0482,-3.0614,-3.1138,-3.1968,-3.2166,-3.3402,-3.5725,-3.612,-3.7374,-3.9603,-4.0662,-4.1523,-4.2166,-4.2318,-4.2392,-4.2433,-4.1776,-4.1033,-4.0343,-4.0018,-3.9148,-3.7559,-3.7279,-3.6936,-3.6218,-3.6856,-3.7803,-3.8481,-3.8118,-3.7736,-3.7687,-3.7449,-3.7205,-3.7126,-3.7144,-3.7009,-3.6023,-3.5844,-3.5799,-3.5777,-3.4859,-3.4525,-3.4874,-3.3709,-3.1874,-2.9566,-2.6993,-2.4602,-2.2943,-2.1238,-1.9509,-1.7575,-1.5802,-1.4447,-1.359,-1.3046,-1.2782,-1.2695,-1.249,-1.2329,-1.2278,-1.2403,-1.2719,-1.2181,-1.2611,-1.324,-1.4099,-1.4674,-1.4715,-1.5778,-1.586,-1.5242,-1.4928,-1.471,-1.3524,-0.4139,-0.578,-0.6233,-0.8316,-1.13,-1.3155,-1.5087,-1.6973,-1.8326,-1.9634,-2.0806,-2.2324,-2.3431,-2.4138,-2.4278,-2.4354,-2.4324,-2.3858,-2.38,-2.4034,-2.386,-2.3732,-2.3584,-2.2532,-2.1922,-2.1806,-2.0681,-2.0369,-2.1026,-2.2546,-2.3684,-2.4369,-2.5526,-2.6341,-2.6745,-2.763,-2.8624,-2.9589,-2.9784,-3.012,-3.0608,-3.0708,-3.0891,-3.1257,-3.1698,-3.2655,-3.4215,-3.5218,-3.6238,-3.7331,-3.8653,-3.9555,-3.9875,-3.9967,-4.0,-3.9961,-3.9687,-3.8882,-3.7616,-3.75,-3.6716,-3.4976,-3.4847,-3.4612,-3.4335,-3.5003,-3.5723,-3.616,-3.6762,-3.713,-3.7074,-3.6647,-3.6309,-3.6249,-3.622,-3.5827,-3.4848,-3.5172,-3.5268,-3.4661,-3.4182,-3.3958,-3.3794,-3.2137,-3.0388,-2.8837,-2.6856,-2.4759,-2.3211,-2.1425,-1.9767,-1.8282,-1.6759,-1.5223,-1.3965,-1.3726,-1.3509,-1.3114,-1.3122,-1.3189,-1.28,-1.2625,-1.2651,-1.2621,-1.2898,-1.3301,-1.3946,-1.5127,-1.5742,-1.6439,-1.6642,-1.6223,-1.6052,-1.6452,-1.597,-0.2659,-0.5218,-0.6267,-0.8609,-1.1781,-1.3653,-1.5448,-1.7231,-1.8295,-1.904,-1.9523,-2.0589,-2.1326,-2.1863,-2.2433,-2.2549,-2.2157,-2.1729,-2.1628,-2.1779,-2.1843,-2.199,-2.2107,-2.1608,-2.1424,-2.1483,-2.0778,-2.0799,-2.1679,-2.2817,-2.3639,-2.4159,-2.5426,-2.6231,-2.6496,-2.7349,-2.8164,-2.8848,-2.9202,-2.9663,-3.0079,-3.0527,-3.076,-3.0816,-3.1331,-3.2006,-3.2879,-3.3985,-3.4719,-3.4972,-3.6589,-3.7512,-3.7531,-3.7793,-3.788,-3.7694,-3.7681,-3.7097,-3.5693,-3.5588,-3.4833,-3.3278,-3.2957,-3.2826,-3.2788,-3.3358,-3.3789,-3.3934,-3.5106,-3.5939,-3.6434,-3.5949,-3.5585,-3.5521,-3.5451,-3.5095,-3.4582,-3.4955,-3.5044,-3.4346,-3.4118,-3.3526,-3.2791,-3.1034,-2.9408,-2.8798,-2.6819,-2.4792,-2.3423,-2.1672,-1.9945,-1.8975,-1.7527,-1.5886,-1.4419,-1.4307,-1.4192,-1.3792,-1.3738,-1.3742,-1.3389,-1.3198,-1.3091,-1.3493,-1.3335,-1.365,-1.46,-1.57,-1.6564,-1.669,-1.7171,-1.7705,-1.7601,-1.8336,-1.8691,-0.1092,-0.5404,-0.8265,-1.0386,-1.2241,-1.4292,-1.5869,-1.7326,-1.8778,-1.9065,-1.8709,-1.9738,-1.959,-1.876,-2.0634,-2.1315,-2.0701,-1.9677,-1.9262,-1.9337,-1.9354,-1.9744,-2.0476,-2.0482,-2.0872,-2.131,-2.071,-2.0798,-2.1623,-2.2049,-2.2813,-2.3992,-2.4962,-2.5792,-2.6449,-2.7277,-2.7903,-2.8131,-2.8877,-2.9113,-2.8649,-2.9888,-3.0595,-3.0579,-3.0646,-3.1028,-3.1729,-3.1871,-3.2262,-3.2991,-3.4615,-3.5553,-3.5688,-3.6369,-3.6474,-3.5931,-3.5862,-3.5516,-3.4676,-3.4503,-3.3797,-3.2382,-3.2038,-3.1715,-3.1201,-3.184,-3.2298,-3.217,-3.318,-3.4269,-3.5471,-3.5535,-3.5578,-3.5657,-3.565,-3.5533,-3.5461,-3.5348,-3.5521,-3.5174,-3.4312,-3.3331,-3.226,-3.0956,-2.9755,-2.8805,-2.7097,-2.541,-2.4222,-2.2342,-2.0797,-1.9582,-1.7984,-1.6057,-1.5336,-1.5045,-1.4853,-1.4449,-1.4214,-1.4278,-1.4378,-1.4452,-1.4374,-1.4328,-1.436,-1.4731,-1.5521,-1.6275,-1.7018,-1.769,-1.896,-1.9435,-1.9087,-2.0253,-2.062,-0.1453,-0.7359,-1.0009,-1.1927,-1.3539,-1.5978,-1.7463,-1.8304,-1.9607,-1.9781,-1.9181,-1.9617,-1.9187,-1.8017,-1.8108,-1.8106,-1.7939,-1.8082,-1.7924,-1.7557,-1.8018,-1.8451,-1.8695,-1.8746,-1.8892,-1.9212,-1.953,-2.0096,-2.0921,-2.1589,-2.2395,-2.3348,-2.4264,-2.5096,-2.5839,-2.6241,-2.6715,-2.7334,-2.7745,-2.7991,-2.8222,-2.8785,-2.9069,-2.9072,-2.9461,-2.9815,-3.0053,-3.0489,-3.0868,-3.1109,-3.2741,-3.3709,-3.3799,-3.407,-3.4192,-3.4008,-3.4003,-3.3664,-3.2978,-3.2839,-3.2353,-3.127,-3.1025,-3.0914,-3.0778,-3.131,-3.1829,-3.2,-3.2708,-3.3604,-3.3964,-3.4186,-3.4413,-3.4853,-3.4936,-3.4952,-3.5009,-3.5311,-3.5301,-3.4216,-3.3125,-3.2204,-3.1516,-3.0368,-2.9483,-2.9133,-2.7726,-2.6301,-2.5072,-2.3506,-2.1998,-2.0777,-1.9388,-1.7954,-1.6555,-1.5827,-1.5343,-1.5019,-1.481,-1.491,-1.5043,-1.4769,-1.4651,-1.4459,-1.4711,-1.5155,-1.5742,-1.6905,-1.7646,-1.9369,-2.0597,-2.0627,-2.0551,-2.1422,-2.1855,-0.4661,-0.93,-1.169,-1.3601,-1.5334,-1.7388,-1.8741,-1.9502,-2.0422,-2.025,-1.9443,-1.9388,-1.8549,-1.6996,-1.6023,-1.4973,-1.437,-1.5408,-1.5732,-1.5223,-1.5719,-1.6166,-1.6507,-1.6764,-1.7085,-1.7555,-1.8632,-1.9638,-2.0508,-2.1379,-2.222,-2.3033,-2.3898,-2.4752,-2.5488,-2.5871,-2.6398,-2.6926,-2.7256,-2.7712,-2.8177,-2.8197,-2.819,-2.8158,-2.8315,-2.8501,-2.8637,-2.9104,-2.9446,-2.9779,-3.1013,-3.2054,-3.2607,-3.2757,-3.2839,-3.2928,-3.2995,-3.2634,-3.1942,-3.1806,-3.1468,-3.0636,-3.0442,-3.0381,-3.0477,-3.0948,-3.1242,-3.1478,-3.1883,-3.2357,-3.2401,-3.2438,-3.2931,-3.3918,-3.4369,-3.453,-3.4516,-3.4795,-3.4241,-3.3103,-3.2277,-3.1568,-3.0925,-3.0031,-2.9314,-2.8986,-2.7865,-2.683,-2.545,-2.434,-2.3165,-2.1864,-2.0435,-1.9095,-1.7859,-1.6913,-1.6161,-1.5765,-1.552,-1.5624,-1.5595,-1.5256,-1.4979,-1.4761,-1.4898,-1.5315,-1.615,-1.7374,-1.896,-2.0752,-2.1335,-2.1361,-2.1771,-2.2413,-2.2549,-1.0875,-1.1917,-1.3463,-1.5465,-1.744,-1.8588,-1.9611,-2.0645,-2.1144,-2.0591,-1.9437,-1.9026,-1.7666,-1.5461,-1.4648,-1.2696,-1.0947,-1.195,-1.2473,-1.2319,-1.247,-1.3005,-1.38,-1.475,-1.5836,-1.6811,-1.8358,-1.962,-2.0513,-2.1367,-2.2238,-2.311,-2.3968,-2.4791,-2.5598,-2.6281,-2.6787,-2.6993,-2.7535,-2.8045,-2.8254,-2.8002,-2.7929,-2.7898,-2.7218,-2.7045,-2.7623,-2.7589,-2.7892,-2.8531,-2.933,-3.0629,-3.1939,-3.2386,-3.268,-3.256,-3.273,-3.2372,-3.1674,-3.1545,-3.1172,-3.0552,-3.0318,-3.0241,-3.0267,-3.0331,-3.042,-3.0533,-3.0625,-3.0646,-3.074,-3.0957,-3.166,-3.3079,-3.3886,-3.4254,-3.4326,-3.3801,-3.2998,-3.2253,-3.1851,-3.1425,-3.0586,-3.0041,-2.941,-2.8359,-2.7825,-2.7051,-2.558,-2.4694,-2.3875,-2.2793,-2.1575,-2.033,-1.9137,-1.7989,-1.7224,-1.6592,-1.6354,-1.6292,-1.6254,-1.6042,-1.5737,-1.5529,-1.5568,-1.6024,-1.7314,-1.8502,-1.948,-2.0912,-2.1419,-2.2167,-2.2671,-2.3073,-2.2982,-1.3707,-1.5313,-1.6308,-1.7634,-1.926,-2.0513,-2.1335,-2.162,-2.2015,-2.1507,-2.0359,-1.9378,-1.7742,-1.5644,-1.4134,-1.2268,-1.0293,-1.0083,-0.978,-0.9756,-1.0743,-1.146,-1.2027,-1.3389,-1.5267,-1.7147,-1.7982,-1.908,-2.0407,-2.1387,-2.2257,-2.3111,-2.3988,-2.4829,-2.5621,-2.5944,-2.6107,-2.6136,-2.6362,-2.6503,-2.6509,-2.6447,-2.6422,-2.6365,-2.5959,-2.587,-2.603,-2.6441,-2.6716,-2.6884,-2.7619,-2.8615,-2.9683,-3.0449,-3.0814,-3.086,-3.0886,-3.0868,-3.0628,-3.0557,-3.0452,-3.0157,-3.0034,-2.9969,-2.9946,-2.9969,-3.0019,-3.0109,-3.0196,-3.0247,-3.0383,-3.0993,-3.1662,-3.2318,-3.2639,-3.3103,-3.3406,-3.2928,-3.2396,-3.2062,-3.1488,-3.0928,-3.0564,-3.0209,-2.9459,-2.831,-2.8081,-2.7496,-2.6079,-2.5447,-2.5033,-2.4015,-2.2823,-2.1688,-2.0565,-1.9641,-1.8949,-1.7925,-1.7348,-1.6946,-1.6903,-1.6588,-1.6353,-1.637,-1.6414,-1.7108,-1.8395,-1.9412,-2.0297,-2.1357,-2.2278,-2.2883,-2.3358,-2.3436,-2.3288,-1.6296,-1.7646,-1.8097,-1.8969,-2.0152,-2.1204,-2.1618,-2.1784,-2.2074,-2.1742,-2.0739,-1.942,-1.7792,-1.5877,-1.3768,-1.1818,-1.0126,-0.8922,-0.8211,-0.8133,-0.9394,-1.032,-1.1049,-1.322,-1.5434,-1.744,-1.8145,-1.9042,-2.0426,-2.1637,-2.2535,-2.3159,-2.4241,-2.5099,-2.5742,-2.6328,-2.6557,-2.6294,-2.6543,-2.6517,-2.6149,-2.5784,-2.56,-2.5589,-2.5448,-2.5332,-2.5341,-2.5657,-2.591,-2.6174,-2.6862,-2.7547,-2.8062,-2.8621,-2.9066,-2.9366,-2.9453,-2.9573,-2.9836,-2.9972,-2.9902,-2.9853,-2.9805,-2.9771,-2.9789,-2.9771,-2.9859,-2.9907,-3.003,-3.0118,-3.027,-3.0996,-3.1553,-3.163,-3.184,-3.1965,-3.2195,-3.208,-3.1597,-3.1167,-3.0546,-3.015,-2.9781,-2.9509,-2.8914,-2.7899,-2.7717,-2.7513,-2.631,-2.5976,-2.553,-2.5122,-2.4444,-2.33,-2.2086,-2.1287,-2.0697,-1.952,-1.8368,-1.7888,-1.7545,-1.6921,-1.6545,-1.6922,-1.7084,-1.8091,-1.931,-1.9874,-2.0655,-2.1844,-2.2968,-2.3236,-2.3522,-2.3614,-2.3425,-1.8775,-1.9073,-1.9106,-1.9802,-2.0722,-2.0854,-2.1133,-2.1386,-2.153,-2.1335,-2.0611,-1.9148,-1.7663,-1.5936,-1.3639,-1.1571,-0.9743,-0.8867,-0.8309,-0.8339,-0.9164,-1.0258,-1.1602,-1.3988,-1.6124,-1.7812,-1.8649,-1.9514,-2.0678,-2.2064,-2.3023,-2.3289,-2.4559,-2.5531,-2.58,-2.7267,-2.7389,-2.6854,-2.746,-2.7372,-2.6649,-2.5998,-2.559,-2.5589,-2.5437,-2.5303,-2.511,-2.4996,-2.5278,-2.6039,-2.6673,-2.7067,-2.7078,-2.7186,-2.7746,-2.8426,-2.8479,-2.8948,-2.9438,-2.9662,-2.9681,-2.957,-2.9608,-2.9682,-2.9626,-2.9664,-2.97,-2.9717,-2.9891,-3.0045,-3.0219,-3.0826,-3.126,-3.1251,-3.1469,-3.137,-3.0731,-3.1207,-3.0872,-2.9877,-2.9416,-2.9179,-2.8502,-2.8272,-2.7636,-2.6883,-2.6709,-2.651,-2.5961,-2.5805,-2.613,-2.5773,-2.5162,-2.4328,-2.2909,-2.2538,-2.1844,-2.0679,-1.9542,-1.8932,-1.8312,-1.7637,-1.7281,-1.7619,-1.8217,-1.9201,-2.001,-2.0642,-2.1387,-2.2465,-2.3143,-2.3382,-2.3563,-2.3682,-2.3133,-2.1088,-2.146,-2.1526,-2.1985,-2.251,-2.2041,-2.184,-2.1945,-2.1538,-2.1248,-2.0714,-1.8901,-1.7437,-1.6203,-1.4174,-1.2458,-1.1341,-1.0766,-1.0486,-1.0521,-1.148,-1.2566,-1.361,-1.4965,-1.6783,-1.8609,-1.9208,-2.0148,-2.1577,-2.2284,-2.3009,-2.3748,-2.4236,-2.4953,-2.5632,-2.6136,-2.6268,-2.6074,-2.6179,-2.6303,-2.6009,-2.5665,-2.5492,-2.5499,-2.5321,-2.4917,-2.4408,-2.4086,-2.4336,-2.5066,-2.585,-2.6218,-2.6188,-2.6707,-2.7306,-2.796,-2.8203,-2.8596,-2.919,-2.9375,-2.9334,-2.931,-2.9332,-2.931,-2.9265,-2.9368,-2.9392,-2.9414,-2.9532,-2.9908,-3.0339,-3.0847,-3.1034,-3.1013,-3.1194,-3.1024,-3.0369,-2.9877,-2.9573,-2.9256,-2.8779,-2.8356,-2.8102,-2.7908,-2.7484,-2.6718,-2.651,-2.6616,-2.5965,-2.5614,-2.5887,-2.5603,-2.5086,-2.4522,-2.3916,-2.359,-2.2882,-2.1732,-2.0784,-2.0084,-1.9412,-1.8696,-1.8572,-1.8711,-1.9567,-2.0526,-2.1075,-2.164,-2.2473,-2.3233,-2.3631,-2.4003,-2.3786,-2.3731,-2.273,-2.2079,-2.2643,-2.272,-2.294,-2.309,-2.2335,-2.1996,-2.1862,-2.1249,-2.0904,-2.0447,-1.875,-1.7515,-1.6816,-1.5003,-1.3588,-1.271,-1.2483,-1.2276,-1.2373,-1.3808,-1.4761,-1.5387,-1.6227,-1.7615,-1.897,-1.9604,-2.054,-2.1615,-2.2116,-2.2687,-2.3253,-2.3644,-2.4039,-2.4436,-2.5368,-2.5481,-2.533,-2.566,-2.595,-2.554,-2.5383,-2.5337,-2.5234,-2.4864,-2.4224,-2.3739,-2.3526,-2.3675,-2.4207,-2.4837,-2.5239,-2.5134,-2.5523,-2.632,-2.7237,-2.7411,-2.7896,-2.8849,-2.9082,-2.9075,-2.9044,-2.9085,-2.9108,-2.9108,-2.9171,-2.92,-2.9203,-2.9609,-3.006,-3.0522,-3.1203,-3.147,-3.1327,-3.1034,-3.0618,-2.9991,-2.9363,-2.8828,-2.849,-2.7981,-2.7385,-2.716,-2.7089,-2.6739,-2.6214,-2.5967,-2.6113,-2.6078,-2.5819,-2.5682,-2.5661,-2.5454,-2.4999,-2.4587,-2.4244,-2.375,-2.2646,-2.192,-2.1227,-2.0514,-1.9867,-1.9981,-2.023,-2.1012,-2.1664,-2.2173,-2.2701,-2.3345,-2.3978,-2.4366,-2.4441,-2.4248,-2.3749,-2.2665,-2.2396,-2.3281,-2.3249,-2.3244,-2.3171,-2.2177,-2.172,-2.1489,-2.0796,-2.0449,-2.0084,-1.8682,-1.7989,-1.7785,-1.6136,-1.4866,-1.4185,-1.4027,-1.3716,-1.4232,-1.5502,-1.6611,-1.6477,-1.7428,-1.8353,-1.9158,-1.9959,-2.0854,-2.1676,-2.195,-2.2231,-2.2765,-2.2982,-2.297,-2.3552,-2.4705,-2.4979,-2.4793,-2.5706,-2.5964,-2.5462,-2.5235,-2.5152,-2.5,-2.4145,-2.3634,-2.3341,-2.3196,-2.3217,-2.3329,-2.4048,-2.4375,-2.419,-2.419,-2.499,-2.6191,-2.6716,-2.7346,-2.8434,-2.8814,-2.8803,-2.8749,-2.8839,-2.8947,-2.8923,-2.8929,-2.8998,-2.8975,-2.9876,-3.0383,-3.0993,-3.2016,-3.2249,-3.1709,-3.0936,-3.0248,-2.9588,-2.8938,-2.8226,-2.7561,-2.6988,-2.6294,-2.5838,-2.5559,-2.5601,-2.5871,-2.5686,-2.5738,-2.5802,-2.56,-2.5857,-2.6334,-2.6027,-2.5646,-2.5254,-2.4863,-2.4328,-2.3584,-2.2978,-2.2316,-2.1625,-2.1216,-2.1423,-2.177,-2.2236,-2.2732,-2.3274,-2.382,-2.4312,-2.4534,-2.481,-2.4826,-2.471,-2.3992,-2.3069,-2.361,-2.5063,-2.4404,-2.4481,-2.4625,-2.2747,-2.177,-2.1694,-2.0801,-2.0363,-2.007,-1.913,-1.8626,-1.8477,-1.7415,-1.69,-1.6615,-1.6115,-1.5754,-1.598,-1.7176,-1.797,-1.7973,-1.8447,-1.9011,-1.9747,-2.0433,-2.1494,-2.2413,-2.2319,-2.2588,-2.327,-2.2411,-2.2327,-2.3079,-2.3829,-2.4502,-2.4406,-2.515,-2.5457,-2.5299,-2.4993,-2.4826,-2.4628,-2.3682,-2.3161,-2.3027,-2.285,-2.2758,-2.3015,-2.3603,-2.3988,-2.4057,-2.4483,-2.5176,-2.5963,-2.6752,-2.7447,-2.8171,-2.8446,-2.8448,-2.8332,-2.8456,-2.851,-2.8458,-2.8569,-2.8612,-2.8732,-2.9414,-3.0531,-3.1712,-3.2802,-3.2614,-3.1715,-3.0752,-2.9805,-2.8727,-2.7514,-2.6816,-2.6511,-2.6079,-2.5619,-2.5568,-2.5587,-2.5565,-2.5524,-2.5493,-2.5473,-2.5461,-2.5457,-2.5816,-2.6381,-2.5871,-2.5381,-2.5256,-2.4945,-2.461,-2.4265,-2.383,-2.3524,-2.2825,-2.2483,-2.2688,-2.2946,-2.3263,-2.3762,-2.4206,-2.4617,-2.5056,-2.5159,-2.5252,-2.5249,-2.5044,-2.4294,-2.3361,-2.4657,-2.5515,-2.552,-2.5524,-2.5206,-2.3276,-2.2333,-2.2042,-2.0905,-2.0326,-2.0055,-1.9289,-1.8852,-1.8736,-1.8317,-1.816,-1.8294,-1.8326,-1.782,-1.7652,-1.8457,-1.8935,-1.8649,-1.8939,-1.9461,-2.01,-2.0767,-2.1808,-2.2488,-2.2479,-2.2384,-2.3026,-2.1818,-2.134,-2.1873,-2.2683,-2.3141,-2.3514,-2.4109,-2.4583,-2.4873,-2.4712,-2.3934,-2.3217,-2.2259,-2.1661,-2.1498,-2.1327,-2.168,-2.2314,-2.2875,-2.3332,-2.3792,-2.4424,-2.5117,-2.5821,-2.6565,-2.7341,-2.7914,-2.8102,-2.8088,-2.794,-2.8081,-2.8101,-2.8091,-2.8128,-2.8388,-2.878,-2.9543,-3.0618,-3.2027,-3.2565,-3.2265,-3.114,-2.9945,-2.8857,-2.7886,-2.6766,-2.6128,-2.6072,-2.5751,-2.5556,-2.5511,-2.5586,-2.5604,-2.5561,-2.5578,-2.557,-2.5921,-2.5899,-2.5753,-2.5876,-2.5397,-2.5069,-2.5025,-2.4902,-2.4785,-2.462,-2.4477,-2.4403,-2.4189,-2.3998,-2.3899,-2.4188,-2.4481,-2.4594,-2.502,-2.5421,-2.581,-2.6013,-2.605,-2.587,-2.5619,-2.53,-2.4124,-2.5382,-2.5804,-2.6502,-2.6403,-2.5635,-2.4051,-2.3224,-2.2837,-2.1369,-2.0823,-2.0467,-1.9732,-1.9716,-1.939,-1.9476,-1.9392,-1.9572,-2.016,-1.9876,-1.8406,-1.9687,-1.9597,-1.909,-1.9276,-1.9888,-2.0276,-2.1062,-2.1984,-2.263,-2.2432,-2.2603,-2.2472,-2.137,-2.0858,-2.0727,-2.1191,-2.1941,-2.2388,-2.3209,-2.3799,-2.427,-2.4207,-2.3474,-2.2368,-2.1616,-2.1117,-2.1028,-2.088,-2.0974,-2.2081,-2.2142,-2.2523,-2.3224,-2.4111,-2.4772,-2.5411,-2.602,-2.6602,-2.7108,-2.7419,-2.7465,-2.7466,-2.7747,-2.7789,-2.776,-2.8,-2.8364,-2.9029,-2.9827,-3.08,-3.1751,-3.2108,-3.1592,-3.0406,-2.8909,-2.7843,-2.719,-2.6487,-2.5977,-2.5888,-2.5627,-2.5487,-2.5518,-2.557,-2.5602,-2.5609,-2.5637,-2.5714,-2.6033,-2.6146,-2.5902,-2.5741,-2.5379,-2.5197,-2.5157,-2.5088,-2.4946,-2.5126,-2.5091,-2.5316,-2.5484,-2.5696,-2.5635,-2.5511,-2.568,-2.5793,-2.5994,-2.6432,-2.6753,-2.6926,-2.6934,-2.6794,-2.6603,-2.6382,-2.4944,-2.5267,-2.7274,-2.6823,-2.6899,-2.7103,-2.5572,-2.4397,-2.379,-2.2602,-2.2174,-2.2013,-2.1878,-2.1611,-2.1639,-2.1758,-2.1491,-2.1177,-2.1813,-2.1268,-1.972,-2.0667,-2.0757,-1.9726,-2.0043,-2.0627,-2.1179,-2.1825,-2.2695,-2.3566,-2.377,-2.3265,-2.2765,-2.1881,-2.1126,-2.0754,-2.0996,-2.1271,-2.1556,-2.2497,-2.3191,-2.3397,-2.362,-2.3599,-2.2696,-2.2184,-2.2053,-2.2183,-2.2213,-2.2416,-2.265,-2.2626,-2.266,-2.2989,-2.378,-2.4348,-2.4725,-2.5265,-2.5767,-2.5895,-2.6251,-2.6361,-2.6507,-2.7068,-2.7526,-2.7635,-2.8049,-2.8446,-2.905,-3.0056,-3.1182,-3.1596,-3.1607,-3.1274,-3.0186,-2.8886,-2.7736,-2.7118,-2.6223,-2.5431,-2.5451,-2.5418,-2.5522,-2.5699,-2.579,-2.5761,-2.5781,-2.5754,-2.5703,-2.5792,-2.5834,-2.571,-2.5615,-2.5511,-2.5418,-2.5368,-2.5274,-2.523,-2.5637,-2.5829,-2.6307,-2.6636,-2.7303,-2.7433,-2.711,-2.6907,-2.6899,-2.7183,-2.744,-2.7679,-2.7857,-2.7822,-2.7752,-2.7462,-2.7105,-2.5951,-2.5338,-2.6187,-2.6281,-2.6347,-2.614,-2.502,-2.4291,-2.3837,-2.2947,-2.2476,-2.245,-2.2426,-2.2388,-2.2395,-2.2439,-2.227,-2.2498,-2.3587,-2.2905,-2.1727,-2.2265,-2.2403,-2.1107,-2.146,-2.2138,-2.2773,-2.3191,-2.3461,-2.4152,-2.4126,-2.3922,-2.3427,-2.2393,-2.143,-2.092,-2.0666,-2.0804,-2.102,-2.1832,-2.2555,-2.2719,-2.3027,-2.2812,-2.2588,-2.21,-2.1694,-2.1621,-2.1564,-2.1703,-2.1971,-2.2082,-2.2297,-2.272,-2.3162,-2.3701,-2.4162,-2.4691,-2.4994,-2.4987,-2.5501,-2.587,-2.5879,-2.6565,-2.7259,-2.7635,-2.8029,-2.8456,-2.9109,-3.0002,-3.0826,-3.0353,-3.0617,-3.0124,-2.9195,-2.8123,-2.7376,-2.673,-2.5787,-2.5455,-2.5301,-2.5456,-2.5751,-2.6146,-2.616,-2.6029,-2.5964,-2.5918,-2.5796,-2.5683,-2.5645,-2.5613,-2.5372,-2.5282,-2.5213,-2.5162,-2.5096,-2.5531,-2.6049,-2.654,-2.7012,-2.7561,-2.8127,-2.8434,-2.8416,-2.8279,-2.806,-2.7918,-2.8016,-2.8396,-2.8766,-2.8707,-2.8601,-2.8269,-2.7666,-2.6573,-2.5213,-2.4967,-2.571,-2.5703,-2.5118,-2.4505,-2.4284,-2.4125,-2.3601,-2.3335,-2.3183,-2.3247,-2.3228,-2.3026,-2.3044,-2.3157,-2.3332,-2.4793,-2.4268,-2.34,-2.3617,-2.367,-2.3133,-2.3248,-2.3542,-2.4189,-2.4693,-2.4633,-2.4583,-2.457,-2.4458,-2.3945,-2.2741,-2.1977,-2.1679,-2.0881,-2.0644,-2.0852,-2.1256,-2.1877,-2.2431,-2.2339,-2.2083,-2.1972,-2.1219,-2.1034,-2.1455,-2.1499,-2.185,-2.2261,-2.2459,-2.2581,-2.2922,-2.2914,-2.3175,-2.3736,-2.4199,-2.4224,-2.4303,-2.4638,-2.4886,-2.4859,-2.5898,-2.6758,-2.7402,-2.7725,-2.8357,-2.9248,-3.0075,-3.0164,-2.9343,-2.9259,-2.8852,-2.8019,-2.7305,-2.6764,-2.6439,-2.5998,-2.5849,-2.5746,-2.5751,-2.6076,-2.6586,-2.6943,-2.6895,-2.6479,-2.6423,-2.5973,-2.5845,-2.5703,-2.5584,-2.5192,-2.4996,-2.4914,-2.4802,-2.4693,-2.5446,-2.6494,-2.7086,-2.7667,-2.8229,-2.8808,-2.9118,-2.9461,-2.9348,-2.9119,-2.8867,-2.8787,-2.9322,-2.9643,-2.9613,-2.9317,-2.8783,-2.8309,-2.7494,-2.4518,-2.5244,-2.5594,-2.5766,-2.5747,-2.5668,-2.5825,-2.5855,-2.563,-2.5796,-2.5608,-2.5678,-2.5222,-2.467,-2.4598,-2.4744,-2.4924,-2.4974,-2.4832,-2.4088,-2.4231,-2.4,-2.3242,-2.359,-2.4662,-2.553,-2.6114,-2.5912,-2.5813,-2.5694,-2.5125,-2.456,-2.4243,-2.3482,-2.2595,-2.1646,-2.1191,-2.1485,-2.1479,-2.1965,-2.2811,-2.2743,-2.2565,-2.2444,-2.2392,-2.2388,-2.2726,-2.2846,-2.3306,-2.3984,-2.4206,-2.4338,-2.4338,-2.3755,-2.3493,-2.3357,-2.3073,-2.2643,-2.275,-2.3278,-2.3658,-2.3993,-2.4942,-2.5675,-2.6687,-2.779,-2.8782,-2.9622,-3.0024,-2.947,-2.8457,-2.8528,-2.805,-2.7454,-2.6766,-2.6531,-2.632,-2.6657,-2.6467,-2.6766,-2.6938,-2.6924,-2.7181,-2.7526,-2.7751,-2.7303,-2.6845,-2.6386,-2.6005,-2.5861,-2.5637,-2.5285,-2.4877,-2.4752,-2.4836,-2.4662,-2.5551,-2.6815,-2.7528,-2.8255,-2.9043,-2.9658,-3.0102,-3.0342,-3.0199,-3.0123,-2.9941,-3.0037,-3.0419,-3.0306,-2.9977,-2.9563,-2.9117,-2.8607,-2.7904,-2.3368,-2.4513,-2.4669,-2.4857,-2.5071,-2.5115,-2.5521,-2.6038,-2.6147,-2.6489,-2.6858,-2.6477,-2.5831,-2.5234,-2.5091,-2.5118,-2.5201,-2.522,-2.509,-2.5024,-2.5149,-2.5205,-2.5253,-2.5763,-2.6601,-2.7237,-2.7836,-2.827,-2.7896,-2.7324,-2.6644,-2.6301,-2.5716,-2.4966,-2.3896,-2.2912,-2.2156,-2.1822,-2.1702,-2.2099,-2.2656,-2.2738,-2.2579,-2.2415,-2.279,-2.3124,-2.3422,-2.3926,-2.4211,-2.4632,-2.4645,-2.4658,-2.4458,-2.3913,-2.3396,-2.3156,-2.248,-2.2099,-2.2086,-2.2538,-2.2806,-2.3287,-2.4412,-2.5815,-2.6943,-2.8176,-2.8763,-2.8578,-2.8906,-2.8388,-2.7435,-2.7364,-2.7013,-2.6597,-2.648,-2.6526,-2.6625,-2.7121,-2.7362,-2.775,-2.8046,-2.7896,-2.7756,-2.7887,-2.8189,-2.8159,-2.7497,-2.6795,-2.6353,-2.6032,-2.5752,-2.5428,-2.5005,-2.4662,-2.4832,-2.493,-2.5916,-2.703,-2.7773,-2.861,-2.9851,-3.0551,-3.0747,-3.0802,-3.059,-3.0613,-3.08,-3.0741,-3.0655,-3.0439,-3.0212,-2.9535,-2.8798,-2.7846,-2.7078,-2.203,-2.3151,-2.3692,-2.4057,-2.4358,-2.4595,-2.5396,-2.6337,-2.6748,-2.7267,-2.7483,-2.6886,-2.6034,-2.5504,-2.5291,-2.5179,-2.5233,-2.5371,-2.5518,-2.5868,-2.6357,-2.6696,-2.696,-2.7723,-2.866,-2.9456,-2.9857,-3.0227,-3.0278,-2.9775,-2.8934,-2.821,-2.7355,-2.6517,-2.5468,-2.4222,-2.3108,-2.1932,-2.214,-2.2436,-2.2625,-2.2579,-2.2479,-2.2574,-2.2891,-2.3395,-2.3737,-2.4252,-2.4702,-2.5586,-2.5382,-2.5496,-2.5612,-2.4591,-2.3776,-2.3304,-2.2558,-2.1777,-2.185,-2.2137,-2.2435,-2.3007,-2.3924,-2.538,-2.6923,-2.8373,-2.8675,-2.7395,-2.7681,-2.7176,-2.6457,-2.6368,-2.619,-2.6261,-2.6451,-2.6555,-2.6745,-2.7248,-2.7612,-2.7817,-2.8122,-2.8524,-2.8404,-2.8322,-2.8488,-2.8816,-2.8261,-2.7297,-2.6642,-2.6127,-2.5654,-2.5275,-2.496,-2.4599,-2.4693,-2.5185,-2.625,-2.7224,-2.7959,-2.8967,-3.0169,-3.0654,-3.0762,-3.0785,-3.0799,-3.0796,-3.0799,-3.0797,-3.0772,-3.0492,-3.0091,-2.9168,-2.83,-2.7257,-2.6376,-2.0639,-2.1159,-2.2891,-2.3764,-2.4154,-2.5188,-2.6214,-2.7097,-2.8103,-2.844,-2.8293,-2.737,-2.6579,-2.6177,-2.5518,-2.525,-2.537,-2.6058,-2.6335,-2.6707,-2.7271,-2.7625,-2.8154,-2.9014,-3.0106,-3.0573,-3.1508,-3.2297,-3.2569,-3.2641,-3.0986,-2.9206,-2.9136,-2.8198,-2.6855,-2.5338,-2.3861,-2.2821,-2.2776,-2.2669,-2.2596,-2.2479,-2.2534,-2.2829,-2.3081,-2.3629,-2.5029,-2.5263,-2.5832,-2.7114,-2.6691,-2.6588,-2.6604,-2.5156,-2.419,-2.3708,-2.2441,-2.1727,-2.1638,-2.1608,-2.1713,-2.2304,-2.3317,-2.4711,-2.6048,-2.6065,-2.6114,-2.6476,-2.6726,-2.6392,-2.5911,-2.5722,-2.5606,-2.588,-2.6257,-2.6593,-2.6885,-2.739,-2.7717,-2.7865,-2.8111,-2.8407,-2.8532,-2.8349,-2.8615,-2.894,-2.8554,-2.7609,-2.6568,-2.5954,-2.5422,-2.5007,-2.4754,-2.4556,-2.4534,-2.5182,-2.6112,-2.7206,-2.8138,-2.9242,-3.0465,-3.0696,-3.0813,-3.0816,-3.082,-3.0799,-3.0771,-3.0738,-3.0654,-3.0471,-2.9861,-2.8645,-2.7407,-2.6265,-2.5597,-1.9098,-1.9991,-2.1874,-2.2908,-2.3381,-2.4413,-2.5492,-2.6499,-2.7081,-2.7363,-2.7532,-2.7338,-2.6762,-2.5915,-2.557,-2.5578,-2.6051,-2.6307,-2.6825,-2.7436,-2.8032,-2.8402,-2.9063,-3.0089,-3.1298,-3.2053,-3.3372,-3.4547,-3.4999,-3.5102,-3.4824,-3.3477,-3.172,-3.0067,-2.8536,-2.6488,-2.4805,-2.3925,-2.3298,-2.2808,-2.2511,-2.2559,-2.2623,-2.2605,-2.3635,-2.4288,-2.5252,-2.5864,-2.6611,-2.7128,-2.7136,-2.7297,-2.7114,-2.5345,-2.4411,-2.3947,-2.245,-2.1578,-2.1388,-2.1388,-2.1671,-2.2694,-2.3567,-2.4357,-2.524,-2.5853,-2.5886,-2.5994,-2.5958,-2.5782,-2.5198,-2.5192,-2.5309,-2.5632,-2.6081,-2.6574,-2.6975,-2.745,-2.758,-2.7624,-2.7843,-2.8109,-2.8207,-2.822,-2.8637,-2.9001,-2.8496,-2.7924,-2.6962,-2.6115,-2.5679,-2.5339,-2.5125,-2.5024,-2.5002,-2.5475,-2.5994,-2.7129,-2.8296,-2.9363,-3.0409,-3.076,-3.0862,-3.084,-3.0714,-3.0565,-3.0508,-3.0598,-3.0366,-2.9877,-2.8936,-2.7752,-2.6512,-2.5299,-2.4825,-1.7496,-1.8327,-2.0442,-2.1899,-2.2847,-2.4118,-2.5144,-2.5966,-2.6559,-2.6752,-2.691,-2.7319,-2.6867,-2.5836,-2.5346,-2.5761,-2.6406,-2.6856,-2.7462,-2.8188,-2.89,-2.9385,-3.0084,-3.1097,-3.2465,-3.3599,-3.4814,-3.5916,-3.6659,-3.7355,-3.6825,-3.5818,-3.4737,-3.2901,-3.0545,-2.798,-2.6049,-2.5093,-2.4335,-2.3448,-2.3181,-2.3106,-2.3457,-2.3385,-2.4071,-2.4708,-2.5535,-2.6176,-2.658,-2.6998,-2.7101,-2.7136,-2.6454,-2.5463,-2.4378,-2.3503,-2.2523,-2.139,-2.1262,-2.142,-2.1713,-2.2224,-2.2858,-2.3689,-2.4581,-2.5205,-2.4917,-2.5353,-2.5425,-2.5418,-2.4892,-2.5431,-2.5901,-2.638,-2.6617,-2.7023,-2.7096,-2.7389,-2.7344,-2.7314,-2.7334,-2.7086,-2.7472,-2.758,-2.8354,-2.8687,-2.8496,-2.8101,-2.7668,-2.6901,-2.631,-2.6008,-2.5765,-2.5684,-2.5684,-2.5826,-2.6131,-2.7402,-2.8493,-2.9306,-3.0118,-3.0567,-3.0866,-3.0839,-3.0657,-3.0329,-3.0126,-3.0015,-2.9577,-2.9057,-2.7923,-2.6731,-2.5663,-2.4553,-2.4188,-1.583,-1.5917,-1.853,-2.0741,-2.2473,-2.4672,-2.5574,-2.5866,-2.6854,-2.7344,-2.7228,-2.6853,-2.6546,-2.6132,-2.5436,-2.5811,-2.6738,-2.7363,-2.8134,-2.9017,-2.9839,-3.0598,-3.1336,-3.2259,-3.3406,-3.5094,-3.6099,-3.6871,-3.7728,-3.8004,-3.7735,-3.7542,-3.674,-3.5369,-3.3191,-3.0346,-2.8007,-2.6327,-2.5738,-2.4945,-2.4415,-2.4089,-2.4396,-2.4587,-2.4521,-2.499,-2.5815,-2.5998,-2.6315,-2.6608,-2.6554,-2.6695,-2.6775,-2.4962,-2.4062,-2.3944,-2.2355,-2.1513,-2.1433,-2.1631,-2.1703,-2.1551,-2.2167,-2.2541,-2.2772,-2.3143,-2.384,-2.452,-2.4861,-2.5352,-2.5699,-2.6174,-2.6544,-2.6877,-2.7091,-2.7034,-2.7037,-2.6759,-2.6619,-2.6359,-2.589,-2.5658,-2.625,-2.6882,-2.7846,-2.8271,-2.8301,-2.822,-2.8143,-2.7631,-2.7022,-2.6525,-2.6281,-2.6208,-2.6097,-2.5904,-2.6326,-2.7617,-2.869,-2.9503,-3.0157,-3.066,-3.0847,-3.0818,-3.0644,-3.0378,-2.9838,-2.9362,-2.8609,-2.7778,-2.6778,-2.5665,-2.4653,-2.3982,-2.3708,-1.4621,-1.54,-1.7069,-1.8543,-2.0123,-2.2684,-2.4209,-2.5013,-2.5959,-2.6312,-2.6079,-2.6073,-2.5958,-2.5558,-2.5431,-2.5806,-2.7135,-2.7459,-2.8268,-2.9781,-3.0584,-3.1044,-3.1762,-3.2875,-3.4155,-3.5359,-3.6474,-3.7622,-3.8442,-3.8744,-3.9062,-3.898,-3.8102,-3.6566,-3.3852,-3.108,-2.8666,-2.7683,-2.6488,-2.5302,-2.4871,-2.4807,-2.4891,-2.5094,-2.4944,-2.5281,-2.5998,-2.5863,-2.5694,-2.5821,-2.5652,-2.5568,-2.5497,-2.3784,-2.3418,-2.3266,-2.2092,-2.1606,-2.1782,-2.2076,-2.2185,-2.1727,-2.1541,-2.1755,-2.1772,-2.2648,-2.3282,-2.3861,-2.4485,-2.5133,-2.5879,-2.6076,-2.6424,-2.6908,-2.6995,-2.6669,-2.6458,-2.5926,-2.5551,-2.5192,-2.4763,-2.5119,-2.5619,-2.6454,-2.7376,-2.8143,-2.8296,-2.8875,-2.8994,-2.834,-2.7694,-2.7102,-2.6759,-2.6666,-2.6588,-2.6571,-2.7168,-2.8494,-2.9214,-2.9757,-3.0316,-3.0771,-3.083,-3.0801,-3.062,-3.0391,-2.9233,-2.8154,-2.7273,-2.6366,-2.5721,-2.519,-2.4487,-2.3912,-2.3529,-1.3595,-1.427,-1.5629,-1.6846,-1.8178,-2.0751,-2.2648,-2.3966,-2.5048,-2.5272,-2.5102,-2.5494,-2.547,-2.5021,-2.5007,-2.5797,-2.7381,-2.7533,-2.8465,-3.0042,-3.0914,-3.1424,-3.2168,-3.3252,-3.4704,-3.5848,-3.6993,-3.8118,-3.9261,-3.9753,-3.9842,-3.9572,-3.9012,-3.7445,-3.5083,-3.2847,-3.0598,-2.9472,-2.7951,-2.6835,-2.6236,-2.5807,-2.566,-2.5602,-2.553,-2.5598,-2.5799,-2.5528,-2.4941,-2.4777,-2.4567,-2.427,-2.3819,-2.3354,-2.3003,-2.2801,-2.2573,-2.2096,-2.2208,-2.2625,-2.2316,-2.1113,-2.1335,-2.1255,-2.1159,-2.1933,-2.2747,-2.3433,-2.4195,-2.5295,-2.6172,-2.633,-2.6676,-2.7145,-2.7093,-2.6754,-2.569,-2.5158,-2.4473,-2.4085,-2.3956,-2.4427,-2.5106,-2.6083,-2.6992,-2.7686,-2.8329,-2.8983,-2.9581,-2.9008,-2.8455,-2.7988,-2.7535,-2.7446,-2.7446,-2.7454,-2.8242,-2.9408,-2.9791,-2.9999,-3.0401,-3.081,-3.081,-3.0693,-3.0313,-2.9589,-2.804,-2.6907,-2.6301,-2.575,-2.5253,-2.4743,-2.4303,-2.3917,-2.3544,-1.27,-1.2598,-1.427,-1.5683,-1.7013,-1.9212,-2.1243,-2.3081,-2.4185,-2.4617,-2.4651,-2.4727,-2.4817,-2.4798,-2.4697,-2.5559,-2.6902,-2.7151,-2.831,-2.9737,-3.08,-3.1535,-3.2441,-3.3408,-3.4963,-3.6577,-3.7681,-3.8212,-3.9871,-4.0039,-3.9998,-3.9842,-3.9267,-3.8045,-3.6534,-3.4986,-3.284,-3.1122,-2.9564,-2.8488,-2.7734,-2.7002,-2.6708,-2.6443,-2.611,-2.5826,-2.5738,-2.5333,-2.4654,-2.4365,-2.4188,-2.4011,-2.372,-2.3237,-2.319,-2.316,-2.3029,-2.2856,-2.257,-2.2953,-2.2354,-2.1187,-2.0882,-2.0593,-2.0586,-2.1187,-2.2236,-2.3126,-2.3966,-2.5493,-2.6705,-2.6958,-2.7245,-2.739,-2.7434,-2.6531,-2.517,-2.4321,-2.3538,-2.3135,-2.2977,-2.3391,-2.436,-2.5359,-2.635,-2.7011,-2.7714,-2.8489,-2.9049,-2.9549,-2.9103,-2.907,-2.8651,-2.8358,-2.8319,-2.832,-2.8883,-2.9899,-2.992,-3.0119,-3.0501,-3.0828,-3.076,-3.0535,-2.9887,-2.8904,-2.7537,-2.6454,-2.5599,-2.5145,-2.495,-2.4679,-2.4338,-2.3998,-2.3638,-1.2297,-1.243,-1.3075,-1.4198,-1.5892,-1.8484,-2.0507,-2.1935,-2.3013,-2.3521,-2.3657,-2.4219,-2.4437,-2.4559,-2.4372,-2.5094,-2.5893,-2.673,-2.7606,-2.897,-3.0695,-3.1616,-3.2558,-3.3598,-3.5092,-3.6132,-3.7041,-3.778,-3.8823,-3.9435,-3.9876,-3.9772,-3.9567,-3.8656,-3.7646,-3.6707,-3.4674,-3.2732,-3.107,-2.9879,-2.8937,-2.8029,-2.7569,-2.6944,-2.6534,-2.6118,-2.533,-2.4652,-2.3851,-2.31,-2.2589,-2.2147,-2.1639,-2.2028,-2.2478,-2.2722,-2.3017,-2.3255,-2.2815,-2.3247,-2.2968,-2.1537,-2.108,-2.0055,-1.9967,-2.0608,-2.1839,-2.2658,-2.3776,-2.526,-2.6316,-2.6756,-2.7008,-2.7129,-2.6892,-2.5802,-2.4517,-2.3638,-2.2837,-2.214,-2.1991,-2.2863,-2.3813,-2.4666,-2.5589,-2.6283,-2.6978,-2.7737,-2.857,-2.9079,-2.948,-2.9429,-2.955,-2.9196,-2.9152,-2.914,-2.9695,-3.0225,-3.0336,-3.0492,-3.0862,-3.1051,-3.0845,-3.021,-2.9283,-2.83,-2.7206,-2.6221,-2.5378,-2.516,-2.4947,-2.4689,-2.4392,-2.4077,-2.3771,-1.203,-1.2287,-1.2372,-1.3448,-1.5408,-1.7876,-1.948,-2.0438,-2.1807,-2.2611,-2.305,-2.3529,-2.3953,-2.4229,-2.4134,-2.4536,-2.5443,-2.6193,-2.7059,-2.8421,-3.0487,-3.1392,-3.2389,-3.3504,-3.4768,-3.5595,-3.6222,-3.6892,-3.7854,-3.8761,-3.9282,-3.9758,-3.9826,-3.9072,-3.8123,-3.7327,-3.6281,-3.4339,-3.2601,-3.108,-2.9929,-2.8963,-2.8216,-2.7396,-2.7019,-2.6134,-2.5096,-2.4265,-2.3391,-2.2589,-2.2009,-2.1645,-2.1457,-2.2057,-2.249,-2.2858,-2.3357,-2.336,-2.3041,-2.3482,-2.2963,-2.2153,-2.1412,-2.0543,-2.0207,-2.0588,-2.1334,-2.2081,-2.351,-2.4837,-2.5629,-2.631,-2.6507,-2.6685,-2.5827,-2.4927,-2.3979,-2.3031,-2.2159,-2.129,-2.1579,-2.2431,-2.3282,-2.4079,-2.4832,-2.5501,-2.5998,-2.6484,-2.7614,-2.8694,-2.9168,-2.9396,-2.9788,-2.9971,-2.9932,-2.9931,-3.0404,-3.0856,-3.1195,-3.1352,-3.1475,-3.117,-3.0853,-2.9766,-2.8488,-2.7519,-2.6562,-2.6021,-2.5357,-2.5152,-2.4987,-2.4798,-2.453,-2.4229,-2.3919,-1.1955,-1.22,-1.2266,-1.3562,-1.5363,-1.7322,-1.8319,-1.8665,-2.0497,-2.1733,-2.2353,-2.2885,-2.3378,-2.3666,-2.3744,-2.4118,-2.4882,-2.5615,-2.6416,-2.7583,-2.9801,-3.1016,-3.182,-3.305,-3.3979,-3.4821,-3.5528,-3.6105,-3.6969,-3.7957,-3.8945,-3.9576,-3.9758,-3.9233,-3.8461,-3.7688,-3.6701,-3.5524,-3.3904,-3.2393,-3.0974,-2.999,-2.917,-2.8057,-2.7395,-2.6682,-2.5661,-2.4729,-2.3806,-2.3083,-2.2555,-2.2192,-2.2378,-2.2436,-2.2753,-2.31,-2.3502,-2.3423,-2.3223,-2.3458,-2.3101,-2.2454,-2.1896,-2.1171,-2.087,-2.103,-2.1656,-2.1952,-2.3216,-2.458,-2.5522,-2.5643,-2.5745,-2.5656,-2.5062,-2.3955,-2.2798,-2.1976,-2.1246,-2.0708,-2.1176,-2.196,-2.2418,-2.3183,-2.3942,-2.4669,-2.5031,-2.5354,-2.6381,-2.7759,-2.8651,-2.9147,-2.959,-2.9994,-3.0417,-3.051,-3.0996,-3.1448,-3.1778,-3.1953,-3.1902,-3.143,-3.0808,-2.9453,-2.7998,-2.6889,-2.5968,-2.5564,-2.532,-2.516,-2.5019,-2.4927,-2.4701,-2.443,-2.4078,-1.2159,-1.2609,-1.3801,-1.4763,-1.561,-1.7297,-1.8125,-1.8385,-1.8858,-1.9838,-2.093,-2.2488,-2.319,-2.2919,-2.3348,-2.3695,-2.3993,-2.5088,-2.5725,-2.6853,-2.873,-3.0224,-3.0893,-3.1982,-3.2974,-3.3777,-3.453,-3.5349,-3.6396,-3.7436,-3.8276,-3.8657,-3.911,-3.9161,-3.8595,-3.7791,-3.6866,-3.6149,-3.4898,-3.3679,-3.2574,-3.096,-2.9771,-2.8981,-2.8358,-2.6871,-2.5825,-2.4923,-2.3847,-2.2925,-2.2634,-2.2634,-2.2867,-2.2575,-2.2676,-2.3032,-2.3355,-2.332,-2.3245,-2.3222,-2.2995,-2.2758,-2.2275,-2.1844,-2.1661,-2.1946,-2.2132,-2.2287,-2.2917,-2.4264,-2.5097,-2.5035,-2.4891,-2.4636,-2.4283,-2.2984,-2.1676,-2.099,-2.0314,-2.0534,-2.0906,-2.1287,-2.1706,-2.2289,-2.3044,-2.3491,-2.3705,-2.4167,-2.5148,-2.6409,-2.7849,-2.8492,-2.9128,-2.9616,-3.0272,-3.0948,-3.1357,-3.1723,-3.2023,-3.2186,-3.2291,-3.1177,-3.0053,-2.8837,-2.7539,-2.6498,-2.5756,-2.549,-2.5274,-2.5115,-2.5057,-2.4965,-2.5001,-2.4794,-2.4395,-1.2195,-1.2592,-1.426,-1.5122,-1.5629,-1.719,-1.8053,-1.8232,-1.861,-1.914,-1.9891,-2.1526,-2.2434,-2.2458,-2.3017,-2.3265,-2.3511,-2.458,-2.5355,-2.6301,-2.7566,-2.8941,-3.0011,-3.0914,-3.175,-3.2611,-3.3491,-3.4454,-3.5614,-3.6278,-3.6861,-3.7802,-3.8609,-3.8863,-3.8488,-3.7779,-3.6904,-3.6437,-3.531,-3.448,-3.3721,-3.2154,-3.0651,-2.991,-2.8709,-2.721,-2.6029,-2.518,-2.4452,-2.3746,-2.3502,-2.3355,-2.3383,-2.311,-2.3046,-2.3212,-2.3348,-2.3289,-2.3168,-2.307,-2.3045,-2.286,-2.2716,-2.2297,-2.1996,-2.2211,-2.241,-2.259,-2.3164,-2.4388,-2.4617,-2.4613,-2.434,-2.4064,-2.3322,-2.2238,-2.1205,-2.0369,-2.0082,-2.019,-2.0503,-2.0796,-2.1183,-2.1509,-2.2351,-2.3466,-2.3503,-2.3802,-2.4643,-2.5328,-2.6694,-2.7867,-2.8541,-2.9417,-3.023,-3.0945,-3.1593,-3.1932,-3.2203,-3.2238,-3.2097,-3.0568,-2.9206,-2.8307,-2.7322,-2.6233,-2.5622,-2.539,-2.5225,-2.5075,-2.5018,-2.4984,-2.5058,-2.508,-2.4651,-1.204,-1.2412,-1.4084,-1.4976,-1.5395,-1.6946,-1.7776,-1.8063,-1.8807,-1.9264,-1.9562,-2.0472,-2.1579,-2.2337,-2.2808,-2.311,-2.3579,-2.4325,-2.5012,-2.59,-2.7289,-2.8107,-2.8945,-2.9889,-3.0683,-3.1476,-3.2353,-3.335,-3.4413,-3.5117,-3.604,-3.7156,-3.7765,-3.8122,-3.826,-3.766,-3.6558,-3.6157,-3.5398,-3.473,-3.3902,-3.2999,-3.16,-3.0365,-2.921,-2.7743,-2.6422,-2.5586,-2.5148,-2.4726,-2.4322,-2.4225,-2.3943,-2.3647,-2.3473,-2.3494,-2.3407,-2.336,-2.3265,-2.3119,-2.3144,-2.3126,-2.2995,-2.281,-2.2476,-2.2541,-2.2744,-2.3066,-2.3648,-2.3959,-2.4191,-2.4116,-2.3808,-2.3229,-2.2341,-2.1572,-2.0671,-1.993,-1.9945,-1.9988,-2.0175,-2.0418,-2.0622,-2.0958,-2.1771,-2.2924,-2.3671,-2.4115,-2.4538,-2.5096,-2.5991,-2.7162,-2.807,-2.9002,-3.0067,-3.0779,-3.1438,-3.1918,-3.2125,-3.2203,-3.1806,-3.0183,-2.8922,-2.8199,-2.7196,-2.6058,-2.5556,-2.535,-2.5171,-2.5126,-2.5018,-2.5017,-2.5197,-2.5166,-2.4794,-1.1495,-1.2526,-1.3606,-1.4513,-1.5375,-1.627,-1.6998,-1.7725,-1.8399,-1.9093,-1.9706,-2.0264,-2.1015,-2.16,-2.2143,-2.2654,-2.3338,-2.4039,-2.4611,-2.5347,-2.6352,-2.7044,-2.7776,-2.8613,-2.9575,-3.0539,-3.1434,-3.2154,-3.3221,-3.4166,-3.494,-3.5585,-3.65,-3.6869,-3.6961,-3.6385,-3.5873,-3.5578,-3.5107,-3.4367,-3.396,-3.3078,-3.2101,-3.0936,-2.9849,-2.81,-2.6708,-2.6116,-2.5535,-2.5093,-2.4908,-2.4887,-2.4532,-2.4118,-2.3858,-2.3589,-2.3522,-2.3494,-2.336,-2.3217,-2.3217,-2.3289,-2.3193,-2.3126,-2.3,-2.3094,-2.3262,-2.34,-2.3813,-2.3899,-2.4024,-2.3655,-2.327,-2.2279,-2.1344,-2.0772,-2.0054,-1.9919,-1.9922,-1.9922,-1.9976,-2.0077,-2.0115,-2.0519,-2.1041,-2.2048,-2.2725,-2.3281,-2.4553,-2.5005,-2.5401,-2.6473,-2.7599,-2.8722,-2.9827,-3.0414,-3.102,-3.16,-3.1995,-3.1961,-3.1273,-2.9698,-2.8596,-2.8105,-2.7056,-2.5848,-2.5495,-2.5582,-2.5414,-2.5347,-2.5095,-2.5045,-2.5227,-2.518,-2.4791]}]]